GFSNW_prec_cloud_003.txt.gz
Cloud_Cover
23 70 100 100 100 100 100 0 93 5 15 4 4 5 0 2 5 1 0 0 0 0 0 0 0 0 0 0 0 0 0 1 0 0 0 0 0 0 0 0 0 0 0 0
41 1 57 100 100 90 42 0 96 3 9 5 11 5 5 5 2 0 2 0 0 0 3 5 5 0 0 0 0 0 0 2 0 0 0 1 5 5 1 0 0 0 1 0
13 18 100 100 100 38 0 4 64 4 5 3 7 5 5 5 5 5 5 2 0 0 0 5 5 5 3 0 0 1 0 0 0 0 5 5 7 5 2 2 1 3 5 5
2 100 100 100 95 73 10 6 4 90 18 8 30 5 5 5 5 5 5 5 3 5 5 1 5 5 5 5 0 5 3 2 5 5 5 5 5 5 5 5 5 5 5 5
92 100 100 100 100 99 9 58 53 100 7 5 30 42 5 5 16 5 38 35 5 5 5 5 38 5 5 5 7 76 66 69 45 59 9 5 59 17 5 5 5 5 5 5
100 100 100 100 67 12 32 100 99 100 6 5 5 24 24 9 59 19 47 14 5 5 5 5 5 8 8 9 74 54 48 29 44 83 38 57 100 23 5 5 5 5 19 7
100 100 98 79 0 0 95 100 100 100 5 6 94 52 31 5 59 9 5 5 5 5 5 24 5 46 47 31 60 52 40 21 6 59 5 86 72 66 5 5 5 5 5 5
82 40 42 30 0 16 100 100 100 26 5 60 14 5 5 15 37 7 5 5 5 5 10 8 14 5 5 8 44 65 36 5 10 8 8 76 95 90 87 5 8 5 5 26
86 100 13 15 1 100 100 100 56 33 5 42 15 21 98 41 5 17 8 5 5 5 9 7 5 50 65 93 66 32 12 17 31 43 57 92 100 95 10 5 33 49 100 10
72 64 42 5 52 100 100 100 64 17 14 15 5 68 82 97 42 29 30 5 5 5 5 7 8 23 9 72 20 35 48 24 45 32 26 50 18 5 5 26 29 91 100 98
100 100 42 43 100 100 71 100 100 62 56 7 53 90 72 54 11 21 44 17 5 14 6 20 13 39 84 59 17 44 29 60 100 100 100 24 9 10 11 56 97 35 12 5
100 100 62 100 100 100 94 100 96 65 61 34 86 56 43 65 10 59 67 25 20 7 5 5 5 34 44 54 94 76 99 100 100 100 100 11 5 8 97 99 6 5 5 5
97 68 100 100 100 100 98 100 100 100 73 61 100 59 36 92 94 20 8 23 5 5 5 5 14 11 98 90 87 100 100 100 100 49 79 48 48 99 70 5 9 9 5 76
44 99 100 100 100 100 97 100 100 93 87 85 100 100 94 92 100 36 76 36 9 5 33 60 33 38 59 72 58 100 100 100 100 100 100 100 100 90 5 5 5 5 6 5
100 100 100 100 100 100 100 100 99 47 30 14 89 100 100 100 100 100 100 100 100 100 100 92 90 100 96 88 77 100 100 100 47 97 91 16 29 13 11 28 17 28 40 49
100 100 100 100 100 100 100 100 94 98 24 6 63 69 100 100 100 100 100 100 100 100 100 100 100 100 29 68 69 100 100 97 100 5 5 5 30 96 64 22 55 84 90 81
100 100 100 100 100 100 100 100 100 100 95 77 95 85 28 48 91 100 100 100 86 50 73 90 70 100 100 100 100 100 100 100 61 5 5 5 5 5 5 5 5 5 13 54
100 100 100 100 100 100 100 100 100 99 54 14 53 82 100 93 98 99 97 100 94 97 100 100 100 100 100 100 100 100 100 100 94 31 5 5 8 35 55 21 11 50 59 96
100 100 100 100 100 100 100 100 100 100 100 100 100 100 100 100 100 100 100 98 100 94 100 100 100 100 100 99 100 100 100 100 100 100 68 20 92 49 73 56 93 100 100 100
100 100 100 100 100 100 100 100 100 100 100 100 100 100 100 100 100 100 100 95 94 45 100 100 100 97 100 100 100 90 98 97 31 5 31 79 89 100 100 100 100 100 100 100
100 100 100 100 100 100 100 100 100 100 100 100 100 100 100 100 100 100 100 100 98 95 23 100 88 100 100 100 99 58 58 76 58 64 100 100 100 100 100 100 100 100 100 100
100 100 100 100 100 100 90 94 100 100 100 100 100 100 100 100 100 100 99 84 92 75 83 100 100 100 100 100 100 100 100 100 99 96 99 86 100 100 95 100 100 100 100 100
100 100 100 100 100 98 57 100 100 100 100 100 100 100 100 100 61 100 100 100 100 92 99 100 100 100 100 100 100 100 100 100 79 84 92 97 100 100 100 100 100 100 100 100
100 100 100 98 100 100 100 100 100 100 100 100 100 100 100 100 100 100 100 100 100 100 100 100 100 100 100 100 100 100 100 100 97 87 90 100 100 70 71 98 100 100 100 100
100 100 99 100 100 100 100 100 100 100 100 100 100 100 100 100 100 100 100 99 78 68 90 99 100 100 100 99 100 100 100 96 86 85 85 95 88 89 89 98 98 100 100 100
100 100 100 100 100 100 100 100 100 100 100 100 100 100 100 100 100 100 100 99 92 97 100 100 100 100 98 88 98 63 86 89 14 9 56 100 100 100 100 100 100 100 100 98
100 100 100 100 100 100 100 100 100 100 100 100 100 100 100 98 86 100 100 100 100 100 100 100 93 79 58 81 91 75 92 83 71 89 49 37 68 100 97 100 100 100 100 99

GFSNW_prec_cloud_006.txt.gz
Cloud_Cover
100 100 100 80 100 100 75 4 0 14 5 2 20 4 5 0 0 2 0 5 5 6 3 0 0 0 0 0 0 0 0 0 0 2 0 0 0 0 0 3 4 0 0 5
88 100 100 33 64 86 66 70 1 5 4 13 9 5 5 5 0 5 3 4 0 1 0 0 0 0 0 0 0 0 0 1 2 0 0 0 0 2 5 5 5 5 28 0
100 100 100 14 100 100 88 98 2 4 4 8 38 5 5 5 5 5 5 0 0 0 0 0 1 0 0 0 0 0 2 0 0 3 5 5 31 79 89 81 6 5 4 2
100 100 100 98 100 100 100 57 0 1 82 5 86 6 5 5 5 5 5 0 0 0 2 0 4 5 2 1 3 5 4 5 5 5 40 48 86 99 23 5 5 5 5 4
100 100 100 100 100 100 100 3 71 5 100 87 89 15 44 81 17 5 5 4 5 5 2 4 3 5 5 5 5 14 19 68 75 77 68 70 99 50 5 5 5 5 13 6
100 100 100 100 100 46 86 10 92 16 68 80 8 65 100 100 14 5 5 5 5 5 0 3 5 5 18 5 5 5 11 5 5 41 62 96 100 13 5 5 5 5 5 5
100 100 100 100 100 1 5 52 77 16 16 90 25 88 85 58 5 11 5 5 5 5 2 2 4 5 5 5 5 5 5 5 5 5 34 100 98 8 3 2 3 5 5 5
100 100 100 100 99 0 0 5 23 48 100 96 32 26 31 30 8 6 5 5 5 5 5 5 5 8 8 5 5 5 5 5 5 24 5 59 99 61 18 5 5 5 5 5
100 100 100 100 94 0 4 26 31 31 100 100 82 5 46 86 62 6 5 8 5 5 5 15 5 5 5 5 5 5 5 5 5 6 67 55 73 28 5 17 36 100 99 92
100 100 100 99 53 5 5 23 41 66 100 86 9 12 98 90 69 10 9 16 26 5 21 99 52 7 9 5 5 72 25 37 39 8 35 9 5 36 90 97 100 100 85 97
100 100 100 77 12 5 5 7 14 100 100 57 5 34 91 54 49 29 24 25 33 13 42 61 16 54 44 15 5 5 12 6 26 6 64 36 5 75 100 80 42 45 28 21
100 100 100 100 5 5 5 14 91 100 100 87 56 62 100 70 99 62 5 52 62 54 78 46 18 93 93 6 29 5 6 5 5 6 5 5 5 65 20 5 18 92 100 23
100 100 100 96 12 4 5 48 100 100 100 73 93 58 94 41 100 87 7 87 94 62 9 22 8 100 87 86 23 5 61 12 22 9 82 7 5 16 86 97 100 80 5 7
100 100 54 88 5 5 23 100 100 100 100 100 99 71 90 76 16 86 95 44 75 16 22 65 63 88 24 10 5 31 100 8 5 12 67 79 100 80 6 9 11 5 9 60
99 100 100 85 5 62 100 100 100 100 100 96 90 98 89 97 86 43 100 79 9 23 56 72 59 38 5 34 94 100 100 94 100 100 74 21 15 27 91 66 34 51 79 39
100 100 100 100 100 100 100 100 100 100 100 68 61 65 100 82 50 94 100 58 29 65 64 63 99 100 99 100 100 100 100 100 56 19 98 100 60 10 74 94 96 78 94 95
100 100 80 100 100 100 100 100 100 100 100 99 80 100 15 99 76 13 50 38 99 100 100 100 100 100 98 92 74 100 100 100 100 100 86 5 5 5 10 33 66 100 43 14
100 100 100 100 100 100 100 100 100 100 100 100 100 96 87 78 99 98 95 100 100 100 98 97 92 64 88 94 100 100 100 100 100 45 5 5 5 40 98 100 94 77 98 100
100 100 100 100 100 100 100 100 100 100 100 100 100 94 99 75 96 83 89 71 98 79 98 100 87 100 100 100 100 100 100 97 87 34 12 27 44 100 100 100 100 100 100 100
100 100 100 100 100 100 100 100 100 84 78 100 100 100 100 54 100 100 98 99 93 90 98 98 100 100 100 100 100 100 45 6 38 98 100 100 100 88 100 100 100 100 99 92
100 100 100 100 100 100 100 100 100 100 100 100 100 100 100 100 100 100 95 100 85 89 89 100 98 100 100 100 98 100 100 100 100 100 100 100 100 100 100 100 85 99 97 92
100 100 100 100 100 100 96 99 100 100 100 100 100 100 100 100 100 100 100 100 100 100 93 100 99 100 100 100 100 100 100 100 100 100 100 100 100 100 100 96 75 70 72 87
100 100 100 100 99 97 100 100 100 100 100 100 100 100 100 100 100 100 100 100 100 57 96 83 100 100 100 100 100 100 100 100 100 100 100 100 100 88 49 16 77 93 66 37
100 100 100 100 100 100 100 100 100 100 100 100 100 100 100 100 100 100 100 100 100 100 100 100 100 100 100 100 100 100 98 100 100 100 100 81 16 10 13 30 52 56 51 21
100 100 100 98 100 100 100 100 100 100 100 100 100 100 98 100 100 99 100 100 99 94 100 100 100 100 100 96 100 100 88 61 99 81 40 15 5 43 16 58 60 61 77 91
100 100 100 100 100 100 100 100 100 100 100 100 100 100 100 100 100 100 100 100 99 100 100 100 100 100 100 99 97 100 82 62 53 35 8 11 42 76 90 100 90 98 99 58
100 100 100 100 100 100 100 100 100 100 100 100 100 100 100 100 100 100 100 100 100 100 100 100 100 91 86 96 98 96 70 9 61 91 74 97 100 100 57 9 5 6 8 5

GFSNW_prec_cloud_009.txt.gz
Cloud_Cover
96 5 100 100 100 82 10 73 100 99 100 53 94 97 100 8 1 0 0 0 0 3 5 5 5 27 5 13 18 5 6 2 3 1 1 0 0 5 5 0 0 0 0 0
100 100 100 100 100 100 100 100 100 100 100 77 100 100 96 3 5 0 0 0 0 5 7 5 16 5 5 2 0 0 0 0 5 5 0 0 1 0 0 0 0 4 23 4
100 72 90 100 100 99 98 100 100 100 100 100 100 100 12 4 3 4 0 3 3 60 49 4 5 5 0 0 0 0 0 0 1 5 88 5 5 5 5 5 5 5 0 0
100 100 100 100 100 40 35 72 100 100 100 100 96 25 5 0 1 5 0 2 48 60 8 5 5 5 0 0 0 0 0 0 5 5 1 3 11 40 69 5 5 5 0 0
100 100 100 100 100 88 88 35 50 96 80 5 99 14 3 5 5 5 1 7 93 31 5 3 8 2 5 1 3 2 0 5 3 0 3 14 77 65 2 3 5 5 1 4
100 100 100 100 98 10 96 72 99 100 98 6 66 8 5 5 32 4 5 62 100 20 5 5 5 5 4 6 5 5 5 3 5 5 5 5 79 5 5 0 0 4 5 5
100 100 100 100 100 5 5 99 100 99 38 34 10 6 9 5 64 6 19 74 89 26 5 5 5 5 5 5 5 5 3 2 5 7 4 58 8 0 4 4 2 5 5 4
27 100 100 100 100 88 26 100 100 100 99 51 14 5 91 29 21 90 6 72 41 23 5 5 5 5 6 5 2 1 0 4 5 20 4 5 5 30 5 5 4 11 5 5
100 100 100 100 99 100 98 100 99 98 80 67 90 41 68 20 24 5 27 99 97 37 5 5 5 5 5 5 5 5 5 5 5 5 57 63 9 5 5 5 5 37 5 6
100 100 100 100 88 100 100 100 100 100 57 100 96 71 59 38 40 23 72 80 77 48 20 91 5 5 5 5 5 63 5 33 38 5 35 8 56 25 90 57 10 5 54 100
100 100 100 100 94 100 100 100 100 100 18 100 43 40 99 10 44 98 95 48 86 35 29 44 5 31 5 5 5 17 37 47 28 18 65 73 58 76 56 9 5 12 5 5
100 100 100 100 100 100 14 100 100 100 5 40 64 100 67 34 36 59 22 30 44 8 8 47 5 90 85 24 66 62 32 7 14 8 8 11 6 5 5 5 5 44 5 64
100 100 100 100 100 68 95 72 98 20 16 100 99 100 74 15 23 42 5 9 58 95 87 21 30 100 45 87 61 26 65 6 27 21 5 5 5 5 5 5 5 5 20 87
100 100 100 100 97 29 87 15 15 59 94 97 100 100 49 61 77 5 6 99 100 100 100 93 69 88 97 73 13 16 14 5 5 5 5 5 6 4 32 72 6 39 93 53
100 100 100 100 78 85 68 81 92 100 68 100 100 100 61 74 67 10 53 97 100 100 83 100 72 100 85 54 15 29 17 5 11 41 80 100 100 100 54 5 73 98 52 10
100 100 100 100 100 100 87 100 100 100 100 100 100 100 49 58 70 8 16 93 100 100 100 100 98 78 5 50 80 58 86 99 100 100 100 100 100 6 5 50 100 100 64 62
100 100 100 100 100 100 100 100 100 100 100 100 100 100 98 68 89 57 15 81 100 100 100 92 52 14 51 90 100 100 100 100 100 100 96 12 6 5 5 35 31 27 78 97
100 100 100 100 100 100 96 66 100 100 100 100 100 100 99 13 26 62 70 100 96 48 14 86 91 81 90 100 100 100 100 100 87 9 5 6 5 6 20 86 97 100 100 100
96 100 100 100 100 100 99 100 100 100 100 100 100 100 84 35 55 75 61 47 64 53 89 75 35 98 100 100 100 100 89 7 14 5 58 82 68 36 84 100 100 100 100 100
100 100 100 100 100 100 100 100 100 100 100 100 100 100 100 98 100 100 100 100 83 89 85 40 96 88 100 100 88 6 5 5 90 100 74 100 80 77 100 100 100 100 100 100
100 100 100 100 99 95 100 100 97 93 100 100 100 100 100 100 96 100 91 96 81 98 42 98 88 98 100 95 79 53 20 14 42 99 74 52 50 95 99 97 100 99 99 100
100 100 100 100 100 100 100 100 98 97 100 100 100 100 100 100 100 100 100 96 93 92 57 99 98 100 100 100 100 100 100 97 74 83 97 100 100 100 100 100 100 100 100 100
100 100 100 100 100 100 100 100 100 100 100 100 100 100 100 100 100 100 100 100 99 74 92 55 94 100 100 100 100 83 98 100 100 100 100 100 100 100 100 100 100 100 100 68
100 100 100 100 100 100 100 100 100 100 100 100 100 100 100 100 100 100 100 100 100 100 100 76 100 100 100 100 100 100 100 100 100 100 100 100 100 100 100 100 100 100 100 100
100 100 100 100 100 100 100 100 100 100 100 100 100 100 100 100 100 100 100 100 100 100 98 100 100 100 100 100 100 100 100 100 100 100 100 100 100 100 100 100 100 100 65 15
100 100 100 100 100 100 100 100 100 100 100 100 100 100 100 100 100 100 100 99 98 100 99 100 100 100 100 100 100 100 100 100 100 100 100 100 100 100 100 26 5 5 5 5
100 100 100 100 100 100 100 100 100 100 100 100 100 100 100 100 100 100 100 100 100 100 100 100 100 100 100 100 100 100 100 100 96 58 100 100 100 55 6 5 5 5 5 5

GFSNW_prec_cloud_012.txt.gz
Cloud_Cover
100 92 15 4 41 63 100 100 100 100 9 5 5 87 100 100 95 18 5 5 60 3 100 5 3 64 52 4 5 3 7 5 97 74 98 22 26 73 9 2 0 1 4 0
100 100 38 28 52 82 100 97 10 100 43 2 16 100 100 100 100 100 90 2 19 2 97 70 3 75 67 2 1 3 22 56 83 92 43 8 4 0 1 90 3 0 25 0
100 100 100 60 86 100 100 94 42 100 80 14 54 80 100 93 78 100 69 5 43 5 1 5 5 5 51 8 5 5 4 1 0 0 4 92 65 4 5 5 0 0 0 0
100 100 96 67 98 100 100 91 14 78 97 33 90 95 100 99 97 100 67 5 1 5 5 5 24 49 68 5 3 1 0 0 0 1 27 21 98 22 14 5 0 0 0 0
100 94 100 99 100 100 100 100 100 100 100 100 100 100 100 100 100 99 35 57 5 5 5 5 18 93 6 0 0 0 0 0 0 0 1 5 5 5 4 0 3 5 0 0
100 80 100 89 100 100 100 74 77 100 100 100 100 100 100 100 100 18 5 7 55 49 87 29 23 10 87 22 8 1 2 0 0 0 5 5 5 0 0 0 0 0 4 1
72 99 100 100 100 100 90 2 58 100 99 96 100 100 100 100 100 100 22 30 100 22 5 54 53 5 19 5 5 5 5 5 1 8 5 5 0 0 0 5 0 1 5 5
61 28 5 99 100 100 92 37 76 100 59 4 51 62 30 12 61 100 82 23 93 5 5 24 44 25 5 5 5 5 5 5 4 60 4 1 1 0 0 5 0 15 82 5
69 19 84 100 100 100 77 64 58 99 56 10 84 99 91 9 100 58 35 18 46 1 6 72 35 13 5 5 5 5 5 5 5 5 0 5 5 5 1 5 5 84 6 5
77 91 98 100 100 67 100 92 100 100 100 94 100 14 48 98 100 59 66 90 19 2 51 94 54 26 5 5 5 5 5 6 38 5 33 5 10 11 12 35 41 5 5 8
100 97 100 100 100 100 100 83 70 100 100 99 100 100 100 37 89 100 19 24 6 1 46 73 45 38 5 5 5 5 5 6 36 8 73 58 5 80 90 40 8 42 33 9
37 100 100 100 100 80 100 100 100 100 100 100 94 87 63 5 98 99 10 79 13 5 5 46 95 94 89 5 14 5 5 5 5 14 6 62 87 99 34 35 100 17 5 28
78 100 100 100 98 100 87 81 93 100 100 100 100 100 99 89 100 100 98 69 19 4 20 10 22 96 7 81 9 9 5 5 9 97 18 11 46 46 18 98 31 89 92 67
100 100 100 100 99 100 100 100 100 100 100 100 100 100 100 70 86 100 90 48 100 14 9 5 77 87 58 43 10 52 14 72 6 100 33 5 5 51 88 28 11 99 100 100
99 100 100 100 100 100 100 100 100 100 100 100 100 100 100 55 100 100 76 60 77 8 21 70 73 100 100 100 93 96 69 29 52 88 17 76 5 18 41 44 100 100 100 95
100 100 100 100 100 100 100 100 100 100 100 100 100 94 100 100 100 100 86 31 5 5 93 100 100 100 100 100 100 10 13 84 6 11 5 5 27 86 100 100 100 100 96 25
100 100 100 100 100 100 100 100 100 100 100 100 98 100 100 100 100 100 80 66 34 24 91 90 100 100 100 100 100 40 100 64 14 23 30 8 96 100 100 100 99 59 52 59
100 100 100 100 95 100 100 100 100 100 100 100 100 100 100 100 100 100 50 53 24 22 95 78 80 100 100 100 100 100 100 96 94 84 97 100 100 100 100 69 41 71 86 91
82 94 98 91 100 100 100 100 100 100 100 100 100 100 100 100 100 100 100 75 91 22 64 72 77 63 62 97 100 100 100 32 66 100 100 100 100 69 100 64 48 69 100 100
71 26 96 100 100 100 97 100 100 100 100 100 100 100 100 100 100 100 100 99 60 42 84 100 55 87 100 100 99 100 100 92 85 64 40 62 99 100 100 97 100 100 100 100
82 100 100 100 100 100 100 100 100 100 100 90 100 80 100 100 100 100 100 84 90 96 63 48 100 100 100 100 100 79 51 12 5 32 94 92 100 100 100 100 96 75 67 69
94 89 100 100 100 100 100 100 100 100 100 100 100 100 100 100 100 100 100 100 100 91 84 95 100 100 100 100 99 100 100 63 67 98 100 100 100 100 98 96 99 92 93 100
100 88 100 100 88 100 100 100 100 100 100 100 100 100 100 100 100 100 100 100 100 82 89 58 77 100 100 100 100 97 98 79 100 93 100 100 100 100 100 100 100 100 100 100
100 100 100 100 100 100 100 100 100 100 100 100 100 100 100 100 100 100 100 100 100 100 99 80 100 100 100 100 100 100 100 100 100 100 100 100 100 100 100 100 100 100 100 100
100 100 100 100 100 100 100 100 100 100 100 100 100 100 100 100 100 100 100 100 100 99 99 100 100 100 100 100 100 100 100 100 100 100 100 100 100 100 100 100 100 100 100 100
100 100 100 100 100 100 100 100 100 100 100 100 100 100 100 100 100 100 100 100 94 100 100 100 100 100 100 100 100 100 100 100 100 100 100 100 100 100 100 100 100 100 75 11
100 100 100 100 100 100 100 100 100 100 100 100 100 100 100 100 100 100 100 100 100 100 100 100 100 100 100 100 100 100 100 100 100 100 100 100 100 100 100 100 52 6 5 5

GFSNW_prec_cloud_015.txt.gz
Cloud_Cover
99 100 100 100 27 26 100 100 100 100 100 54 100 62 100 100 78 5 20 90 96 5 64 97 1 0 54 12 100 97 82 68 100 100 99 29 5 24 5 53 5 60 5 8
100 98 100 100 48 56 100 100 99 96 99 82 24 98 86 100 100 73 100 100 100 5 100 97 89 0 100 95 92 45 90 100 42 54 34 5 5 7 71 82 5 5 1 0
100 100 100 100 89 78 100 100 85 100 59 16 52 84 100 100 100 17 100 100 94 25 100 100 80 1 72 80 6 28 5 4 24 18 61 5 41 22 31 20 2 2 0 0
100 100 99 100 100 94 100 100 59 97 100 80 4 27 100 95 11 50 100 100 100 29 9 100 100 47 5 5 20 22 32 5 5 8 10 10 5 8 15 30 0 0 0 0
100 100 98 100 100 100 100 100 8 32 70 90 0 7 50 81 100 25 86 100 69 5 3 1 5 2 2 5 5 5 5 5 0 0 0 0 4 3 5 4 3 5 3 0
99 26 98 100 100 100 100 100 96 74 49 22 0 0 3 97 59 6 98 100 34 1 2 1 0 7 0 5 30 14 2 0 1 0 0 0 0 0 0 0 0 0 0 0
100 18 100 100 100 100 100 87 94 79 50 78 53 92 80 100 90 99 100 100 100 85 5 2 5 8 40 39 100 100 8 3 5 5 3 3 0 2 0 0 0 0 0 5
77 56 100 100 100 98 100 100 74 100 100 100 100 100 100 100 100 100 100 100 100 91 5 5 32 39 10 24 100 100 96 5 5 5 5 2 0 5 0 0 0 0 5 0
78 100 100 69 9 100 100 100 52 100 100 98 100 100 100 100 100 100 100 100 90 28 15 5 1 2 5 6 9 5 5 5 5 5 5 5 7 7 2 0 5 5 5 5
99 100 100 25 22 100 100 100 100 100 31 84 100 54 86 100 100 51 82 100 100 17 93 52 5 5 5 5 5 5 8 6 5 8 13 5 60 6 5 1 5 5 5 6
93 100 80 10 31 100 100 100 100 100 100 59 13 9 6 24 68 4 40 100 100 8 45 21 5 36 5 5 5 5 5 23 65 73 78 14 5 45 5 5 5 5 20 5
100 94 79 100 96 100 100 100 100 100 100 100 36 0 2 23 5 89 100 100 100 96 99 44 58 76 79 5 5 5 5 5 5 5 5 5 5 5 5 46 92 75 71 85
92 70 25 57 15 54 54 100 100 100 100 89 46 100 85 99 100 100 100 89 22 59 9 11 87 30 7 20 5 5 13 5 5 5 5 21 76 65 80 100 100 100 64 100
100 93 79 45 97 100 91 100 100 100 100 100 100 100 68 100 100 94 100 34 56 100 100 85 100 66 9 30 6 6 26 5 5 10 5 7 16 59 100 100 100 100 100 82
100 56 64 84 100 100 100 100 100 100 100 100 100 100 100 100 100 100 100 28 50 100 100 98 31 26 19 17 28 98 32 59 100 90 100 13 43 26 40 29 58 86 100 98
18 18 28 100 100 100 100 100 100 100 100 100 100 100 100 100 100 100 90 30 100 72 22 87 97 99 60 45 8 81 66 99 100 100 99 100 100 100 55 8 19 14 26 72
68 79 99 100 100 100 100 100 100 100 100 100 100 100 100 100 100 100 100 100 76 80 20 70 100 100 46 99 58 99 92 100 100 100 99 100 100 99 41 37 76 89 100 100
94 89 100 100 100 100 100 100 100 100 100 100 100 100 100 100 100 100 88 94 100 90 100 90 53 84 44 6 92 100 100 100 100 100 100 98 100 100 98 74 100 100 100 96
100 100 100 100 100 100 100 100 100 100 100 100 100 100 100 100 100 100 100 100 100 100 100 86 26 70 36 81 98 100 99 100 100 100 100 100 100 53 54 71 45 88 85 96
56 99 100 100 100 100 100 100 100 100 93 100 100 100 100 100 100 100 100 100 100 100 100 99 95 22 89 100 100 100 77 78 100 100 100 100 100 100 100 100 100 100 100 100
100 100 100 84 100 100 93 89 98 97 100 100 100 100 100 100 100 100 100 100 100 98 88 100 81 72 68 97 100 100 100 100 100 83 52 61 80 100 100 100 94 96 92 98
100 98 100 68 100 99 66 100 100 73 100 100 100 100 100 100 100 100 100 100 100 100 99 93 57 100 100 100 100 100 100 83 72 72 94 100 100 100 75 80 98 100 100 100
97 97 100 100 100 100 100 100 100 100 100 100 100 100 100 100 100 100 100 100 99 100 100 100 98 100 100 100 100 100 100 100 100 96 97 74 46 87 99 100 100 100 100 100
99 85 72 100 100 100 100 100 100 100 100 100 100 100 100 100 100 100 100 100 100 100 100 100 100 100 100 100 100 100 100 100 99 90 98 100 100 100 100 100 100 100 100 100
100 99 100 100 100 100 100 100 100 100 100 100 100 100 100 100 100 100 100 100 100 100 100 100 100 100 100 100 100 100 100 100 100 100 100 100 100 100 100 100 100 100 100 100
100 100 100 100 100 100 100 100 100 100 100 100 100 100 100 100 100 100 100 100 100 100 100 100 100 100 100 100 100 100 100 100 100 100 100 100 100 100 100 100 100 100 100 100
100 100 100 100 100 100 100 100 100 100 100 100 100 100 100 100 100 100 100 100 100 100 100 100 100 100 100 100 100 100 100 100 100 100 100 100 100 100 100 100 100 100 100 100

GFSNW_prec_cloud_018.txt.gz
Cloud_Cover
69 100 100 15 100 100 100 100 93 100 100 100 44 100 100 100 100 5 1 2 5 1 5 2 5 3 0 0 2 0 1 15 30 67 24 90 100 98 5 5 4 14 92 0
62 100 100 70 93 87 100 100 100 100 100 100 56 100 100 100 92 5 0 5 5 41 6 52 5 26 2 6 3 0 1 28 67 100 4 92 8 29 5 5 5 47 5 0
100 100 100 62 100 100 90 100 100 100 100 27 48 16 100 100 100 6 5 12 100 17 93 54 5 5 1 91 67 100 100 44 54 100 90 7 6 53 12 5 54 5 5 1
100 100 100 16 100 100 100 100 97 87 100 99 99 87 100 100 9 4 51 5 96 73 98 5 5 19 4 36 64 100 78 35 61 100 100 25 99 95 54 15 17 5 0 0
92 98 99 90 100 100 100 100 97 90 48 100 75 82 32 100 100 26 45 99 100 63 36 5 5 88 6 56 5 5 90 11 5 5 47 14 82 46 16 2 2 0 0 0
16 67 9 100 100 100 100 100 92 87 67 100 82 96 100 98 99 49 67 93 81 86 95 29 45 13 100 88 1 0 0 0 0 0 0 0 0 0 0 0 94 5 22 5
5 5 12 91 100 100 100 100 100 86 42 100 89 100 100 100 62 85 60 51 64 46 13 89 59 5 70 20 3 3 5 2 0 0 0 0 0 0 0 0 0 0 3 5
5 5 5 93 100 100 100 100 100 100 42 57 36 57 100 100 5 38 31 6 88 84 100 95 48 6 5 1 0 5 88 99 82 0 0 1 0 0 0 0 0 4 5 5
98 100 19 89 100 100 89 100 100 100 70 5 18 99 100 100 8 90 10 5 87 100 100 100 100 40 5 5 5 5 97 100 89 11 4 2 9 5 0 0 6 38 8 5
5 5 5 5 79 99 98 100 100 100 100 51 4 7 78 86 49 76 50 100 100 99 88 100 93 5 5 5 0 5 59 58 98 33 5 1 5 0 5 5 34 43 31 39
5 39 9 76 87 80 100 83 100 100 100 42 23 32 100 6 30 70 31 94 99 59 100 100 99 5 4 0 0 6 73 21 56 66 25 5 5 5 6 57 91 64 17 5
4 5 7 95 31 99 98 100 97 100 100 92 100 3 10 6 99 99 79 97 100 100 100 100 96 24 40 5 0 6 52 70 61 20 5 3 5 36 54 8 7 13 38 54
80 5 94 100 99 100 93 100 99 99 98 100 59 12 5 26 27 86 7 16 11 77 100 100 100 90 5 9 6 7 16 14 5 5 5 5 5 5 68 97 62 50 93 100
100 100 100 100 100 100 100 100 100 99 100 100 85 36 5 76 87 100 92 100 100 100 100 100 81 88 6 100 75 90 33 21 6 16 26 40 28 5 5 15 58 76 91 81
100 100 100 100 100 93 87 100 99 79 100 100 100 62 1 7 18 99 28 100 100 100 100 98 31 19 96 100 60 99 63 35 66 69 100 75 60 22 13 64 86 99 100 100
100 100 100 61 66 97 91 100 100 100 100 100 100 56 46 73 99 100 98 100 98 100 100 100 64 6 45 18 18 86 66 8 58 100 99 57 44 55 71 81 85 99 100 100
100 100 100 100 100 100 100 100 86 100 100 100 100 100 100 100 100 70 100 100 100 100 100 86 100 80 66 100 82 51 5 10 27 71 100 100 100 100 100 100 100 99 100 74
100 70 100 100 100 100 100 100 100 100 100 100 100 100 100 100 100 100 100 100 100 100 100 100 100 100 100 100 100 40 50 90 100 100 100 100 100 100 100 98 100 100 100 100
76 96 100 100 100 100 100 100 100 100 100 100 100 100 100 100 100 100 100 100 100 100 100 100 100 98 75 100 100 100 96 55 100 100 100 100 100 100 100 100 100 97 94 98
100 100 100 100 100 100 100 100 100 100 100 100 100 100 100 100 100 100 100 100 100 100 100 100 100 91 91 97 100 100 100 72 96 97 99 100 100 48 61 55 84 100 97 94
100 100 100 100 100 100 100 100 100 100 100 100 100 100 100 100 100 100 100 100 100 100 100 100 100 100 100 100 100 100 100 97 100 100 98 86 42 47 100 100 100 100 98 100
100 100 100 100 100 100 100 100 100 100 100 100 100 100 100 100 100 100 100 100 100 100 95 82 87 100 100 100 100 100 97 99 99 94 100 100 98 91 100 100 100 100 100 100
100 100 100 100 100 100 100 100 100 100 100 100 100 100 100 100 100 100 100 100 100 69 43 92 100 100 100 100 100 100 100 100 100 100 100 100 100 100 100 100 100 100 100 99
100 100 100 100 100 100 100 100 100 100 100 100 100 100 100 100 100 100 100 100 100 100 100 100 100 100 100 100 100 100 100 100 100 100 100 100 100 100 100 100 100 100 100 100
100 100 100 100 100 100 100 100 100 100 100 100 100 100 100 100 100 100 100 100 100 95 100 100 100 100 100 100 100 100 100 100 100 100 100 100 100 100 100 100 100 100 100 100
100 100 100 100 100 100 100 100 100 100 100 100 100 100 100 100 100 100 100 100 100 100 100 100 100 100 100 100 100 100 100 100 100 100 100 100 100 100 100 100 100 100 100 100
100 100 100 100 100 100 100 100 100 100 100 100 100 100 100 100 100 100 100 100 100 100 100 100 100 100 100 100 100 100 100 100 100 100 100 100 100 100 100 100 100 100 100 100

GFSNW_prec_cloud_021.txt.gz
Cloud_Cover
7 100 100 100 100 100 99 100 88 100 37 100 100 100 100 100 100 100 100 100 100 100 32 5 2 2 0 0 2 0 0 0 1 1 94 70 97 73 89 23 50 5 4 5
85 100 100 100 100 100 93 100 96 100 16 100 90 100 100 100 100 100 100 100 100 98 68 36 5 5 0 0 0 0 0 0 0 0 4 100 99 75 95 83 4 5 4 3
100 99 100 100 100 100 100 100 100 100 56 100 100 100 100 100 100 100 100 100 100 72 5 7 5 5 4 1 4 5 0 0 0 0 45 58 7 5 5 5 1 18 25 5
100 100 92 98 100 83 100 100 78 98 100 100 100 100 100 100 100 98 100 42 100 80 76 57 81 6 3 5 0 4 3 2 39 5 5 5 2 1 4 5 5 5 8 5
100 100 45 27 100 100 100 100 94 70 100 100 100 100 100 100 100 100 72 100 98 100 100 100 100 5 0 2 3 5 1 45 98 99 64 5 5 0 5 5 91 5 5 1
100 100 76 8 100 100 100 100 100 83 100 34 99 54 100 100 100 100 100 100 100 100 100 86 11 5 0 81 100 14 26 38 3 1 3 5 5 92 100 43 11 3 1 0
100 100 18 100 100 18 98 100 85 100 20 91 76 100 100 100 100 100 100 100 100 100 100 61 42 5 0 6 100 5 85 6 5 3 0 5 0 0 0 0 0 0 0 4
100 98 86 5 17 5 100 100 100 100 87 74 100 100 100 100 100 78 58 100 100 100 26 10 90 5 27 43 20 5 8 1 1 2 4 2 0 0 0 0 0 4 5 0
100 5 5 74 8 42 100 100 100 100 100 27 100 100 100 100 98 99 99 100 100 77 58 18 49 88 100 71 5 28 5 1 3 10 16 11 100 0 0 1 11 5 3 0
100 100 10 5 2 53 100 100 100 100 100 70 54 100 100 100 100 100 100 100 100 100 99 13 88 56 100 33 25 17 8 6 1 50 5 29 100 22 4 0 22 4 4 5
100 100 63 3 42 98 100 100 100 100 100 63 49 100 100 100 100 100 100 100 100 100 69 50 99 71 100 100 7 5 1 13 34 4 5 93 100 100 7 1 4 2 2 5
100 100 82 94 100 100 100 100 100 100 100 77 61 100 100 99 100 100 100 100 100 100 100 100 100 22 79 100 94 13 2 2 0 0 5 78 6 5 5 5 5 0 5 5
95 34 100 99 100 100 98 100 100 100 100 92 56 100 100 99 89 100 100 100 100 100 100 100 100 100 100 100 97 96 5 9 5 3 5 7 29 13 7 6 6 6 5 5
71 5 5 82 100 100 34 100 100 100 100 100 53 100 100 11 73 100 100 100 100 100 100 100 100 98 100 97 4 5 48 49 42 91 18 67 95 43 38 49 37 50 64 60
5 5 3 18 85 100 29 98 100 100 100 100 83 100 56 61 100 100 100 100 100 100 100 100 96 100 99 100 98 57 100 100 55 96 5 60 100 100 100 100 100 100 100 100
5 5 19 53 68 53 95 100 100 100 100 100 100 100 72 34 96 100 100 100 100 100 100 100 100 100 100 100 100 100 100 98 84 76 5 12 30 100 100 99 100 100 100 100
5 11 54 86 95 73 94 53 27 100 100 100 100 99 38 74 60 20 80 33 100 100 100 100 100 100 100 59 98 100 100 100 100 100 17 5 14 47 44 70 75 88 100 100
100 77 100 100 47 34 18 24 96 99 100 100 100 91 100 100 100 96 47 100 100 100 100 100 100 100 100 100 98 100 100 100 100 100 99 25 8 5 5 25 63 73 69 74
100 100 96 94 98 100 100 100 100 99 100 100 100 88 100 100 100 100 100 100 100 100 100 100 100 100 77 59 100 100 100 100 100 99 35 16 5 60 91 45 22 6 5 77
100 69 100 100 100 100 100 100 100 100 100 100 100 100 100 100 100 100 100 100 100 100 100 100 100 100 100 56 100 100 100 100 100 100 100 100 100 72 22 56 34 96 100 100
100 100 100 97 79 100 100 100 100 94 100 100 100 100 100 100 100 100 100 100 100 100 100 100 100 100 25 94 100 100 100 100 100 100 100 100 100 100 100 96 100 100 100 100
100 100 100 100 100 100 100 100 100 100 100 100 100 100 100 100 100 100 100 100 100 100 100 100 100 100 100 100 100 100 100 100 100 96 100 99 100 100 100 100 100 100 100 100
100 100 100 100 100 100 100 100 100 100 100 100 100 100 100 100 100 100 100 100 83 73 92 99 100 100 100 100 100 93 65 100 100 100 100 100 95 99 100 100 100 100 100 100
100 100 100 100 100 100 100 100 100 100 100 100 100 100 100 100 100 100 100 100 100 100 100 85 100 100 100 100 100 100 100 100 100 100 100 100 100 100 100 100 100 100 100 100
100 100 100 100 100 100 100 100 100 100 100 100 100 100 100 100 100 100 100 100 100 100 100 100 100 100 100 100 100 100 100 100 100 100 100 100 100 100 100 100 100 100 100 100
100 100 100 100 100 100 100 100 100 100 100 100 100 100 100 100 100 100 100 100 100 100 100 100 100 100 100 100 100 100 100 100 100 100 100 100 100 100 100 100 100 100 100 100
100 100 100 100 100 100 100 100 100 100 100 100 84 99 100 100 100 100 100 100 100 100 100 100 100 100 100 100 100 100 100 100 100 100 100 100 100 100 100 100 100 100 100 100

GFSNW_prec_cloud_024.txt.gz
Cloud_Cover
100 96 56 55 93 100 100 100 94 23 5 100 100 100 80 100 100 100 100 100 100 100 100 100 100 100 61 31 5 0 3 1 8 5 5 54 43 99 36 25 5 60 58 91
100 100 100 100 94 100 100 100 94 30 41 89 90 56 100 100 100 100 100 100 100 100 100 100 100 100 98 17 5 4 1 5 3 4 8 4 5 37 100 100 3 5 5 26
100 100 100 100 29 100 100 100 99 98 38 0 4 97 100 100 100 100 100 100 100 100 100 100 100 100 87 6 5 1 30 2 0 0 2 63 31 37 16 86 5 57 18 4
100 100 100 97 62 100 84 100 99 96 100 95 4 100 100 100 100 100 100 100 100 100 100 100 100 100 99 14 3 5 47 16 3 0 0 0 0 4 5 4 7 15 70 81
100 100 100 98 100 100 100 100 96 71 24 69 76 100 100 100 100 100 100 100 100 100 100 100 100 100 68 5 4 0 58 5 5 5 5 5 4 5 4 5 5 11 23 91
100 100 100 100 100 100 100 100 68 91 19 100 98 5 100 100 100 100 100 100 100 100 100 100 100 100 8 6 5 5 1 1 3 15 100 27 3 9 1 4 5 4 37 100
100 100 100 100 100 100 88 32 36 93 82 93 30 100 100 100 100 100 100 100 100 100 100 100 100 98 16 5 2 5 5 4 17 72 13 4 0 0 3 6 2 1 0 2
100 100 100 100 81 29 5 5 21 100 100 6 99 92 100 100 100 100 100 100 100 100 100 100 100 100 99 67 10 5 5 31 44 76 5 0 0 2 0 0 0 0 0 0
100 100 100 100 100 80 8 11 58 100 100 22 17 100 100 100 100 100 100 100 100 100 100 100 100 56 50 71 16 42 29 24 74 12 16 0 1 52 5 13 83 0 0 0
100 100 100 100 100 100 33 5 100 100 100 100 77 100 100 100 100 100 100 100 99 98 75 94 47 86 94 78 24 46 32 8 5 21 3 2 0 89 3 4 95 4 4 4
100 100 100 100 100 81 89 20 100 100 100 99 93 100 100 100 100 100 100 100 89 63 73 14 100 100 100 99 34 78 80 19 2 5 0 2 0 0 0 4 15 50 25 7
100 100 100 100 97 97 100 28 100 100 100 92 100 100 100 100 100 100 100 100 100 100 100 100 100 100 100 100 100 100 100 92 6 3 5 57 5 0 0 0 0 0 5 5
100 100 100 95 100 100 100 14 100 100 100 100 95 98 100 100 100 100 100 100 100 100 100 100 100 100 100 100 100 100 100 100 6 6 100 22 5 0 0 1 4 0 5 5
100 100 100 100 100 100 35 20 100 100 100 100 100 96 100 100 100 100 100 100 100 100 100 100 100 100 100 100 100 100 93 7 53 100 100 71 6 5 5 5 5 5 5 5
100 100 100 100 100 100 94 79 100 100 66 100 90 71 100 100 100 100 100 100 100 100 100 100 100 93 99 100 100 100 100 78 100 100 94 90 100 77 9 17 8 5 5 5
100 100 100 90 76 100 100 100 100 100 100 100 100 61 34 100 100 100 100 100 100 100 100 100 100 100 100 100 79 100 100 100 100 100 100 100 98 98 64 43 83 79 73 100
100 100 100 100 100 100 100 82 100 100 100 100 100 100 84 84 94 76 100 100 100 100 100 100 100 100 100 99 95 100 100 100 100 100 100 100 100 71 75 99 100 100 100 100
100 93 98 100 53 78 73 76 100 100 100 100 100 100 26 50 100 100 85 100 100 100 100 100 100 100 100 100 100 100 100 100 100 100 100 100 100 100 96 90 100 100 73 77
5 5 10 48 100 52 21 75 88 85 96 88 82 100 75 100 100 100 98 100 100 100 100 100 100 100 100 100 100 100 100 100 100 100 100 100 100 100 100 100 100 100 97 99
100 59 100 99 31 80 100 100 100 100 100 100 100 99 100 92 100 100 100 100 100 100 100 100 100 94 93 100 100 100 100 100 100 100 100 100 100 100 100 100 80 58 67 39
99 97 98 57 61 96 100 100 100 100 100 100 100 100 100 100 100 100 100 99 100 100 99 100 100 100 100 100 100 100 100 100 100 100 100 100 100 100 100 100 93 100 99 100
35 93 100 100 100 100 100 100 100 100 100 100 100 100 100 100 100 100 100 100 100 100 100 100 100 100 100 100 100 100 100 100 100 100 100 100 100 100 100 100 100 100 100 100
100 100 100 100 100 100 100 100 100 100 100 100 100 100 100 100 100 100 100 100 100 100 100 100 100 100 100 100 100 100 100 100 100 100 100 100 100 100 100 100 100 100 100 100
100 91 86 100 100 100 100 100 100 100 100 100 100 100 100 100 100 100 100 100 100 100 100 100 100 100 100 100 100 100 100 100 100 100 100 100 100 100 100 100 100 100 100 100
100 100 100 100 100 100 100 100 100 100 100 100 100 100 100 100 100 100 100 100 100 100 100 100 100 100 100 100 100 100 100 100 100 100 100 100 100 100 100 100 100 100 100 100
100 100 100 100 100 100 100 100 100 100 100 100 100 100 100 100 100 100 100 100 100 100 100 100 100 100 100 100 100 100 100 100 100 100 100 100 100 100 100 100 100 100 100 100
100 100 100 100 100 100 100 100 100 100 100 100 100 100 100 100 100 100 100 100 100 100 100 100 100 100 100 100 100 100 100 100 100 100 100 100 100 100 100 100 100 100 100 100

GFSNW_prec_cloud_027.txt.gz
Cloud_Cover
100 100 100 100 100 47 67 100 96 6 5 100 100 73 5 2 0 0 9 100 100 100 100 100 100 100 100 7 100 98 5 5 1 5 24 34 5 5 65 58 100 61 25 100
100 100 100 100 100 98 92 100 86 32 5 100 98 57 8 3 0 4 98 100 100 100 99 100 100 100 46 68 100 100 78 19 3 1 5 4 3 5 8 72 59 26 16 100
100 100 100 100 100 100 100 100 100 100 62 6 45 87 9 25 0 76 87 100 100 100 100 100 100 100 32 100 100 100 99 6 1 5 0 2 0 5 5 67 4 18 46 100
100 100 100 100 100 100 100 100 94 71 91 100 65 5 5 5 3 100 100 100 100 100 100 100 100 100 71 100 100 100 97 5 3 5 0 1 0 0 0 1 0 0 90 100
100 100 100 100 100 100 100 100 28 19 5 6 100 98 44 15 53 100 5 100 100 100 100 100 100 100 100 100 100 100 95 10 3 5 5 0 0 0 0 0 0 0 5 91
100 100 100 100 100 100 100 83 8 10 5 57 100 67 85 67 99 92 59 100 100 100 100 100 100 100 100 100 100 90 99 10 5 5 5 5 0 7 27 5 0 5 84 85
9 100 100 100 100 100 78 82 42 11 83 22 59 100 87 47 100 100 100 100 100 100 100 100 100 100 100 100 100 100 93 6 5 3 1 2 0 6 1 0 0 4 5 4
84 100 100 100 100 100 96 98 34 20 100 19 20 99 45 55 100 85 100 100 100 100 100 100 100 100 94 100 100 100 54 5 55 81 3 2 0 0 0 0 1 0 4 0
100 100 100 100 100 100 100 71 5 6 100 86 5 14 100 88 100 100 100 100 100 100 100 100 99 97 100 100 100 100 5 29 37 4 5 5 0 0 0 0 35 3 0 0
100 100 100 100 100 100 100 54 97 60 96 100 27 5 44 100 100 100 100 100 100 100 100 100 100 100 100 100 98 100 11 5 12 5 3 5 5 0 0 0 0 0 5 3
100 100 100 100 100 100 100 91 99 24 100 96 99 30 7 100 100 100 100 100 100 100 64 12 97 100 100 98 100 100 100 87 50 5 5 23 2 0 0 0 0 0 2 5
100 100 100 100 100 100 100 93 5 18 65 100 100 100 72 100 100 100 100 100 100 100 99 100 100 100 100 100 96 100 100 100 99 5 17 5 5 4 0 0 0 0 0 0
100 100 100 100 100 100 100 95 100 12 84 100 100 100 100 100 100 100 100 100 100 35 100 100 100 100 100 100 100 100 100 99 100 72 45 10 5 5 5 5 11 5 6 0
100 100 100 100 100 100 100 100 100 41 88 100 84 100 98 100 100 100 100 100 100 70 88 100 64 82 100 100 100 100 100 95 92 83 100 91 5 5 44 90 10 21 39 8
100 100 100 100 100 100 100 100 98 9 99 100 80 100 100 100 100 100 100 100 100 100 92 53 100 100 100 100 100 100 100 100 99 100 100 98 100 100 100 77 46 5 5 5
100 100 100 100 100 100 100 98 65 49 100 100 100 67 100 100 100 100 100 100 100 100 100 100 100 100 100 100 77 100 100 100 100 100 100 100 100 100 100 100 76 5 97 100
100 100 100 100 100 100 79 73 14 97 100 100 100 100 100 100 100 100 100 93 100 100 100 100 100 100 100 100 100 100 100 100 100 100 99 46 100 80 81 100 100 97 100 100
100 100 100 100 100 100 100 97 96 100 100 100 98 93 100 100 100 100 100 100 100 100 100 100 100 100 100 100 100 100 100 100 100 100 100 100 100 100 99 99 100 100 99 100
100 100 100 100 100 100 100 93 72 89 91 100 100 100 100 100 100 100 100 100 100 100 100 100 100 100 100 100 100 100 100 100 100 100 100 100 100 100 97 100 100 100 100 100
100 100 100 75 13 96 100 100 100 100 88 100 100 96 86 85 100 100 100 98 100 100 100 100 100 100 100 100 100 100 100 100 100 100 100 100 100 100 100 100 100 100 100 100
39 74 98 14 86 100 88 100 98 99 100 97 98 100 100 91 90 100 88 99 100 100 100 100 100 100 100 100 100 100 100 100 100 100 100 100 100 97 59 100 98 100 93 100
100 83 6 33 85 100 100 100 100 100 100 100 100 89 98 100 94 76 96 100 100 100 100 100 100 100 100 100 100 100 100 100 100 97 100 100 100 100 100 100 100 100 100 100
70 28 68 96 100 100 100 100 100 100 100 100 100 100 100 100 100 100 97 100 100 100 100 100 100 100 100 100 100 100 100 100 100 100 100 100 100 100 100 100 100 100 100 100
100 100 100 100 100 100 100 100 100 100 100 100 100 100 100 100 100 100 100 100 100 100 100 100 100 100 100 100 100 100 100 100 100 100 100 100 100 100 100 100 100 100 100 100
100 100 100 100 100 100 100 100 100 100 100 100 100 100 100 100 100 100 100 100 100 100 100 100 100 100 100 100 100 100 100 100 100 100 100 100 100 100 100 100 100 100 100 100
100 100 100 100 100 100 100 100 100 100 100 100 100 100 100 100 100 100 99 100 100 100 100 100 100 100 100 100 100 100 100 100 100 100 100 100 100 100 100 100 100 100 100 100
100 100 100 100 100 100 100 100 100 100 100 100 100 100 100 100 100 100 99 100 100 100 100 100 100 100 100 100 100 100 100 100 100 100 100 100 100 100 100 100 100 100 100 100

GFSNW_prec_cloud_030.txt.gz
Cloud_Cover
100 99 100 100 100 100 100 97 100 100 99 100 100 88 1 2 5 100 100 100 76 42 100 99 80 100 91 100 100 64 5 1 5 21 5 31 98 100 92 99 84 4 18 100
100 100 100 100 100 100 100 87 100 100 100 89 100 1 1 37 90 8 30 100 65 32 95 100 94 100 96 100 100 80 97 6 40 100 6 5 60 51 35 23 5 6 62 98
100 100 100 100 100 100 100 100 100 100 100 5 27 0 0 11 84 9 79 28 99 6 100 100 100 100 100 100 100 53 25 1 5 100 69 12 4 5 5 5 5 1 1 3
28 70 100 100 100 100 100 100 100 64 100 82 1 0 0 5 80 12 94 42 6 30 100 100 100 100 100 100 100 100 100 43 6 100 86 7 8 5 5 9 0 5 4 5
60 100 100 100 100 100 100 100 92 94 35 20 5 1 0 5 5 99 5 47 93 99 100 100 100 100 100 100 100 20 100 18 18 100 84 6 5 5 4 0 1 0 0 1
100 74 100 100 100 100 100 98 98 92 94 73 23 4 2 0 5 97 78 100 100 97 100 100 100 100 100 100 100 100 100 60 91 100 15 25 21 5 34 0 4 5 0 1
100 85 78 100 100 100 100 100 80 100 100 98 5 0 100 76 5 95 100 100 73 61 100 100 100 100 100 100 100 100 100 71 100 100 48 93 2 2 5 2 1 0 0 0
100 59 99 100 100 100 100 100 41 100 100 82 40 35 98 100 98 100 100 100 100 100 100 100 100 100 100 100 100 100 27 99 100 100 100 100 80 0 4 5 0 2 0 0
99 66 100 100 100 100 100 55 100 100 100 99 70 6 67 100 100 100 100 100 100 100 100 100 100 100 100 100 100 100 100 100 100 100 100 100 2 0 5 5 3 0 0 0
89 100 100 100 100 100 100 97 100 100 88 100 85 44 98 60 97 100 100 100 100 100 100 41 100 100 100 100 100 100 100 100 100 100 100 100 8 0 4 5 3 0 0 0
100 100 75 100 100 100 100 100 100 100 96 87 83 82 99 71 100 100 100 100 100 100 76 87 100 100 100 100 100 100 100 100 100 100 52 100 73 1 5 4 4 5 4 0
100 100 100 100 100 100 100 100 100 100 100 93 100 42 29 100 100 100 100 55 100 100 40 100 100 100 100 100 100 100 98 100 100 99 80 81 89 5 5 0 4 51 5 0
43 100 100 100 100 100 100 100 100 100 40 41 100 100 98 98 93 36 94 73 92 100 100 100 100 100 100 100 100 100 100 100 100 79 90 100 64 88 10 4 25 14 5 5
100 100 100 100 100 100 100 100 100 60 55 34 96 100 100 38 10 5 5 70 100 100 100 50 95 100 100 100 100 100 100 100 100 39 100 100 100 100 52 68 100 91 11 5
100 100 100 100 100 100 100 100 100 26 93 51 85 100 97 72 46 21 24 65 87 100 99 54 100 100 100 100 100 100 100 100 100 100 100 98 72 30 96 100 96 60 5 5
100 100 100 100 100 100 100 100 100 72 76 100 100 100 100 100 17 100 100 98 100 100 77 95 97 100 100 100 100 100 100 100 100 100 100 100 90 95 100 100 84 6 5 5
100 100 100 100 100 100 100 100 76 9 33 100 100 100 100 100 100 100 100 59 100 45 8 12 98 100 100 100 100 100 100 100 100 100 100 100 100 100 100 100 100 48 42 30
100 100 100 100 100 99 98 85 17 1 13 100 100 100 100 100 100 100 100 79 84 100 63 14 47 100 100 100 100 100 100 100 100 100 100 100 100 100 100 100 100 89 39 18
99 100 100 99 100 100 89 96 99 44 83 100 100 100 100 100 100 100 100 100 100 100 100 95 79 98 100 97 100 100 100 100 100 100 100 100 100 100 100 100 100 100 23 9
100 100 100 100 100 100 100 100 100 100 100 100 100 61 100 97 100 100 100 100 100 100 100 100 78 100 100 100 100 100 100 100 100 100 100 100 100 100 100 100 100 96 99 91
100 100 100 100 100 100 100 100 100 100 100 100 100 78 51 84 96 94 91 100 100 100 100 100 100 100 100 100 100 100 100 100 100 100 100 100 100 100 100 98 100 100 100 100
100 66 40 100 92 75 80 94 100 100 90 100 98 99 100 100 89 93 100 100 100 100 100 100 100 100 100 100 100 100 100 100 100 100 100 100 100 100 100 65 97 100 100 100
35 84 100 100 98 100 62 72 99 100 100 100 100 100 99 96 100 93 97 98 100 100 100 100 100 100 100 100 100 100 100 100 100 100 100 100 100 100 100 100 100 100 100 100
100 100 100 100 100 100 100 100 100 100 100 100 100 100 100 100 100 100 100 100 100 100 100 100 100 100 100 100 100 100 100 100 100 100 100 100 100 100 100 100 100 100 100 100
100 100 100 100 100 100 100 100 100 100 100 100 100 100 100 100 100 100 100 100 100 100 100 100 100 100 100 100 100 100 100 100 100 100 100 100 100 100 100 100 100 100 100 100
100 100 100 100 100 100 100 100 100 100 100 100 100 100 100 100 96 100 100 100 100 100 100 100 100 100 100 100 100 100 100 100 100 100 100 100 100 100 100 100 100 100 100 100
100 100 100 100 100 100 100 100 100 100 100 100 98 87 100 86 96 100 100 100 100 100 100 100 100 100 100 100 100 100 100 100 100 100 100 100 100 100 100 100 100 100 100 100

GFSNW_prec_cloud_033.txt.gz
Cloud_Cover
82 100 100 100 100 100 100 100 100 99 34 100 100 63 9 0 0 5 7 100 100 100 100 100 100 100 100 100 100 100 100 100 100 100 100 16 96 78 95 97 86 60 48 38
100 100 100 100 100 100 100 100 100 100 42 100 100 14 4 0 0 0 3 9 100 100 100 100 100 100 100 100 100 100 100 54 100 100 96 34 6 100 97 83 100 44 90 3
100 100 100 100 100 100 100 100 100 100 100 54 70 35 0 0 0 4 5 5 81 95 100 100 100 100 100 100 100 100 100 84 100 100 97 85 63 100 100 74 100 31 49 76
100 100 100 100 100 100 100 100 100 98 100 93 30 4 0 3 0 3 23 4 51 23 100 100 100 100 100 100 100 100 80 70 100 100 100 100 76 100 100 100 90 87 40 100
71 74 100 100 100 100 100 100 100 98 15 93 98 100 82 5 1 3 33 80 2 85 100 100 100 100 100 100 100 100 98 50 100 100 100 70 65 88 100 100 99 100 100 77
70 38 5 5 100 100 100 100 100 100 100 100 93 57 5 3 0 3 76 91 39 100 100 100 100 100 100 100 46 80 94 50 100 100 100 100 80 96 59 100 85 13 30 4
97 92 100 49 20 100 100 100 100 100 100 100 56 5 48 5 5 0 7 100 100 95 100 73 100 100 100 100 16 100 96 100 100 100 100 92 100 57 100 34 53 5 50 8
100 100 100 100 24 100 100 100 100 100 100 100 86 98 100 100 47 100 98 100 95 100 72 100 100 100 100 100 100 100 99 100 100 100 79 88 100 100 100 91 32 30 98 17
100 100 100 100 67 100 100 100 100 100 100 100 98 100 100 100 68 100 100 100 100 100 100 100 100 100 100 100 100 100 100 100 100 100 100 100 100 100 100 24 40 17 99 5
100 100 100 100 78 100 100 100 100 100 100 100 100 100 100 100 62 43 71 100 100 100 100 98 100 100 100 100 100 100 100 100 100 100 100 100 100 100 98 64 46 91 36 84
100 100 100 100 100 100 100 100 100 100 100 100 100 100 100 69 100 39 53 100 100 100 98 10 97 100 100 100 100 100 100 100 100 100 83 100 100 100 14 100 1 5 46 45
100 100 98 100 100 100 100 100 100 100 100 100 100 100 100 98 34 24 100 100 100 100 96 1 67 100 100 100 100 100 100 100 100 100 100 100 100 100 95 65 6 5 5 5
100 98 100 100 100 100 100 100 100 100 100 100 100 100 100 100 18 96 100 100 100 100 100 99 100 100 100 100 100 100 100 100 100 100 100 100 100 100 100 52 4 5 7 90
97 100 100 100 100 100 100 100 100 100 100 100 100 100 70 80 96 33 100 100 100 100 87 12 85 100 100 100 100 100 100 100 100 100 100 100 100 100 100 74 66 60 99 100
100 100 100 100 100 100 100 100 100 100 100 100 100 95 5 50 90 48 100 92 100 90 65 24 39 100 85 99 100 100 100 100 100 100 100 100 100 100 100 75 88 79 63 100
100 100 100 100 100 100 100 100 100 100 100 100 100 74 96 18 57 100 100 100 100 98 16 51 100 100 41 100 100 100 100 100 100 100 100 100 100 100 100 91 100 51 61 100
100 100 100 100 100 100 100 100 100 100 100 90 100 94 100 96 87 100 100 100 100 43 95 100 100 100 100 100 100 100 100 100 100 100 100 100 100 100 100 97 100 100 100 100
100 100 100 100 100 100 100 100 100 100 91 6 81 100 100 100 100 100 100 100 70 89 100 100 100 100 100 100 100 100 100 100 100 100 100 100 100 100 100 100 100 53 83 98
100 100 100 100 100 100 100 100 100 100 50 100 100 100 100 100 100 100 94 93 68 78 100 100 100 100 100 100 100 100 100 100 100 100 100 100 100 100 100 100 100 98 72 100
100 100 100 100 99 100 76 99 100 100 100 100 100 100 100 100 100 100 100 100 100 95 100 100 100 100 100 100 100 100 100 100 100 100 100 100 100 100 100 98 100 100 100 79
100 100 100 100 100 98 73 66 100 100 100 100 100 100 100 100 100 100 100 100 100 100 100 100 100 100 100 100 100 100 100 100 100 100 100 100 100 97 100 100 100 100 100 100
87 90 58 96 100 100 100 70 100 100 100 100 100 100 100 100 100 100 100 100 100 100 100 100 100 100 100 100 100 100 100 100 100 98 80 66 14 76 100 100 100 100 100 100
58 100 100 100 100 100 100 85 97 100 100 100 99 97 100 100 100 100 100 100 100 100 100 100 100 100 100 100 100 100 100 100 100 100 100 100 100 100 100 100 100 100 100 100
100 88 86 98 81 100 100 100 100 100 100 100 100 100 100 100 100 100 100 100 100 100 100 100 100 100 100 100 100 100 100 100 100 100 100 100 100 100 100 100 100 100 100 100
100 100 100 92 99 100 99 100 100 100 100 100 100 100 100 100 100 100 100 100 100 100 100 100 100 100 100 100 100 100 100 100 100 100 100 100 100 100 100 100 100 100 100 100
100 100 100 100 100 100 91 91 100 100 100 100 100 100 100 100 99 100 100 100 100 100 100 100 100 100 100 100 100 100 100 100 100 100 100 100 100 100 100 100 100 100 100 100
100 100 100 100 100 100 100 100 100 100 100 100 100 100 100 100 96 100 100 100 100 100 100 100 100 100 100 100 100 100 100 100 100 100 100 100 100 100 100 100 100 100 100 100

GFSNW_prec_cloud_036.txt.gz
Cloud_Cover
100 100 100 31 100 100 100 100 100 90 100 99 100 100 0 0 0 0 0 100 5 38 53 100 100 100 100 100 100 100 100 100 100 100 100 100 100 100 71 77 96 89 100 10
100 100 92 81 100 100 100 100 100 100 100 99 100 39 15 4 2 0 0 0 70 100 22 62 100 100 100 100 100 100 100 100 100 100 100 100 100 100 99 99 67 98 100 100
96 78 100 100 98 100 100 100 100 100 100 18 53 73 5 4 0 4 0 0 0 16 98 100 100 100 100 100 100 100 100 100 100 100 100 100 100 100 100 96 99 13 94 93
95 44 96 100 100 100 100 100 100 53 100 90 5 67 1 5 5 2 1 0 0 13 0 100 100 100 100 100 100 100 100 100 100 100 100 100 100 100 87 93 100 99 68 100
100 100 75 100 100 100 100 100 100 80 7 100 90 82 5 5 4 5 2 0 0 0 4 100 100 100 100 100 100 100 100 100 100 100 100 100 100 100 100 100 100 96 100 100
54 91 100 100 100 100 100 100 100 92 20 99 90 60 5 4 12 97 11 0 0 0 4 100 100 99 100 100 100 100 100 100 100 100 100 100 46 87 100 100 96 95 92 99
80 59 5 88 80 88 100 100 99 100 100 60 15 20 5 5 42 19 88 12 0 0 0 98 100 100 100 100 100 100 100 100 100 100 100 86 62 95 100 100 37 98 96 100
100 94 71 76 99 8 100 100 100 100 100 48 83 5 81 100 100 98 45 8 0 3 0 81 100 100 100 100 100 100 100 89 63 66 75 100 7 100 100 100 100 100 56 100
18 100 95 99 100 90 100 100 100 100 100 95 64 100 100 100 100 100 20 4 69 100 27 100 100 100 100 99 100 100 100 82 42 100 53 6 83 100 100 100 100 86 96 99
59 86 100 100 100 100 89 20 100 100 100 100 100 84 32 100 100 54 18 4 6 99 0 34 100 20 100 100 100 100 100 100 81 62 36 2 98 100 100 99 100 96 99 41
100 100 100 100 100 100 99 55 100 100 100 100 98 68 100 100 100 23 31 100 62 2 26 71 98 93 95 100 100 100 100 100 54 98 93 23 100 100 100 100 100 100 26 100
97 100 100 100 100 100 100 95 100 100 100 100 100 100 100 100 98 100 76 41 95 70 6 44 100 91 100 100 100 100 100 100 100 100 52 98 100 100 100 100 100 98 60 7
100 100 100 100 100 100 100 100 100 100 100 100 100 100 100 100 100 87 100 94 5 95 100 100 98 22 100 100 100 100 100 100 72 97 100 100 100 100 100 100 100 58 97 100
100 100 100 100 100 100 100 100 100 100 100 100 100 100 100 100 94 49 84 82 44 77 100 100 43 54 82 100 100 100 100 100 100 100 100 100 100 100 100 100 100 85 100 100
100 100 100 100 100 100 100 100 100 100 100 100 100 100 100 48 72 100 100 32 66 100 78 98 59 91 100 100 81 100 100 99 100 100 100 100 100 100 100 91 100 98 100 100
100 100 100 100 100 100 100 100 100 100 100 100 100 62 40 100 89 100 100 100 85 100 100 100 89 100 11 78 88 100 100 100 100 100 100 100 100 100 100 100 100 100 100 100
100 100 100 100 100 100 100 100 100 100 100 100 96 98 99 95 96 99 100 94 41 99 82 11 100 100 10 98 18 100 100 100 100 100 100 100 100 100 100 100 100 100 100 100
100 100 100 100 100 100 100 100 100 83 100 81 100 100 95 25 72 36 6 19 79 75 100 100 100 100 100 34 100 100 100 100 100 100 100 100 100 100 100 100 100 100 100 90
100 100 100 100 100 100 100 100 100 98 100 100 85 100 99 97 97 12 5 79 100 97 38 75 100 100 82 100 100 100 100 100 100 100 100 100 100 100 97 100 100 100 99 100
100 100 100 100 100 100 100 100 100 100 36 70 96 100 100 100 100 94 8 6 16 62 100 100 100 96 100 100 100 100 100 100 100 100 100 100 100 100 100 100 100 99 90 100
100 100 100 88 73 100 100 100 77 14 21 89 100 100 100 85 100 100 57 94 97 100 100 100 100 100 100 100 100 100 100 100 100 100 100 100 100 100 100 100 100 100 100 100
100 100 100 91 90 100 100 89 74 98 100 100 100 100 100 100 100 99 100 100 100 100 100 100 100 100 100 100 100 100 100 100 100 100 100 100 100 96 95 100 100 100 100 100
100 100 100 100 100 100 100 99 100 100 100 100 100 100 100 100 100 100 100 100 100 100 100 100 100 100 100 100 100 100 100 100 100 100 100 100 100 100 100 100 100 100 100 100
100 100 99 94 98 100 100 100 100 100 100 100 100 100 100 100 100 100 100 100 100 100 100 100 100 100 100 100 100 100 100 100 100 100 100 100 100 100 100 100 100 100 100 100
97 93 100 87 100 100 100 100 100 100 100 100 100 100 100 100 100 100 100 100 100 100 100 100 100 100 100 100 100 100 100 100 100 100 100 100 100 100 100 100 100 100 100 100
85 66 99 100 100 100 100 100 100 100 100 100 100 100 100 100 100 100 100 100 100 100 100 100 100 100 100 100 100 100 100 100 100 100 100 100 100 100 100 100 100 100 100 100
100 100 100 100 100 100 100 100 100 100 100 100 100 100 100 100 100 100 100 100 100 100 100 100 100 100 100 100 100 100 100 100 100 100 100 100 100 100 100 100 100 100 100 100

GFSNW_prec_cloud_039.txt.gz
Cloud_Cover
100 100 100 100 100 100 100 100 100 96 100 100 100 100 74 5 0 0 0 0 5 35 100 98 58 4 92 98 100 100 100 100 100 100 100 100 100 99 100 100 100 100 100 45
100 100 100 100 100 100 100 100 100 100 100 100 100 65 16 5 5 1 0 0 0 0 5 12 86 54 100 100 62 100 100 100 100 97 44 94 100 100 100 100 100 100 100 83
100 100 100 100 100 100 100 100 100 100 100 9 5 21 23 44 5 5 0 0 0 0 0 35 0 40 69 100 97 100 100 100 99 71 98 100 100 100 100 100 100 100 100 100
100 100 100 100 100 100 100 100 100 65 99 100 74 56 5 50 85 5 1 0 0 0 0 1 0 0 54 100 100 46 100 100 100 100 100 100 100 100 91 100 100 100 100 100
100 100 100 100 100 100 100 100 100 98 6 100 100 100 15 5 3 3 3 2 0 0 0 0 0 0 6 61 100 100 100 100 100 100 92 100 100 100 68 61 100 100 100 100
100 100 100 100 100 100 100 100 100 100 100 100 100 34 5 6 25 3 2 0 2 0 0 0 0 0 0 56 100 100 100 91 88 65 100 100 99 100 100 100 100 100 100 100
57 38 100 100 100 100 100 100 100 100 100 100 44 23 46 44 86 10 32 8 4 2 100 0 0 0 55 78 100 100 100 100 95 32 100 100 80 100 100 100 100 100 100 100
99 71 83 18 66 99 100 100 100 100 100 50 24 5 15 32 59 36 90 1 4 100 62 0 0 16 9 100 100 100 100 100 100 82 42 90 100 100 100 100 100 100 100 100
100 100 100 100 88 8 97 100 100 100 100 100 100 34 25 46 98 96 36 0 63 100 5 2 3 6 9 99 100 100 100 100 100 100 93 8 100 100 100 100 100 100 100 100
51 75 92 100 100 100 100 100 100 100 100 100 100 100 37 65 100 100 100 48 100 100 5 5 5 5 6 48 100 100 100 100 100 100 100 5 8 100 100 100 100 100 100 62
82 28 45 55 94 100 100 100 100 100 100 100 97 100 60 100 100 72 100 100 100 100 22 24 90 21 100 100 100 100 100 100 100 100 66 41 52 100 100 100 100 100 99 32
100 100 100 100 100 100 100 100 100 100 94 100 100 100 96 100 100 100 100 100 100 97 2 5 3 85 100 100 100 100 100 100 100 100 93 91 100 77 97 80 100 100 41 96
55 9 90 100 100 100 100 100 100 99 100 100 100 88 100 100 100 100 27 100 100 51 0 5 23 78 98 100 100 100 100 100 100 99 100 100 100 100 100 100 100 99 100 65
94 92 100 100 100 100 100 100 100 87 48 100 100 100 100 100 99 59 50 100 100 97 5 5 94 55 10 84 100 100 100 100 100 100 100 100 15 95 78 100 100 94 49 95
100 96 100 100 100 100 100 100 100 100 100 100 100 100 78 81 100 27 100 100 83 100 16 28 5 15 76 4 99 100 100 100 100 100 100 100 99 98 98 100 100 100 100 100
100 100 100 100 100 100 100 100 100 100 86 100 100 100 67 100 97 94 86 36 100 100 100 100 100 100 58 44 5 100 100 100 100 99 97 42 100 100 100 100 100 100 100 100
100 100 100 100 100 100 100 100 100 100 100 100 96 100 89 96 100 100 96 100 100 100 100 100 100 100 100 100 84 96 100 77 100 70 99 64 100 100 100 100 100 100 100 100
100 99 100 100 100 100 100 100 100 100 100 98 61 91 100 100 100 100 100 100 100 100 100 100 100 100 100 100 100 100 100 100 91 71 99 100 100 100 100 100 100 100 100 100
100 100 100 100 100 100 100 100 100 100 99 74 58 86 82 100 100 100 100 100 100 100 100 100 100 100 100 100 100 100 100 100 97 5 6 100 100 100 100 100 100 100 100 100
100 100 100 100 100 100 100 100 100 100 100 100 100 100 79 83 100 100 100 99 94 99 100 100 100 100 100 100 100 100 100 100 100 86 100 100 100 100 100 100 100 100 100 100
100 100 93 96 97 99 100 100 100 100 99 97 100 96 100 93 100 100 32 29 91 90 100 99 91 96 100 100 100 100 100 100 100 100 100 100 94 100 100 100 100 100 100 100
100 100 100 100 100 100 100 100 65 60 100 100 100 100 100 100 100 100 80 96 81 80 100 97 99 100 96 100 100 100 100 100 100 100 100 100 100 100 100 100 100 100 100 100
100 100 100 100 100 100 100 100 100 99 100 100 100 100 100 100 100 99 100 100 97 100 100 100 100 100 100 100 100 100 100 100 100 100 100 100 100 100 100 100 100 100 100 100
95 100 100 100 99 90 99 100 95 100 100 100 100 100 100 100 100 100 100 100 100 100 100 100 100 100 100 100 100 100 100 100 100 100 100 100 100 100 100 100 100 100 100 100
91 86 100 92 100 100 100 100 100 100 100 100 100 100 100 100 100 100 100 100 100 100 100 100 100 100 100 100 100 100 100 100 100 100 100 100 100 100 100 100 100 100 100 100
5 25 97 64 100 99 100 100 100 100 100 100 100 100 100 100 100 100 100 100 100 100 100 100 100 100 100 100 100 100 100 100 100 100 100 100 100 100 100 100 100 100 100 100
62 97 99 90 96 100 100 100 100 100 100 100 100 100 100 100 100 100 100 100 100 100 100 100 100 100 100 100 100 100 100 100 100 100 100 100 100 100 100 100 100 100 100 100

GFSNW_prec_cloud_042.txt.gz
Cloud_Cover
100 100 100 100 100 100 100 100 100 97 86 100 92 91 79 6 5 5 5 5 14 70 100 100 28 94 92 95 100 30 66 22 25 31 99 36 5 61 100 100 70 76 98 100
100 100 100 100 100 100 100 100 100 100 40 94 100 96 32 21 43 1 5 7 5 5 67 73 100 100 66 100 99 66 77 24 64 94 89 72 5 28 92 100 100 91 100 100
100 100 100 100 100 100 100 100 100 100 100 24 46 100 100 99 65 5 5 2 2 4 5 4 24 61 100 100 100 99 99 56 63 26 100 96 93 100 100 100 77 45 19 100
100 100 100 100 100 100 100 100 100 91 100 100 98 88 69 70 100 84 4 0 1 0 0 0 0 0 96 100 100 86 100 99 97 58 100 76 95 98 100 100 68 10 100 100
100 100 100 100 100 100 100 100 100 100 98 100 100 99 26 7 75 69 42 5 5 2 0 0 0 0 0 0 1 100 100 83 100 5 79 100 91 91 99 96 100 55 76 81
100 100 100 100 100 100 100 100 100 100 100 100 100 72 5 80 78 72 5 3 9 0 0 0 0 0 0 0 0 100 100 100 100 33 97 100 100 25 68 100 100 100 99 100
100 100 100 100 100 100 100 100 100 100 100 99 59 62 99 9 65 24 12 2 5 4 25 2 0 0 0 0 0 1 91 48 100 95 90 97 8 100 100 71 36 100 100 100
100 100 100 100 100 100 100 100 100 100 100 99 39 16 11 90 5 7 13 42 18 12 99 14 5 0 0 0 0 0 1 95 100 100 93 86 1 100 100 100 88 100 100 100
69 100 100 100 100 100 100 100 100 100 100 93 99 86 100 100 99 89 4 100 100 100 100 100 28 5 0 1 51 100 78 99 100 100 100 100 81 85 100 100 98 100 100 100
100 100 100 100 100 100 100 100 100 100 100 61 31 57 50 100 99 56 95 97 100 100 100 100 69 67 4 4 24 100 100 100 100 100 100 95 100 96 100 100 66 99 100 100
100 100 100 100 100 100 100 100 100 100 100 100 100 81 38 54 51 5 28 100 83 98 100 100 10 13 57 1 3 8 100 100 100 100 100 100 100 100 100 39 95 100 100 100
100 100 99 100 100 100 100 100 100 100 100 100 100 100 90 91 97 100 100 100 100 100 100 92 5 43 95 5 5 0 79 100 100 100 100 100 100 98 67 52 100 100 100 18
100 98 99 99 99 100 100 100 100 100 100 100 98 100 100 33 72 100 85 10 88 100 20 100 100 60 5 42 3 0 51 100 100 100 100 100 100 100 100 100 100 100 100 94
27 58 68 99 100 99 100 100 100 100 100 100 87 81 46 100 93 98 83 61 100 100 100 100 100 63 1 0 0 0 100 100 100 100 100 100 100 100 100 100 100 100 100 100
84 100 100 100 100 100 100 100 100 72 75 73 100 94 92 100 100 80 100 100 95 74 74 82 26 56 57 29 41 4 38 100 100 100 100 100 100 100 100 100 100 100 100 83
100 100 100 99 43 100 100 100 100 100 100 100 100 100 100 81 98 98 100 52 6 46 99 97 8 18 60 100 100 100 100 99 98 100 100 100 100 100 100 100 100 100 100 100
100 100 100 100 100 100 100 100 100 100 100 100 100 100 98 100 100 94 23 91 100 91 100 100 100 70 5 58 100 100 100 93 91 100 100 100 100 100 100 100 100 100 100 100
100 100 100 100 100 100 100 100 100 100 100 100 100 100 100 64 100 100 100 100 100 100 100 100 100 100 96 100 100 99 100 100 100 100 100 100 100 95 94 43 58 100 100 100
100 100 100 100 100 100 100 100 100 100 100 87 82 100 100 96 100 99 100 100 100 100 100 100 100 100 100 100 100 100 100 100 100 100 100 100 100 22 84 100 100 64 100 100
100 100 100 100 100 100 100 100 100 100 100 95 100 100 100 100 100 100 100 90 100 100 100 100 100 100 100 98 85 100 100 100 100 100 100 100 100 100 100 99 96 95 100 100
97 100 100 100 100 100 100 100 99 98 100 98 98 99 100 100 100 100 100 100 100 100 100 100 100 100 100 98 100 100 100 100 100 100 100 100 100 100 100 100 100 100 95 100
97 100 100 100 100 100 100 100 100 100 100 100 100 100 100 100 100 100 100 100 100 100 92 81 97 100 100 99 100 100 100 100 100 100 100 100 100 100 100 100 100 100 100 100
100 100 100 100 100 100 100 100 100 100 100 100 100 100 100 100 100 100 100 100 100 96 97 98 100 100 100 100 100 100 100 100 100 100 100 100 100 100 100 100 100 100 100 100
100 100 100 100 100 100 100 100 100 100 100 100 100 100 100 100 100 100 100 100 100 100 98 100 100 100 100 100 100 100 100 100 100 100 100 100 100 100 100 100 100 100 100 100
100 100 100 100 100 100 100 100 100 100 100 100 100 100 100 100 100 100 94 100 95 78 100 100 100 100 100 100 100 100 100 100 100 100 100 100 100 100 100 100 100 100 100 100
100 100 100 100 100 100 100 100 100 100 100 100 100 100 100 100 100 100 100 100 100 100 100 100 100 100 100 100 100 100 100 100 100 100 100 100 100 100 100 100 100 100 100 100
100 100 100 100 100 100 100 100 100 100 100 100 100 100 100 100 100 100 100 100 100 100 100 100 100 100 100 100 100 100 100 100 100 100 100 100 100 100 100 100 100 100 100 100

GFSNW_prec_cloud_045.txt.gz
Cloud_Cover
0 5 5 24 99 100 100 100 100 100 63 100 100 100 98 100 100 100 100 100 100 100 100 100 100 100 100 100 100 100 100 100 100 100 100 100 100 84 73 34 53 70 92 94
14 29 93 100 100 100 100 100 100 100 99 99 100 100 76 80 99 100 91 99 100 100 100 99 99 100 100 100 100 100 100 100 100 100 100 100 99 99 98 39 5 13 50 98
5 24 63 100 100 100 100 100 100 100 100 86 87 100 100 100 29 27 11 21 53 100 100 100 100 100 100 47 87 100 100 100 100 100 100 100 100 98 100 99 22 13 5 98
5 16 100 100 100 100 100 100 98 97 100 100 100 100 95 100 100 60 36 66 38 74 100 64 24 84 100 100 100 99 100 90 49 100 100 100 100 100 98 18 30 16 54 32
5 94 100 100 100 100 100 100 99 100 100 100 100 100 51 100 100 88 26 5 59 99 90 6 9 19 90 91 83 38 100 100 100 97 100 97 99 100 100 70 79 74 72 96
96 100 100 100 100 100 100 100 100 100 100 100 100 100 100 100 100 77 16 5 5 4 1 0 1 3 4 4 4 70 26 100 100 88 100 100 11 5 82 100 99 85 61 100
100 100 100 100 100 100 100 100 100 100 100 100 100 100 100 100 100 100 100 57 71 76 5 5 5 1 5 2 0 1 17 4 100 85 100 100 0 79 44 100 96 100 100 100
100 100 100 100 100 100 100 100 100 100 100 100 100 100 100 100 100 100 100 100 95 100 89 60 19 0 5 27 0 1 0 3 43 49 24 32 1 90 100 100 5 50 99 100
100 100 100 100 100 100 100 100 100 100 100 100 100 100 100 100 100 97 33 100 100 71 56 100 100 45 0 42 97 54 61 13 54 91 59 40 0 13 100 88 6 6 44 12
100 100 100 100 100 100 100 100 100 100 100 100 100 93 100 100 90 32 67 100 97 100 88 100 100 93 89 5 90 74 93 100 100 100 100 82 25 100 100 85 28 64 19 21
100 100 100 100 100 100 100 100 100 100 100 100 100 100 100 89 99 94 74 100 100 85 100 89 74 82 47 8 5 5 13 86 100 100 96 94 100 100 100 67 95 64 89 6
100 100 100 100 100 100 100 100 100 100 100 100 100 100 78 84 97 100 100 100 100 94 87 42 5 5 97 5 4 5 4 2 9 2 4 79 90 100 100 100 100 83 58 94
100 100 98 80 100 100 100 100 100 100 100 100 91 60 100 100 100 100 100 100 100 100 93 54 85 10 5 16 5 6 0 0 0 0 0 100 100 100 100 100 100 92 100 94
100 100 98 36 100 100 100 100 100 100 100 100 100 91 99 100 100 100 100 100 100 100 100 100 91 22 0 3 37 3 4 67 11 2 21 100 100 100 100 100 100 100 100 100
50 88 100 100 100 100 100 100 100 100 67 41 11 14 100 100 100 100 100 100 100 100 100 100 100 100 92 93 88 5 36 55 34 2 100 100 100 100 100 100 100 100 100 100
90 31 93 100 100 100 100 100 100 100 100 87 90 30 7 33 66 60 100 96 100 100 100 68 100 83 100 100 100 88 100 99 100 94 100 100 100 100 100 100 100 100 100 100
100 100 100 100 100 100 100 95 80 87 91 100 100 98 100 54 80 51 100 84 100 99 100 90 54 77 100 100 100 100 100 100 100 99 16 100 100 100 100 100 100 99 100 100
100 100 100 100 100 100 100 74 68 98 100 100 100 100 100 100 100 100 88 91 98 100 56 81 100 100 100 100 100 100 100 100 86 88 73 99 100 100 100 100 100 100 100 100
100 100 100 100 100 100 100 100 100 100 100 100 100 100 100 100 100 100 100 100 100 100 100 100 100 100 100 100 100 99 100 100 100 100 99 100 100 100 100 100 83 100 100 100
100 100 100 100 100 100 100 100 100 100 100 100 100 100 100 98 83 98 100 100 100 100 100 100 100 100 100 100 100 100 100 100 100 100 100 100 100 100 100 100 100 100 100 100
100 100 100 100 100 100 100 100 100 100 100 100 100 100 100 100 100 100 100 100 100 92 100 98 93 100 100 100 100 100 100 100 100 100 100 100 100 100 100 100 100 100 100 100
98 100 100 100 100 100 100 100 88 80 96 99 100 100 100 100 100 93 100 94 96 99 100 97 100 100 100 100 100 100 100 100 100 100 100 100 100 100 100 100 100 100 100 100
99 100 100 100 98 99 80 94 100 97 100 100 99 100 100 100 100 100 100 100 100 99 100 100 99 100 100 100 100 100 100 100 100 100 100 100 100 100 100 100 100 100 100 100
100 100 100 100 100 100 100 100 100 100 100 100 100 100 100 100 100 100 100 100 95 100 70 90 100 100 100 100 100 100 100 100 100 100 100 100 100 100 100 100 100 100 100 100
100 100 100 100 100 100 99 99 100 96 100 100 100 100 97 100 100 94 91 99 100 100 100 100 100 100 100 100 99 100 100 100 100 100 100 100 100 100 100 100 100 100 100 100
100 100 100 100 100 100 100 100 100 100 100 100 96 94 93 100 100 100 100 100 100 100 100 100 100 100 100 100 100 100 100 100 100 100 100 100 100 100 100 100 100 100 100 100
100 100 100 100 100 100 100 100 100 100 100 100 100 100 100 100 100 100 100 100 100 100 100 100 100 100 100 100 100 100 100 100 100 100 100 100 100 100 100 100 100 100 100 100

GFSNW_prec_cloud_048.txt.gz
Cloud_Cover
65 50 5 5 5 4 16 100 100 99 99 100 100 100 100 80 100 100 100 100 100 99 100 100 100 100 100 100 99 100 84 84 100 100 100 100 100 100 100 63 29 52 98 98
60 8 5 5 47 8 90 100 100 100 100 100 100 100 97 65 100 100 100 100 100 100 78 100 100 100 83 100 88 100 100 76 91 100 100 100 100 100 96 55 27 14 93 90
30 46 5 5 64 19 96 100 100 93 100 100 100 100 100 95 30 100 100 100 100 100 100 100 100 100 100 100 100 100 100 96 100 100 100 100 100 100 100 100 100 100 91 100
18 15 5 5 5 21 100 100 100 100 100 100 99 95 100 100 100 83 95 100 100 100 100 100 100 100 100 100 100 100 100 100 100 100 100 100 100 100 100 100 100 18 71 18
5 5 5 5 5 78 100 100 100 100 100 98 96 100 100 100 100 100 96 28 98 100 100 100 100 99 100 100 100 100 100 100 100 100 100 100 100 100 100 63 35 5 5 5
15 12 50 5 5 98 100 100 100 100 97 100 100 100 100 100 100 100 100 100 100 99 100 100 100 100 91 100 53 46 48 77 85 66 100 100 96 100 100 100 67 5 4 38
94 22 5 5 80 100 100 100 100 100 100 100 100 100 100 100 100 100 100 100 100 100 100 74 57 97 100 100 57 12 29 5 86 80 100 94 80 98 100 100 66 9 5 55
5 5 6 88 100 100 100 100 100 100 100 100 100 100 100 100 100 100 100 100 100 100 99 74 98 6 44 27 62 49 5 81 52 37 51 77 60 99 85 100 22 57 5 5
95 94 100 100 100 100 100 100 100 100 100 100 100 100 100 100 100 100 100 100 100 100 98 98 100 32 13 53 54 12 2 5 92 97 100 15 82 100 100 100 1 5 4 1
100 100 100 100 100 100 100 100 100 100 100 100 100 100 100 100 100 100 100 100 100 100 93 99 85 53 96 53 100 97 84 76 66 100 99 2 0 0 69 100 28 1 1 0
100 100 100 100 100 100 100 100 100 100 100 100 100 100 100 100 100 100 100 100 100 100 100 96 100 100 30 11 5 31 38 70 94 99 100 23 0 0 2 56 53 4 0 5
100 100 100 100 100 100 100 100 100 100 100 100 100 100 100 100 100 100 100 100 100 99 100 100 69 5 26 5 5 0 5 4 7 2 2 0 0 0 0 5 2 2 5 3
100 100 100 100 100 100 100 100 100 100 100 100 100 100 100 100 100 100 100 100 100 85 98 100 81 5 5 5 5 2 0 1 0 1 0 0 0 0 2 0 5 100 100 64
100 100 100 100 100 100 100 100 100 100 100 100 100 98 100 100 100 100 100 100 100 100 100 93 62 5 2 3 5 5 26 6 2 0 0 0 0 0 0 1 62 100 100 100
100 100 100 100 100 100 100 100 100 100 100 100 100 100 100 100 100 100 100 100 100 100 100 100 40 29 72 21 5 5 5 24 5 0 92 98 20 0 3 6 63 94 100 100
98 100 100 100 100 100 100 100 100 100 100 100 100 99 99 100 100 96 100 100 100 100 100 100 82 83 100 76 66 83 77 45 100 99 44 63 46 51 33 100 100 100 100 100
69 96 88 100 100 100 100 100 99 100 100 100 100 100 95 37 93 93 100 100 100 100 100 100 85 100 100 93 42 100 90 100 91 100 100 74 99 81 19 100 100 100 100 100
83 98 99 100 100 100 100 100 100 100 100 100 100 93 100 93 100 100 100 100 100 100 100 100 100 100 100 100 61 38 54 87 100 100 100 100 100 70 86 100 100 100 100 100
100 100 100 100 100 100 100 100 100 100 63 69 100 55 100 81 72 64 100 100 100 93 100 100 100 84 86 96 90 100 100 100 100 100 100 100 100 95 95 100 100 100 100 100
100 100 100 100 100 100 100 100 100 100 100 100 100 100 100 81 100 100 100 100 100 100 100 100 100 100 92 93 100 100 100 100 99 100 100 100 100 100 100 93 100 100 100 100
100 100 100 100 100 100 100 100 91 99 100 100 99 100 100 100 100 100 86 97 96 94 100 100 100 100 100 100 100 99 100 97 84 88 100 100 100 100 100 100 100 100 100 100
95 100 100 100 100 100 100 100 100 100 100 100 100 100 100 100 100 96 100 98 100 100 100 100 92 100 100 93 100 100 100 100 95 100 100 100 100 100 100 100 100 100 100 100
98 47 100 100 100 100 100 100 100 100 100 100 100 100 100 100 100 100 100 99 100 94 99 100 98 100 100 100 100 100 100 100 100 100 100 100 100 100 94 100 100 100 100 100
100 100 100 100 100 100 100 99 100 100 100 100 100 100 100 100 100 100 100 100 86 100 88 100 100 100 100 100 100 100 100 100 100 100 100 100 100 100 100 100 100 100 100 100
84 60 96 99 100 100 100 100 100 100 100 100 100 95 95 90 97 77 72 72 99 100 100 100 100 100 100 100 100 100 100 100 100 100 100 100 100 100 100 100 100 100 100 100
100 100 100 100 100 100 100 100 100 100 100 100 95 98 84 98 100 100 100 100 100 100 100 100 100 100 100 100 100 100 100 100 100 100 100 100 100 100 100 100 100 100 100 100
100 100 100 100 100 100 100 100 100 100 100 100 100 100 100 100 100 100 100 100 100 100 100 100 100 100 100 100 100 100 100 100 100 100 100 100 100 100 100 100 100 100 100 100

GFSNW_prec_cloud_051.txt.gz
Cloud_Cover
100 100 100 74 4 1 14 30 99 78 70 100 100 100 100 45 34 7 78 100 100 100 100 100 100 100 98 100 100 100 100 100 100 100 100 99 9 29 10 5 4 8 100 100
100 100 100 33 4 5 55 100 100 7 99 100 100 100 70 23 5 5 80 98 100 100 100 100 100 100 100 100 100 100 100 100 100 100 100 100 80 88 94 45 23 73 100 100
100 66 79 39 5 5 81 100 92 100 94 21 91 96 78 37 5 5 100 90 100 100 100 100 100 100 100 100 100 100 100 100 100 100 100 100 100 100 100 100 100 100 100 100
100 10 100 36 49 8 47 100 100 35 96 99 90 90 100 40 36 41 100 87 100 100 96 100 100 100 100 100 100 100 100 100 100 100 100 100 100 100 30 32 61 72 41 8
100 100 100 5 5 5 97 100 100 100 5 7 98 100 100 47 68 100 100 80 100 100 100 100 95 98 59 100 98 100 93 100 100 100 100 100 100 100 100 66 46 74 65 91
100 100 100 7 5 12 100 100 100 100 29 66 50 76 90 99 100 100 100 100 100 100 100 100 100 42 62 100 100 100 96 98 99 100 100 100 100 100 100 100 100 85 8 100
100 100 100 5 5 8 82 100 100 100 91 92 72 100 100 100 100 100 100 100 100 100 88 68 100 100 25 100 100 100 100 100 100 100 100 95 100 100 100 100 100 100 100 100
7 4 3 5 5 5 91 89 100 100 74 84 100 100 100 100 100 100 100 100 100 100 100 98 71 100 78 65 100 87 100 100 100 100 100 77 100 100 100 100 100 100 99 28
77 46 40 10 91 5 5 76 83 100 100 100 100 100 100 100 100 100 100 100 100 100 99 100 47 45 57 100 100 32 30 41 40 98 99 100 100 100 100 100 100 100 100 100
89 95 90 11 52 2 8 50 100 100 100 100 100 100 100 100 100 100 100 100 100 100 100 94 98 72 60 60 51 97 100 100 100 100 94 93 55 72 68 68 60 11 5 5
100 100 100 100 17 5 73 100 100 100 100 100 100 100 100 100 100 100 100 100 100 100 100 97 98 76 5 16 91 98 48 74 69 100 91 99 99 10 4 5 5 5 0 0
100 100 100 100 99 100 100 100 100 100 100 100 100 100 100 100 100 100 100 100 100 100 100 92 72 60 26 5 5 9 51 5 4 2 2 0 0 0 0 0 0 0 0 0
100 100 100 100 100 100 100 100 100 100 100 100 100 100 100 100 100 100 100 100 100 92 64 95 100 89 26 5 5 5 2 5 2 0 0 0 0 0 0 0 0 0 0 0
100 100 100 100 100 100 100 100 100 100 100 100 100 100 100 100 100 100 100 100 100 100 100 91 88 59 6 5 5 4 0 1 0 0 0 0 0 4 20 0 2 2 2 5
100 100 100 100 100 100 100 100 100 100 100 100 100 100 100 100 100 100 100 100 100 100 100 100 100 100 70 18 12 5 0 0 0 5 53 98 70 6 91 92 5 2 5 59
100 100 100 100 100 100 100 100 100 100 100 100 100 100 100 100 100 100 100 100 100 100 100 100 100 100 100 90 45 15 62 73 5 21 83 35 45 92 100 98 10 1 1 5
100 100 100 100 100 100 100 100 100 100 100 100 100 100 100 100 100 100 100 100 100 100 100 100 100 99 100 100 27 100 100 51 26 100 99 84 84 100 100 54 20 8 5 47
100 100 100 100 100 100 100 100 100 100 100 100 100 100 100 100 100 100 100 100 100 100 100 99 99 100 100 100 100 72 9 13 58 100 100 100 100 100 99 100 63 15 37 87
99 100 100 100 100 100 100 100 100 100 100 98 99 100 100 99 57 43 83 100 100 100 100 100 100 100 99 100 85 94 99 100 100 71 76 100 100 100 100 100 100 85 95 95
100 100 100 100 100 100 100 100 100 100 100 100 100 79 86 99 93 94 75 93 100 100 100 100 100 100 100 100 100 100 100 100 79 80 100 100 100 100 100 100 100 100 100 100
100 100 100 100 100 100 100 100 69 100 100 100 99 92 100 99 100 100 93 100 100 100 100 100 100 100 100 97 100 100 100 97 99 100 100 100 100 100 100 100 100 100 100 100
100 100 100 83 96 91 81 89 100 95 98 100 100 100 100 100 100 100 100 99 100 100 96 96 97 100 100 100 100 100 99 100 100 100 100 100 100 100 100 100 100 100 100 100
100 100 68 87 93 100 100 100 100 100 100 100 100 100 100 100 100 100 100 100 99 89 99 96 100 100 100 100 100 100 100 100 100 100 100 100 100 100 100 100 100 100 100 100
100 100 100 100 100 100 100 100 88 96 100 100 100 100 100 78 86 98 16 96 84 70 99 89 100 100 100 100 100 100 100 100 100 100 100 100 100 100 100 100 100 100 100 100
98 100 100 100 99 85 92 96 96 100 100 100 100 100 99 100 100 99 100 89 94 92 99 100 100 100 100 100 100 100 100 100 100 100 100 100 100 100 100 100 100 100 100 100
100 96 97 95 99 100 100 96 96 100 100 100 100 97 100 100 99 72 89 69 82 98 100 100 100 100 100 100 100 100 100 100 100 100 100 100 100 100 100 100 100 100 100 100
100 100 100 100 100 100 100 100 100 100 100 100 100 100 100 100 100 100 100 100 100 100 100 100 100 100 100 100 100 100 100 100 100 100 100 100 100 100 100 100 100 100 100 100

GFSNW_prec_cloud_054.txt.gz
Cloud_Cover
100 30 100 63 100 1 5 87 93 26 37 100 100 100 57 72 5 0 3 62 100 100 100 100 100 100 100 100 100 100 100 100 100 100 100 100 100 100 100 100 91 93 81 100
100 58 52 54 100 4 45 90 100 7 78 96 100 88 61 98 53 17 68 38 78 100 100 100 100 100 100 100 100 100 100 100 100 100 100 100 100 100 100 79 54 47 84 78
100 100 100 100 100 85 38 71 83 45 30 89 93 100 56 96 5 67 95 38 5 88 98 100 100 100 100 100 100 100 100 100 100 100 100 100 100 94 100 84 51 31 58 74
88 30 100 100 79 94 40 97 54 92 98 63 76 98 56 88 100 78 74 64 5 76 51 100 99 100 100 100 100 100 100 100 100 100 100 100 100 100 100 100 97 89 100 74
100 100 96 31 88 99 33 100 96 49 96 100 97 62 82 89 100 100 88 45 96 42 36 80 100 96 100 60 100 100 100 100 100 100 100 100 100 100 100 100 100 100 100 95
93 100 100 40 51 100 56 88 81 81 29 90 100 80 62 35 83 82 100 100 100 44 100 95 99 100 78 100 88 100 100 100 100 100 100 100 100 100 100 100 100 100 100 100
100 100 58 92 100 97 40 87 73 100 94 100 100 100 100 100 85 89 100 70 96 76 100 80 71 33 80 100 100 58 100 100 100 100 100 100 100 100 100 100 100 100 66 5
100 100 100 64 100 100 22 50 93 100 64 25 94 100 100 99 96 100 100 100 100 100 100 97 100 94 93 74 100 87 100 100 100 96 65 60 100 100 100 99 39 5 4 5
100 100 65 67 82 100 26 5 25 100 100 99 100 100 100 100 96 100 100 100 100 100 100 100 100 100 100 99 92 99 100 100 100 100 96 100 100 100 100 100 100 82 79 26
98 28 96 82 64 20 5 5 10 100 100 6 77 100 100 100 100 100 100 100 100 100 100 100 100 100 92 97 100 100 100 100 100 97 100 99 100 100 100 100 100 100 100 100
24 38 43 50 86 100 43 16 50 58 100 68 65 100 100 100 100 100 100 100 100 100 100 100 100 100 96 97 97 100 100 100 91 91 100 100 100 100 100 100 100 100 100 100
5 74 90 100 81 40 79 58 15 36 97 100 100 100 100 100 100 100 100 100 100 96 100 98 100 100 99 99 98 81 100 100 100 100 99 30 68 100 100 85 100 100 100 95
100 100 100 100 100 100 100 95 9 88 100 100 100 100 100 100 100 100 100 100 100 100 100 100 100 100 96 98 42 85 10 83 100 100 100 100 100 100 100 99 86 59 100 35
100 100 100 100 100 100 100 100 100 100 100 100 100 100 100 100 100 100 100 100 100 100 100 100 100 100 94 100 100 68 76 64 5 64 70 54 9 5 39 3 2 2 5 3
100 100 100 100 100 93 100 100 100 100 100 100 100 100 100 100 100 100 100 100 100 100 100 100 100 100 100 100 95 94 66 50 86 89 61 5 1 3 17 0 2 0 1 0
100 100 100 100 100 100 100 100 100 100 100 100 100 100 100 100 100 100 100 100 100 100 100 100 100 100 100 100 100 100 93 18 34 42 83 41 18 37 17 6 5 20 14 0
100 100 100 100 100 100 100 100 100 100 100 100 100 100 100 100 100 100 100 94 100 100 100 100 100 87 94 100 100 100 89 6 5 63 61 40 100 100 92 61 100 100 96 22
100 100 100 100 100 100 100 100 100 100 100 100 100 100 100 100 100 100 100 100 100 100 100 100 85 80 100 100 76 58 13 11 22 97 79 91 98 100 100 100 100 100 90 67
100 100 100 100 100 100 100 100 100 100 100 100 100 100 100 100 100 100 100 100 100 100 100 100 100 100 100 100 98 90 92 70 71 16 29 100 100 100 100 100 100 100 99 100
100 100 100 100 100 100 100 100 100 100 100 100 100 100 100 100 100 100 100 100 100 100 100 100 100 100 100 100 100 100 100 99 92 83 90 75 100 91 92 100 100 100 100 100
100 100 100 100 100 100 100 100 100 100 100 100 91 83 100 100 100 100 100 100 98 96 100 100 98 100 100 100 100 100 100 100 100 100 100 100 97 100 99 100 100 100 100 100
100 100 100 100 100 100 100 100 100 100 100 98 88 95 100 98 100 100 84 88 97 99 93 99 100 100 100 100 100 100 100 100 100 100 100 100 100 100 100 100 100 100 100 100
97 96 100 100 100 100 100 100 100 100 100 100 100 100 100 100 100 100 100 100 98 81 99 100 100 100 100 100 100 100 100 100 100 100 100 100 100 100 100 100 100 100 100 100
100 92 87 100 72 99 100 100 100 100 100 100 100 100 100 100 100 100 100 100 87 100 100 100 100 100 100 100 100 100 100 100 100 100 100 100 100 100 100 100 100 100 100 100
100 100 100 100 100 100 100 100 100 99 100 100 100 100 100 100 100 100 98 98 98 100 100 100 100 100 100 100 100 100 100 100 100 100 100 100 100 100 100 100 100 100 100 100
100 89 100 100 100 100 100 100 100 100 100 100 100 99 93 98 92 96 98 90 96 100 100 100 100 100 100 100 100 100 100 100 100 100 100 100 100 100 100 100 100 100 100 100
100 100 100 100 100 100 100 100 100 100 100 100 100 100 100 96 46 97 100 100 100 100 100 100 100 100 100 100 100 100 100 100 100 100 100 100 100 100 100 100 100 100 100 100

GFSNW_prec_cloud_057.txt.gz
Cloud_Cover
5 80 100 100 89 87 98 49 94 28 5 95 98 80 5 7 5 5 5 1 5 5 65 100 96 100 100 100 100 100 100 100 100 100 100 100 100 100 100 100 100 100 100 100
17 100 100 23 5 100 100 50 80 63 8 98 100 99 93 57 37 6 31 5 5 1 43 100 100 100 100 100 100 100 100 100 100 100 100 100 100 100 100 100 100 100 100 100
82 87 68 93 98 94 100 97 94 92 34 79 82 100 100 100 94 98 100 100 94 82 7 33 100 100 100 100 100 100 100 100 100 100 100 100 100 100 100 100 100 100 100 100
59 4 8 37 100 98 100 100 43 91 95 97 95 71 33 100 100 99 99 100 100 100 81 96 100 100 100 100 92 100 100 100 100 100 100 100 100 100 100 100 100 100 100 100
96 100 96 90 5 100 100 100 81 95 61 100 100 96 36 93 100 99 100 100 100 100 100 100 100 95 100 97 99 100 100 100 100 100 100 100 100 100 100 100 100 100 100 100
100 100 100 100 57 98 100 32 63 76 93 97 100 100 96 100 100 100 96 100 100 99 100 98 84 82 100 100 80 100 100 100 100 100 100 100 100 100 100 100 100 100 100 100
99 100 100 100 99 26 41 95 93 100 41 100 100 100 97 100 98 98 100 94 87 98 55 10 12 41 15 65 100 100 100 100 100 100 100 100 100 100 100 100 100 100 100 100
100 100 100 100 97 46 94 100 100 98 98 100 100 100 100 100 100 99 99 74 97 100 49 16 84 77 97 30 100 100 100 100 100 100 100 100 100 100 100 100 100 100 95 87
100 100 100 100 95 99 73 100 100 100 90 33 81 100 100 100 100 95 74 81 95 100 100 100 94 100 74 95 100 96 100 100 100 96 81 87 100 100 100 100 100 100 100 100
91 100 100 100 100 85 79 100 100 100 100 20 100 92 100 88 89 98 81 98 92 100 100 100 100 100 100 100 81 95 98 91 100 100 100 100 100 94 100 100 100 100 100 100
51 100 100 76 10 63 38 32 96 98 79 5 99 100 100 81 86 98 84 100 100 100 100 99 100 92 100 100 100 100 97 100 100 100 100 88 92 100 100 100 100 100 87 83
57 48 66 5 98 15 9 68 82 50 98 49 48 18 5 97 99 100 100 100 100 97 72 99 100 100 100 100 100 100 100 77 100 100 100 100 100 100 100 100 100 100 100 66
20 5 5 5 37 28 6 29 99 100 100 79 70 7 94 86 100 100 100 100 100 100 87 100 100 100 100 100 100 100 100 100 99 100 100 100 100 100 100 100 100 100 99 92
7 5 3 5 5 5 6 30 51 100 100 97 5 40 100 100 100 91 100 100 99 100 100 100 100 100 100 100 100 100 100 100 100 99 100 100 100 72 100 100 100 100 100 99
5 5 14 68 21 100 96 65 52 33 38 82 100 100 100 100 100 100 100 100 98 100 100 100 100 100 100 100 100 100 100 100 84 96 62 100 100 100 100 100 100 100 100 74
97 99 96 100 100 100 100 100 100 98 47 100 100 100 100 100 100 100 100 100 100 100 100 100 100 100 100 100 100 100 100 100 67 48 96 83 12 71 100 88 94 72 25 29
100 100 100 100 100 100 100 100 98 100 100 100 100 100 100 100 100 100 100 100 100 100 100 100 100 100 100 100 100 100 100 100 100 100 46 18 11 58 33 29 8 30 72 81
100 100 100 100 100 100 100 100 100 100 100 100 100 100 100 97 100 100 100 100 100 100 100 100 100 100 100 100 100 100 100 100 100 82 14 57 88 100 97 100 95 100 100 100
100 100 100 100 100 100 100 100 100 100 100 100 100 100 100 100 100 85 97 100 98 100 73 84 89 100 100 100 100 100 100 73 69 32 55 99 100 100 82 68 68 83 87 97
100 100 100 100 100 100 100 100 100 100 100 100 100 100 100 100 100 100 100 100 100 100 100 100 93 100 100 81 81 100 90 95 74 66 95 80 100 78 86 94 100 97 100 100
100 100 100 100 100 100 100 100 100 100 100 100 100 100 100 100 100 100 100 100 100 100 100 100 100 100 100 100 100 100 98 95 100 100 100 100 100 100 100 100 100 100 100 100
100 100 100 100 100 100 99 100 100 100 100 100 100 100 100 100 100 100 100 100 100 100 100 100 99 100 100 100 100 100 100 100 98 100 100 100 100 100 100 100 100 100 100 100
100 100 100 100 93 95 94 97 100 100 100 98 100 100 100 100 100 100 100 100 100 49 98 100 100 100 100 100 100 100 100 100 100 100 100 100 100 100 100 100 100 100 100 100
100 100 100 100 100 100 100 100 100 100 99 100 100 100 100 100 99 100 100 100 100 100 100 100 100 100 100 100 100 100 100 100 100 100 100 100 100 100 100 100 100 100 100 100
100 100 100 100 100 100 100 97 100 100 100 100 99 95 96 100 100 93 100 100 100 100 100 100 100 100 100 100 100 100 100 100 100 100 100 100 100 100 100 100 100 100 100 100
88 100 100 100 100 100 100 100 100 100 100 100 100 100 100 100 100 100 100 100 100 100 100 100 100 100 100 100 100 100 100 100 100 100 100 100 100 100 100 100 100 100 100 100
100 100 100 100 100 100 100 100 100 100 100 100 100 100 100 97 98 99 100 100 100 100 100 100 100 100 100 100 100 100 100 100 100 100 100 100 100 100 100 100 100 100 100 100

GFSNW_prec_cloud_060.txt.gz
Cloud_Cover
5 6 25 5 57 74 69 63 91 4 98 40 72 89 78 40 100 34 22 41 5 5 67 98 80 69 100 100 100 100 100 100 100 100 100 100 100 100 100 100 100 100 100 100
6 5 5 7 100 91 58 98 52 8 89 98 57 58 93 24 54 59 60 69 69 21 7 52 78 24 100 100 100 100 100 100 100 100 100 100 100 100 100 100 100 100 100 100
73 18 29 47 99 76 39 100 48 47 26 38 97 100 84 100 50 15 100 62 97 49 7 5 45 94 100 100 100 100 100 100 100 100 100 100 100 100 100 100 100 100 100 100
23 100 100 100 99 80 73 100 64 12 100 60 72 84 100 100 100 77 63 83 63 57 28 84 99 51 13 93 100 100 100 100 100 100 100 100 100 100 100 100 100 100 100 100
97 100 100 60 17 67 84 100 85 49 5 99 100 83 5 100 100 100 100 100 66 83 82 100 100 100 51 93 100 100 100 100 100 100 100 100 100 100 100 100 100 100 100 100
22 88 100 100 100 100 99 100 98 100 32 30 68 89 30 60 78 99 72 100 78 100 100 62 31 9 75 93 98 100 100 100 100 100 100 100 100 100 100 100 100 100 100 100
52 99 20 86 100 100 100 100 95 100 25 100 90 63 100 100 100 24 100 89 100 97 25 73 57 11 31 77 100 33 100 100 100 100 100 100 100 100 100 100 100 100 100 100
100 90 100 100 100 100 100 100 85 77 100 93 100 100 84 100 97 23 7 85 35 5 94 60 36 4 10 5 77 100 34 100 100 100 100 100 100 100 100 100 100 100 100 100
77 40 94 100 100 100 100 100 100 86 100 86 100 100 100 88 95 99 26 66 35 63 70 97 64 35 59 24 22 90 99 99 100 100 100 100 100 100 100 100 100 100 61 47
100 100 100 100 100 100 100 100 100 100 100 100 89 58 93 98 100 80 63 68 92 67 96 77 96 75 61 88 64 80 64 100 99 100 100 100 100 100 100 100 100 100 86 100
100 100 100 100 100 100 100 99 100 100 88 100 71 98 95 86 33 93 91 99 57 89 92 98 92 24 64 100 100 100 100 78 98 100 86 84 100 100 100 100 100 100 100 100
100 100 100 100 100 100 30 7 99 100 98 18 78 74 9 100 100 100 100 72 100 95 84 86 54 100 100 100 100 100 100 66 33 91 100 100 100 100 100 100 100 100 100 100
100 100 100 100 100 12 5 49 76 90 98 22 26 4 40 53 51 96 100 32 99 100 100 96 91 100 100 100 100 100 99 96 96 70 88 100 100 100 100 100 100 100 100 78
100 100 96 30 16 3 5 5 22 99 90 73 1 3 4 1 10 14 32 62 97 100 100 100 100 100 100 100 100 100 100 100 55 57 100 93 100 100 100 100 100 100 100 98
77 99 11 5 1 2 5 5 5 72 16 86 78 21 1 4 35 100 99 98 100 100 100 100 100 100 100 100 100 100 100 100 100 100 100 100 100 100 95 92 100 100 100 100
35 77 5 5 5 4 40 100 19 38 73 100 96 68 67 100 98 100 100 100 100 100 100 100 100 100 100 100 100 100 100 100 100 100 100 100 100 78 99 28 92 100 100 100
95 5 5 3 5 59 96 70 34 74 100 100 100 100 100 100 100 100 100 100 100 100 100 100 100 100 100 100 100 100 100 100 100 100 100 100 100 95 45 34 16 41 15 19
100 93 45 100 100 99 97 78 76 78 100 100 100 100 100 100 100 100 100 100 100 100 100 100 100 100 100 100 100 100 100 100 100 100 100 89 46 11 6 6 33 62 57 83
100 100 98 100 100 100 100 100 100 99 70 100 100 100 100 100 100 100 100 100 100 100 100 100 100 100 100 100 100 100 100 100 100 100 100 100 99 91 71 63 75 93 91 98
100 100 100 100 100 100 100 100 100 100 100 100 100 100 100 100 100 100 100 100 100 99 100 100 100 100 100 100 100 100 100 100 100 100 100 100 100 100 85 96 99 100 100 100
100 100 100 100 100 100 100 100 100 100 100 100 100 100 100 100 100 100 100 100 100 100 100 100 99 100 100 100 100 100 100 100 100 100 100 100 100 100 100 100 100 100 100 100
100 100 100 100 100 100 100 100 100 100 100 100 100 100 100 100 100 100 100 100 100 100 100 99 96 100 100 100 100 100 100 100 100 100 100 100 100 100 100 100 100 100 100 99
100 100 100 100 100 100 100 100 100 100 100 100 98 100 100 100 100 100 100 100 100 100 100 100 100 100 100 100 100 100 100 100 100 100 100 100 100 95 100 100 97 98 92 97
100 100 100 100 100 100 100 100 100 100 100 100 100 100 100 100 100 100 100 100 100 100 100 100 100 100 100 100 100 99 100 100 100 100 99 96 94 100 88 97 76 73 91 99
98 93 100 100 100 100 99 98 100 100 100 100 100 100 100 100 100 100 100 100 100 100 100 100 100 100 100 100 98 100 100 100 97 97 89 91 100 96 98 94 100 100 100 100
100 100 99 96 100 100 100 100 100 100 100 100 100 99 98 92 93 94 100 100 100 100 100 100 100 97 95 100 100 100 99 98 99 100 100 96 81 96 100 100 100 100 100 100
97 100 100 100 93 100 100 100 100 100 100 100 99 100 100 100 100 98 100 100 100 100 100 100 100 100 99 100 100 100 100 100 100 100 100 100 100 100 100 100 100 100 100 100

GFSNW_prec_cloud_063.txt.gz
Cloud_Cover
5 51 5 5 93 18 7 34 69 4 44 92 96 58 5 0 0 0 27 55 69 21 100 100 100 26 87 7 8 100 100 100 100 100 100 100 100 100 100 100 100 100 100 100
97 96 31 4 5 37 80 100 89 0 99 100 59 5 5 1 0 0 22 93 98 100 100 88 100 18 61 6 6 100 100 100 100 100 100 100 100 100 100 100 100 100 100 100
41 46 5 53 35 56 100 98 94 12 4 23 100 96 19 5 2 1 3 6 100 100 100 100 18 19 81 40 44 100 100 100 100 100 100 100 100 100 100 100 100 100 88 100
22 25 22 5 92 58 100 97 95 46 98 22 5 13 5 86 81 7 3 1 91 100 100 100 100 79 96 14 75 100 100 100 100 100 100 100 100 100 100 100 100 100 100 100
40 72 96 59 91 86 100 100 92 5 5 25 100 96 6 5 99 100 68 78 65 96 100 100 100 30 84 5 4 60 100 100 100 100 100 100 100 100 100 100 100 100 100 100
5 5 23 87 70 90 91 94 90 83 78 79 47 56 100 26 5 90 100 100 49 7 84 46 74 98 66 99 7 50 100 100 100 100 100 100 100 100 100 100 100 100 100 100
5 68 5 5 44 99 31 78 99 83 99 73 100 100 67 100 72 41 54 100 100 79 5 6 30 40 78 52 40 53 100 100 100 100 100 100 100 100 100 100 100 100 100 100
12 5 99 100 91 37 100 100 100 100 98 52 15 85 75 49 100 96 27 67 25 91 86 83 20 6 3 5 6 64 100 100 100 100 100 100 100 100 100 100 100 100 100 100
100 82 87 93 5 81 100 100 100 100 95 14 5 96 100 100 74 100 97 27 25 82 96 100 37 6 3 2 6 4 2 100 100 100 100 100 100 100 100 100 100 100 99 98
95 92 91 29 79 100 100 100 100 100 100 77 98 100 100 100 100 100 100 100 40 23 75 25 6 5 5 5 18 84 33 43 99 100 100 100 100 100 100 100 90 100 100 100
88 100 100 100 100 100 100 100 100 100 100 97 100 100 100 100 100 100 100 100 80 72 34 7 11 5 3 4 78 99 100 99 100 88 77 100 100 100 100 70 100 100 100 100
100 100 100 100 100 100 100 100 100 100 100 100 38 27 5 61 100 92 100 100 100 92 88 50 41 5 48 99 100 100 100 93 92 18 78 100 100 100 100 100 100 100 100 100
100 100 100 100 100 100 100 100 100 100 91 98 6 25 100 18 77 96 58 100 100 100 100 100 94 100 100 100 100 100 92 98 71 78 88 63 100 100 100 100 100 100 100 100
100 100 100 100 100 100 100 29 5 12 100 43 6 8 1 5 5 5 80 99 85 100 100 100 100 100 100 100 100 100 93 100 78 89 100 98 100 100 100 100 100 100 100 100
100 100 100 100 100 72 5 5 5 24 59 82 80 4 0 0 3 4 5 5 100 100 100 100 100 100 100 100 100 100 100 100 100 100 100 100 100 100 100 100 100 100 100 100
100 100 97 100 98 5 40 98 5 8 95 100 83 12 57 45 0 4 0 34 57 73 100 100 100 100 99 98 100 100 100 100 100 100 100 100 100 100 100 100 100 98 58 66
92 97 98 44 3 5 13 14 30 12 85 100 92 35 27 47 39 86 85 98 83 84 100 100 100 100 100 67 96 100 100 100 100 100 100 100 100 100 100 100 100 100 66 21
94 95 8 5 5 8 12 92 99 42 51 100 100 100 100 100 100 100 99 100 100 100 100 100 100 100 100 100 100 100 96 100 100 52 100 100 100 100 100 100 100 100 100 99
87 7 5 54 56 41 42 83 97 82 79 100 100 100 100 100 100 100 100 100 100 100 100 100 100 100 100 100 100 100 81 91 95 95 100 100 100 100 100 100 100 100 100 100
56 83 100 100 100 84 70 99 100 100 100 100 100 100 100 100 100 100 100 100 100 100 100 100 100 100 100 100 100 100 100 100 99 100 100 100 100 100 100 100 99 98 100 92
100 100 100 100 100 96 100 100 96 98 100 100 100 96 100 100 100 100 100 100 100 100 100 100 100 100 100 100 100 100 100 100 100 100 100 100 100 100 100 100 100 100 100 100
97 100 100 100 100 100 100 99 98 80 100 96 100 99 98 100 100 100 100 100 100 100 100 100 100 100 100 100 100 100 100 100 100 100 100 100 100 100 100 100 99 100 100 100
100 100 100 100 100 100 100 100 100 100 100 92 99 100 100 100 100 100 100 100 100 100 100 100 100 100 100 100 100 100 100 100 100 100 91 98 98 95 80 100 83 74 88 93
100 100 100 99 99 100 100 100 100 100 100 100 100 100 100 100 92 100 100 100 99 100 100 94 100 100 99 80 64 49 100 94 80 97 96 100 100 100 91 65 65 12 94 94
100 100 100 100 100 100 99 100 100 100 100 100 100 96 100 81 84 98 86 86 100 100 99 100 100 94 90 70 27 57 79 72 87 65 95 87 91 100 100 60 39 11 32 66
100 100 100 100 100 100 100 100 100 100 100 100 100 100 100 100 100 100 100 100 100 100 96 100 100 94 91 93 95 88 81 82 85 100 98 92 98 99 100 78 91 100 95 96
100 100 99 100 81 96 100 100 100 100 100 97 88 86 94 76 72 97 89 97 99 100 100 95 94 100 99 95 99 98 100 100 100 100 100 100 100 100 100 100 100 100 100 100

GFSNW_prec_cloud_066.txt.gz
Cloud_Cover
12 5 5 5 0 46 5 5 70 55 100 70 100 100 49 0 0 0 0 100 94 90 96 100 100 100 96 76 100 100 96 100 12 100 100 100 100 100 100 100 100 100 100 100
5 5 5 5 6 5 18 99 5 0 81 100 66 28 74 20 1 0 0 26 100 97 100 61 100 100 98 74 15 97 96 72 5 100 100 100 100 100 100 100 100 100 100 100
5 5 13 6 5 93 44 100 76 3 5 92 100 100 99 31 20 6 5 4 100 98 100 100 92 100 65 5 6 9 96 96 0 96 100 100 100 100 100 100 100 100 100 100
5 5 4 5 48 59 82 100 52 6 84 95 98 99 100 100 100 100 69 6 92 99 84 100 100 100 11 68 5 72 5 5 4 24 100 100 100 100 100 100 100 90 100 100
31 73 96 6 46 65 100 81 58 9 6 100 100 100 100 70 87 99 100 99 7 99 87 91 79 100 100 96 95 99 97 5 5 23 100 100 100 100 100 100 100 100 100 100
79 83 5 5 86 66 100 100 85 67 8 70 98 99 100 66 100 100 100 99 90 5 4 100 84 99 100 100 100 55 66 98 46 23 100 100 100 100 100 100 100 100 100 100
5 5 5 23 6 85 74 56 90 98 82 50 48 100 100 97 96 100 100 100 100 62 5 49 100 100 100 100 100 93 31 62 23 100 100 100 100 100 100 100 100 100 100 100
5 5 5 90 70 42 76 85 99 100 97 92 100 100 100 91 6 5 76 97 99 100 10 9 14 100 100 100 100 100 88 100 93 98 100 100 100 100 100 100 100 100 100 100
7 8 72 100 94 98 21 54 94 100 100 98 99 97 100 100 100 91 99 99 100 100 100 100 95 7 5 100 100 100 98 60 82 64 100 100 100 100 100 100 100 100 100 100
17 70 33 30 5 58 34 92 82 100 100 100 70 86 88 99 100 100 91 95 84 99 100 100 76 33 5 12 100 98 98 42 100 99 100 100 100 100 100 100 100 100 100 98
17 22 80 77 84 18 26 51 49 91 100 100 85 16 5 90 98 100 100 100 100 100 46 99 96 5 2 0 3 23 20 53 91 62 96 100 100 100 100 100 100 100 100 100
99 95 79 80 100 100 74 100 51 74 100 100 28 5 92 100 100 100 100 100 100 100 80 54 89 6 6 2 5 86 100 94 72 51 7 100 100 100 100 100 100 100 100 100
100 100 100 100 100 100 100 100 100 100 100 100 23 100 100 66 99 100 100 100 100 100 100 100 100 97 94 18 100 100 100 100 100 100 81 93 100 100 100 100 100 100 100 100
100 100 100 100 100 100 100 100 100 100 100 97 100 100 86 100 71 98 100 100 100 100 100 100 97 100 92 100 100 100 98 100 100 100 100 100 100 100 100 100 100 100 100 100
100 100 100 100 100 100 100 100 100 26 23 96 83 43 49 99 5 1 87 99 70 100 100 100 100 100 100 100 100 100 100 98 100 100 100 100 100 100 100 100 100 100 100 100
100 100 100 100 100 100 98 98 7 5 5 97 59 0 1 5 5 4 45 61 46 73 99 100 100 100 100 100 100 100 100 100 100 100 100 100 100 100 100 99 100 100 100 100
100 100 96 100 100 42 24 6 8 2 41 100 99 25 4 5 1 5 5 5 66 100 100 100 100 100 100 100 100 100 100 100 100 100 100 100 100 100 100 100 100 92 100 96
100 100 99 100 100 16 56 100 65 2 19 98 100 51 31 45 10 34 5 28 100 100 100 100 100 100 100 100 100 100 100 100 100 100 100 100 100 100 100 100 97 100 100 100
100 100 100 81 16 5 87 100 100 36 28 100 100 100 100 100 100 100 100 100 100 100 100 99 94 100 100 100 100 100 100 100 100 100 100 100 100 100 100 100 100 100 100 100
100 56 91 100 44 5 83 100 100 100 100 100 100 100 100 100 100 100 100 100 100 100 100 100 100 99 100 100 100 100 100 100 100 100 100 100 100 100 100 100 100 100 100 100
13 75 89 26 4 44 100 100 100 100 100 100 100 100 100 100 100 100 100 100 100 100 100 100 100 100 100 100 100 100 100 100 100 99 91 99 80 89 97 100 100 100 100 100
91 99 83 50 62 100 100 100 89 98 55 100 100 100 100 100 100 100 100 100 100 100 100 100 100 100 100 100 100 100 100 100 100 100 97 95 100 99 93 96 100 96 93 85
100 98 98 100 100 100 96 100 100 97 100 100 100 100 98 67 88 94 100 100 76 100 100 100 100 100 100 100 100 100 100 100 100 100 100 100 100 100 94 99 97 95 84 81
96 58 78 96 100 86 78 75 99 100 100 100 96 100 100 86 99 100 94 93 100 100 98 100 92 100 100 100 100 100 100 97 98 100 96 96 100 100 80 71 99 97 64 97
96 100 100 100 100 94 100 96 100 100 100 100 100 80 53 76 95 93 94 94 100 99 92 100 95 90 76 93 85 80 85 83 94 86 89 99 100 99 97 96 95 100 98 97
100 100 100 100 100 99 100 100 100 100 100 100 98 100 89 100 92 100 92 97 74 97 100 99 100 100 97 92 72 79 92 100 100 100 99 100 100 100 100 100 100 100 100 100
100 100 100 100 100 99 100 100 100 97 100 100 100 100 100 100 100 100 99 96 98 100 100 94 63 77 98 72 74 77 80 87 94 99 100 100 100 100 100 100 100 100 100 100

GFSNW_prec_cloud_069.txt.gz
Cloud_Cover
5 5 5 5 5 9 5 6 43 0 86 96 53 17 6 5 14 0 0 0 0 77 100 100 100 78 100 100 100 100 99 100 100 100 100 85 100 100 100 100 100 100 100 100
5 5 5 5 5 42 5 78 47 0 2 49 92 83 16 51 5 1 7 1 67 79 78 100 100 100 14 58 100 100 100 100 100 100 100 44 94 100 100 100 100 100 100 100
5 5 5 5 5 4 38 99 83 5 38 17 37 100 90 99 94 47 40 87 5 48 93 100 100 100 90 68 100 91 74 89 100 100 100 100 100 100 100 100 100 100 100 100
18 9 5 5 5 8 37 100 58 21 68 91 100 100 72 100 100 96 100 100 100 99 76 100 100 100 100 100 99 100 48 18 100 100 100 46 100 100 100 100 100 100 100 100
24 5 5 13 68 26 84 99 89 73 6 5 96 99 62 100 100 96 100 81 100 100 97 100 100 100 100 100 100 100 100 99 100 100 97 65 82 77 100 100 100 100 100 100
10 8 6 5 5 6 100 100 99 58 11 5 6 99 51 83 99 100 100 100 98 99 5 100 100 100 100 95 74 100 100 100 100 100 100 14 64 28 100 100 100 100 100 100
3 5 18 5 4 48 79 99 98 92 68 74 5 76 99 91 88 99 100 95 95 97 79 8 88 100 91 98 73 100 100 100 100 92 31 5 5 94 90 100 100 100 100 100
5 5 5 1 4 100 11 94 100 85 100 8 5 25 100 91 97 100 100 100 100 100 99 81 83 81 100 100 100 100 100 100 89 84 28 5 5 86 100 99 100 100 100 100
21 10 53 100 11 84 52 6 100 100 100 61 64 7 5 83 98 92 100 100 100 100 100 98 19 93 56 100 100 100 100 100 94 96 97 5 7 5 100 100 100 100 100 100
5 5 5 5 29 41 62 17 14 100 100 100 92 100 35 69 95 88 100 100 100 100 100 98 76 24 20 77 100 100 100 97 97 100 92 5 73 5 100 100 100 100 100 100
5 64 72 98 96 56 67 58 8 89 100 97 68 56 100 100 72 82 98 100 100 100 100 100 96 99 86 6 76 100 100 100 100 100 100 86 100 12 96 100 100 100 100 100
99 99 30 12 59 84 100 100 83 99 100 100 100 46 100 100 35 90 98 95 100 100 100 100 100 100 99 18 5 22 98 100 100 100 96 84 100 80 62 100 100 100 100 100
100 100 100 99 99 100 100 100 96 100 100 100 99 100 96 56 11 100 42 100 100 100 97 100 100 100 100 72 7 24 100 100 100 100 100 100 100 99 68 100 100 100 100 100
39 64 99 100 100 100 100 100 100 100 100 100 100 78 75 10 41 100 100 100 100 100 100 100 100 100 93 98 90 100 100 99 100 100 100 100 100 100 92 100 100 100 100 100
100 98 100 100 100 100 100 100 100 100 100 100 100 97 74 96 100 100 100 100 100 100 100 100 99 100 96 100 100 100 100 100 100 100 100 100 100 100 100 100 100 100 100 100
98 100 100 100 100 100 100 100 100 100 100 81 95 57 100 84 100 93 100 100 92 100 99 100 100 100 100 100 100 100 100 100 100 100 100 100 100 100 100 100 100 100 100 100
100 100 100 100 100 100 100 100 98 9 22 97 100 46 5 13 70 92 85 89 96 74 99 99 100 100 100 100 100 100 100 100 100 100 100 100 100 100 96 100 100 100 100 100
100 99 100 100 100 100 73 100 30 5 15 100 100 78 14 51 79 32 8 75 100 63 77 100 100 100 100 100 100 100 100 100 100 100 100 100 100 100 100 100 100 100 100 100
100 100 100 100 98 77 99 100 26 7 5 52 100 70 98 93 100 80 62 98 100 74 100 100 100 100 100 100 96 99 100 100 100 100 100 100 100 100 100 100 100 72 100 100
100 100 100 100 89 99 100 93 93 60 69 100 100 94 100 100 100 100 100 93 100 100 100 100 100 100 100 100 100 97 100 100 100 100 100 100 100 100 100 100 100 100 100 100
100 92 80 13 5 97 73 100 100 89 98 100 100 100 99 100 100 100 100 100 100 100 100 100 100 100 99 98 100 99 100 100 100 100 100 99 82 96 100 100 100 100 100 100
92 38 5 21 70 97 100 98 86 96 100 100 100 100 100 100 100 100 100 100 100 100 100 100 92 96 97 86 97 97 61 100 100 100 100 100 98 56 94 100 100 99 100 100
63 18 56 96 96 100 100 84 96 100 100 100 100 100 100 100 100 100 100 100 100 100 100 100 100 100 100 100 100 100 100 82 85 100 100 100 100 95 82 100 91 60 81 67
83 87 100 100 89 87 74 12 93 100 100 100 100 100 100 100 100 100 96 93 100 100 100 90 99 100 98 100 100 100 100 100 100 100 100 91 90 94 98 100 100 99 93 80
67 11 71 65 60 95 89 95 100 100 100 100 100 97 64 95 99 99 92 100 98 65 78 75 100 100 98 97 93 86 91 92 93 86 88 90 88 84 81 81 87 94 90 86
78 76 96 100 100 97 94 100 100 100 100 100 100 84 95 100 99 83 82 64 96 100 98 98 95 99 100 96 86 90 86 88 89 87 86 89 85 85 88 89 91 88 91 85
100 100 100 100 100 99 100 100 100 100 100 98 84 70 96 79 61 83 86 45 48 99 100 91 77 78 91 81 77 87 94 100 100 100 100 100 100 100 100 100 100 94 96 100

GFSNW_prec_cloud_072.txt.gz
Cloud_Cover
100 95 100 6 5 4 2 5 33 0 5 23 73 88 5 4 2 0 3 0 0 0 3 2 12 99 96 84 100 100 100 100 100 100 78 70 91 81 100 100 100 100 100 100
100 100 63 5 5 5 5 13 26 3 2 5 86 26 78 83 5 1 17 24 12 69 98 46 5 95 100 67 87 100 95 100 100 100 90 42 88 100 86 100 100 100 100 100
100 43 5 5 5 5 5 17 64 5 20 26 96 93 54 43 22 32 65 14 5 5 30 100 14 5 100 92 85 100 100 100 100 100 96 73 100 100 100 100 100 100 100 100
93 95 5 5 5 4 5 83 61 40 85 79 84 72 45 12 86 98 90 91 99 100 67 6 34 43 100 100 100 100 50 100 100 100 100 56 100 100 100 100 100 100 100 100
97 5 68 5 9 91 32 97 69 71 18 5 5 5 88 95 100 55 99 100 100 100 80 32 100 95 100 100 100 71 88 89 100 100 46 88 100 100 98 100 100 85 100 100
100 100 58 5 35 79 86 98 98 96 99 49 5 4 23 92 99 11 92 100 100 100 80 80 26 100 100 100 100 100 100 100 99 100 57 66 100 100 100 86 100 100 98 100
100 100 34 91 85 28 6 17 100 95 82 53 5 4 5 91 54 6 63 39 96 96 100 32 5 98 100 100 100 100 100 100 99 100 100 49 100 100 100 100 100 100 100 100
100 100 6 5 5 28 5 9 90 79 92 5 5 5 25 21 44 5 6 98 90 100 100 100 21 13 100 100 100 100 84 9 21 100 100 26 18 100 100 100 100 100 100 100
100 96 5 5 25 63 6 9 93 100 96 25 5 5 8 30 5 27 5 98 100 100 100 100 60 5 99 99 27 76 5 5 61 100 100 100 15 5 81 100 98 100 100 99
100 73 98 84 100 82 7 5 36 99 100 48 7 10 5 62 28 52 24 96 100 100 100 100 100 36 82 98 29 90 67 19 90 100 100 38 100 5 5 10 49 100 100 91
5 5 5 5 5 54 18 18 40 61 82 56 27 36 5 51 69 24 11 68 100 100 100 100 100 64 56 60 16 8 5 19 100 100 100 88 100 5 5 63 100 72 100 100
5 5 5 5 5 50 78 87 100 63 99 62 74 100 100 36 7 5 22 99 100 100 100 100 98 98 95 99 95 72 71 98 100 100 100 99 100 99 100 100 100 100 100 100
0 5 19 100 94 16 60 100 100 100 100 100 100 22 6 93 75 5 96 100 100 100 100 100 100 98 100 100 100 99 51 100 100 100 100 100 100 100 100 100 100 100 100 100
5 24 48 99 100 95 90 100 100 100 100 85 87 24 37 78 58 100 100 100 100 100 100 100 100 100 100 100 95 55 95 100 100 100 100 100 100 100 100 100 100 100 100 100
5 5 38 84 94 100 100 100 100 100 100 100 100 23 5 32 18 98 100 100 100 100 100 100 100 100 100 99 98 100 100 100 100 100 100 100 100 100 100 100 100 100 100 100
11 67 100 100 100 100 100 100 100 100 100 100 100 100 46 72 5 100 100 100 100 100 100 97 100 100 100 100 96 100 100 100 100 100 100 100 100 100 100 100 100 100 100 100
100 100 100 96 100 100 100 100 100 100 100 100 98 53 100 79 79 86 79 100 100 100 100 100 99 62 100 100 100 100 100 100 100 100 100 100 100 96 100 99 100 99 97 99
100 100 100 100 100 100 100 100 100 100 98 65 98 93 100 100 78 94 81 100 100 100 100 100 60 100 100 100 100 100 100 100 100 100 100 100 100 100 100 100 90 64 100 100
100 100 100 100 100 100 100 100 89 87 18 68 100 88 96 97 93 87 100 100 100 100 100 79 100 100 100 100 100 100 100 96 98 100 100 100 100 100 100 100 100 85 100 100
100 100 95 100 100 86 92 100 95 22 6 61 100 9 83 100 86 99 100 91 79 85 99 99 99 100 100 100 100 100 100 99 96 100 100 100 100 100 100 100 100 100 100 100
100 100 100 100 89 46 24 98 45 67 98 54 95 88 100 100 99 100 100 95 88 100 95 99 96 95 92 97 99 99 94 88 95 84 94 100 100 100 100 100 100 100 98 100
100 83 88 100 84 13 78 100 98 100 88 48 86 100 100 100 100 100 100 100 97 100 98 100 87 91 100 91 99 100 84 88 96 99 98 93 100 95 100 99 100 100 94 96
99 96 59 33 38 100 84 87 91 98 89 100 100 100 100 100 100 100 100 100 99 100 100 99 95 100 100 98 100 100 100 100 100 100 100 71 85 70 76 100 97 84 81 90
99 42 84 88 100 90 90 92 65 98 100 100 100 100 100 100 100 100 100 100 100 100 100 86 100 100 100 100 100 100 95 98 85 90 86 86 87 98 83 93 85 96 96 91
71 38 81 91 76 87 89 92 94 99 100 100 100 100 100 100 100 100 99 100 100 100 97 100 100 100 100 100 100 98 93 85 89 95 96 100 100 100 100 100 100 100 100 100
16 31 91 93 90 96 90 93 100 100 100 100 100 100 100 100 100 100 71 75 94 98 73 100 90 100 99 96 67 72 81 84 86 84 93 97 99 100 99 80 74 77 84 86
38 88 97 90 100 96 97 100 100 100 100 98 29 40 86 93 48 74 82 94 76 92 97 92 74 95 100 100 100 100 100 99 100 100 100 100 100 100 100 100 100 99 91 92

GFSNW_prec_cloud_075.txt.gz
Cloud_Cover
100 100 100 100 100 100 100 99 30 5 5 10 24 5 5 4 0 0 0 0 0 0 0 5 5 17 76 58 69 27 84 100 100 100 100 100 100 100 99 100 100 100 99 34
100 100 100 100 100 100 100 39 5 5 0 5 71 17 5 5 5 5 5 5 1 35 41 12 3 5 49 100 59 98 94 100 100 100 100 100 100 100 99 100 100 100 94 100
100 100 100 100 100 100 90 8 5 4 5 10 5 5 20 6 93 82 98 61 24 53 7 57 10 5 5 8 100 100 77 33 100 100 100 100 100 100 54 93 100 100 100 100
100 100 100 100 100 92 5 37 24 6 85 75 5 6 4 5 39 41 29 99 100 100 97 28 4 1 4 5 98 100 86 18 100 100 100 100 100 100 66 100 100 97 94 100
100 98 100 18 18 5 5 46 51 60 27 5 5 3 0 5 41 32 4 94 100 100 100 100 100 100 94 6 100 100 100 48 100 100 100 30 99 99 14 100 100 100 100 100
100 100 100 79 28 5 44 91 90 10 14 18 5 2 0 0 3 3 5 5 5 100 100 99 100 91 100 100 100 100 100 100 100 100 94 29 41 100 99 100 100 100 100 100
100 100 81 53 66 67 42 7 100 97 65 47 5 0 0 4 5 13 2 5 63 32 31 95 53 34 51 100 100 100 100 100 100 99 99 18 78 30 100 100 100 100 100 100
100 100 92 99 100 100 24 6 16 5 50 5 5 0 2 5 5 5 2 4 5 40 69 98 92 34 14 54 99 100 100 100 19 1 5 0 100 76 100 100 100 100 99 100
100 100 100 100 100 44 5 5 7 100 98 6 5 5 2 5 5 5 5 5 5 87 100 100 100 70 2 24 98 100 100 100 37 76 5 5 89 100 100 100 100 100 100 100
100 100 100 100 92 43 6 5 5 97 100 5 5 5 5 5 9 46 5 5 25 100 100 100 100 82 8 2 85 100 100 60 59 71 45 5 99 82 100 100 100 100 100 100
100 100 100 100 98 87 18 25 5 25 75 5 5 5 5 8 34 18 5 5 72 100 100 100 100 100 46 30 13 97 100 89 65 96 95 35 100 39 100 100 100 100 100 100
96 100 100 10 5 43 14 35 12 78 99 5 5 0 0 3 74 49 6 77 98 100 100 100 100 100 99 100 54 60 58 56 22 7 10 62 100 91 100 100 100 100 100 100
13 13 5 5 10 49 77 100 99 100 100 99 84 7 2 0 13 100 72 51 99 100 100 100 100 100 99 100 100 70 54 97 100 100 100 100 100 100 100 100 100 100 100 100
52 3 5 5 65 99 89 100 81 100 95 86 67 17 5 5 5 100 66 97 100 92 100 100 100 100 99 97 96 100 99 100 100 100 100 100 100 100 100 100 100 100 100 100
10 5 14 60 92 98 100 100 100 97 88 83 100 100 6 5 5 60 93 100 100 84 87 100 100 100 99 100 90 100 100 100 100 100 100 100 100 100 100 100 100 100 100 100
86 10 8 86 100 100 100 100 100 100 100 100 100 100 9 5 5 13 100 100 100 98 100 100 98 100 100 100 99 100 100 100 100 100 100 100 100 100 100 100 100 99 100 100
99 45 100 100 100 100 100 100 100 100 100 100 100 100 100 100 8 18 100 100 100 100 100 100 90 100 100 100 100 100 100 100 100 100 100 100 100 100 100 100 99 100 100 100
100 100 100 100 100 100 100 93 100 100 100 100 100 90 27 81 19 51 100 100 100 88 100 100 100 100 100 100 100 100 100 100 100 100 100 100 100 100 100 92 80 95 100 96
100 100 100 100 100 100 99 100 100 100 100 84 100 60 97 99 77 95 100 77 97 100 100 98 100 100 100 100 100 100 100 100 100 100 97 100 100 100 100 94 99 97 100 100
100 100 100 100 100 88 100 100 100 100 33 17 97 97 98 53 78 100 100 100 100 100 100 91 100 100 100 100 100 100 100 99 97 100 100 99 100 100 100 99 100 100 100 100
100 100 100 100 93 62 86 75 22 35 59 46 66 37 50 30 79 98 22 88 98 78 87 82 99 100 100 100 100 100 100 99 94 88 98 99 100 99 100 100 100 100 98 100
100 99 100 100 99 77 60 97 97 61 48 51 100 100 47 30 41 100 100 83 94 100 93 100 93 100 100 100 100 100 100 100 98 96 100 100 99 95 100 100 100 100 100 100
100 100 100 90 29 80 81 79 98 100 81 62 100 100 100 90 100 100 100 100 94 99 100 88 99 100 100 100 100 100 100 100 100 100 99 100 100 96 90 100 100 100 100 100
92 62 96 68 80 47 6 5 6 48 100 100 100 100 100 100 100 100 100 100 100 100 98 72 100 100 100 97 86 96 100 100 100 100 100 100 100 100 100 100 96 89 88 92
82 8 64 90 40 79 47 99 100 100 100 100 100 100 100 91 100 100 91 100 100 100 92 100 100 100 100 100 100 100 100 95 94 91 82 85 80 87 100 99 99 96 94 93
30 25 88 98 100 100 100 100 100 100 100 98 100 99 100 100 100 100 100 98 99 78 79 93 100 83 84 78 58 73 69 78 84 95 86 86 92 88 95 99 99 99 93 82
5 90 95 93 74 84 100 98 74 79 87 100 100 100 100 97 95 61 76 95 100 100 100 100 78 98 100 100 100 100 100 100 100 88 98 100 99 100 100 100 100 100 100 100

GFSNW_prec_cloud_078.txt.gz
Cloud_Cover
100 100 100 100 100 100 100 100 99 80 100 100 100 100 47 5 5 5 4 4 5 1 3 0 0 0 58 89 73 50 46 65 5 100 100 100 100 100 100 100 100 100 95 85
100 100 100 100 100 100 100 100 92 100 100 100 100 95 32 5 32 98 92 99 99 42 38 90 14 13 2 6 95 100 100 47 8 62 100 100 100 100 100 100 100 100 100 99
100 100 100 100 100 100 100 100 100 100 100 100 96 5 5 5 48 44 8 80 83 90 97 98 57 69 50 3 51 95 100 100 12 68 99 100 100 100 100 100 100 100 43 82
100 100 100 100 100 100 100 100 100 100 100 94 9 5 5 5 16 4 20 84 55 78 90 88 99 99 9 5 30 61 100 100 95 75 72 100 100 100 100 100 100 100 91 100
100 100 100 100 100 100 100 90 100 39 79 19 5 3 5 6 88 5 12 31 74 36 90 100 100 93 84 83 49 57 100 100 100 97 88 100 100 100 100 100 100 100 98 100
100 100 100 100 100 100 85 96 46 70 41 81 10 71 53 5 5 11 63 49 5 7 46 48 100 56 100 47 98 100 100 100 98 100 100 100 100 95 97 100 100 100 92 100
100 100 100 100 100 97 15 48 82 80 46 56 37 8 5 5 5 93 64 5 96 30 5 14 46 84 5 5 92 100 100 100 100 100 100 76 39 100 49 93 100 100 95 100
100 100 100 100 100 67 9 6 7 78 83 54 10 5 5 5 53 28 5 11 57 5 40 98 100 80 18 5 5 100 100 100 100 100 95 61 6 87 100 83 100 88 100 85
100 100 100 60 61 6 5 5 5 7 64 24 5 6 5 43 100 39 5 5 5 88 93 94 100 100 92 34 3 100 100 100 100 100 70 91 74 35 100 50 38 76 98 100
100 76 78 75 41 40 37 13 5 27 58 45 15 84 91 94 74 81 26 10 28 35 100 100 100 100 60 80 16 100 100 100 100 99 98 89 5 78 58 100 56 57 89 100
3 5 71 19 85 98 49 65 5 73 95 65 14 5 5 81 87 99 85 40 75 93 100 100 100 100 80 18 20 32 100 100 68 100 96 77 6 21 17 82 99 94 99 100
78 99 41 5 86 87 16 95 26 71 74 78 6 5 5 6 12 70 89 60 79 97 100 100 100 100 92 83 100 100 100 100 100 98 100 100 100 96 100 100 100 100 100 100
100 64 5 4 5 45 14 56 94 97 100 50 80 5 4 4 4 5 94 94 68 84 100 100 100 100 63 99 100 77 80 100 93 88 100 100 100 100 100 100 100 100 100 100
100 14 2 3 62 42 66 85 25 95 74 89 32 5 4 1 0 5 97 99 69 57 100 100 98 100 97 100 100 93 79 40 98 100 100 100 100 100 100 100 100 100 100 100
30 8 5 5 5 100 98 99 91 84 53 91 92 71 42 45 5 5 46 100 48 98 100 100 100 100 92 100 100 100 98 100 100 100 100 100 100 100 100 100 100 100 100 100
5 5 49 59 99 100 95 100 100 100 100 100 100 100 100 99 12 4 56 100 100 100 100 100 83 86 93 100 100 100 100 100 100 100 100 100 100 100 100 100 100 100 100 100
5 16 100 100 100 100 100 74 78 100 100 100 100 98 97 100 67 8 46 100 100 92 97 89 94 98 91 100 100 100 100 100 100 100 100 100 100 100 100 100 100 100 100 100
7 96 100 100 100 100 100 100 100 100 100 100 100 100 98 83 78 81 90 100 100 89 78 90 90 97 100 100 100 100 100 100 100 100 100 100 100 100 100 100 100 100 100 100
46 99 100 100 100 100 100 100 100 100 100 100 100 71 78 92 98 99 62 100 98 99 100 94 96 100 100 100 100 100 100 100 100 100 100 100 100 100 100 99 86 96 100 100
100 100 100 100 100 100 100 100 100 100 100 62 79 96 100 94 99 100 86 85 100 100 100 100 100 100 100 100 100 100 100 100 100 100 100 100 100 100 100 96 100 98 100 100
100 100 100 99 98 94 95 42 64 47 23 21 36 71 35 52 91 86 48 99 96 99 100 100 96 100 100 100 100 100 100 95 98 93 89 100 98 98 99 98 99 100 100 100
100 100 100 100 100 100 84 25 66 64 5 68 64 18 44 73 100 100 76 83 91 99 84 94 100 100 100 100 100 98 100 98 92 97 97 98 100 99 98 100 100 100 100 100
100 100 100 98 89 97 99 98 95 98 86 53 100 99 67 82 98 70 100 88 100 90 100 97 100 100 100 100 99 94 100 98 100 100 100 100 100 100 100 100 100 100 100 100
100 100 100 97 86 46 16 57 68 40 79 100 100 100 100 100 100 100 100 100 100 100 100 100 100 100 100 98 97 95 100 100 100 100 100 100 100 100 100 100 100 100 100 90
100 99 59 75 64 97 86 80 79 100 100 100 100 100 100 100 100 100 100 100 100 99 95 97 100 100 100 100 100 100 100 100 100 100 100 100 100 100 100 100 100 89 77 78
100 85 92 100 100 100 100 100 100 97 100 100 100 95 100 100 100 100 89 85 90 91 95 100 99 100 100 100 100 100 100 100 100 100 100 100 100 100 99 78 75 69 69 71
100 94 87 98 94 100 83 98 100 97 100 100 100 100 100 100 95 100 100 100 92 100 100 100 100 100 100 100 100 100 100 100 100 100 100 100 95 92 61 68 78 55 49 62

GFSNW_prec_cloud_081.txt.gz
Cloud_Cover
100 100 100 100 100 100 100 100 100 100 100 100 100 100 100 100 30 80 99 88 48 5 3 5 5 3 0 95 54 30 96 37 100 100 98 100 100 100 100 100 100 100 100 100
100 100 100 100 100 100 100 100 100 100 100 100 100 100 100 100 100 100 95 34 56 34 97 89 12 10 25 4 33 49 69 16 96 100 90 98 84 100 100 100 100 100 100 100
100 100 100 100 100 100 100 100 100 100 100 100 100 100 100 100 90 78 42 89 78 98 94 100 94 100 100 73 98 45 84 19 86 70 100 86 100 100 100 100 100 100 100 100
100 100 100 100 100 100 100 100 100 100 100 100 100 100 95 34 40 16 85 43 35 55 89 27 100 99 95 45 100 49 41 81 71 61 46 90 15 98 100 100 100 100 100 100
100 100 100 100 100 100 100 100 100 100 100 100 100 51 8 5 70 5 99 4 62 100 94 84 59 97 80 100 100 100 81 39 100 6 72 97 5 100 100 100 100 100 100 100
100 100 100 100 100 100 100 100 98 95 100 100 61 98 54 5 5 5 11 98 99 100 100 98 12 5 29 58 100 78 87 88 100 17 100 98 18 100 96 100 100 100 100 99
100 100 100 100 100 100 100 100 100 100 100 38 80 44 5 5 5 41 63 95 98 37 62 5 5 5 19 91 43 27 75 79 100 100 100 98 32 100 100 100 100 100 100 100
100 100 100 100 100 100 100 100 99 100 88 62 82 8 5 5 5 49 82 94 98 7 8 89 50 75 100 30 59 5 90 100 100 100 100 49 100 100 100 100 100 100 100 100
100 100 100 100 100 100 100 100 89 90 93 47 5 6 5 73 100 100 100 98 9 44 83 88 100 100 99 100 93 20 100 100 100 100 100 100 100 100 95 100 57 100 100 100
100 100 100 100 100 96 60 100 34 99 48 81 18 99 89 68 68 100 100 83 66 79 94 100 100 100 97 100 55 100 100 100 100 100 100 78 83 100 99 5 97 100 100 100
98 97 100 96 86 94 64 98 59 93 95 96 12 6 28 74 85 98 91 52 94 99 100 100 100 100 100 100 100 100 100 100 100 100 93 65 28 35 81 100 100 100 100 100
100 60 5 5 5 5 12 100 98 100 99 97 8 5 5 5 14 97 100 77 87 92 92 99 100 100 93 100 100 100 100 100 100 100 100 100 100 99 100 100 100 100 100 100
84 7 5 5 5 96 47 100 100 64 77 32 20 16 14 5 5 9 86 98 94 80 87 100 100 100 62 100 100 100 100 100 100 100 100 100 100 100 100 100 100 100 97 100
75 93 27 5 5 8 36 78 72 100 84 99 94 6 5 2 5 5 5 41 85 98 98 100 100 100 100 100 100 100 99 99 100 100 100 100 100 100 100 100 100 100 100 100
100 100 18 4 3 41 87 71 84 94 93 100 100 15 12 91 16 5 14 64 86 100 100 99 100 100 71 86 100 100 98 100 100 100 100 98 100 100 100 100 100 100 100 100
100 94 1 0 5 92 99 100 81 10 89 94 97 78 90 100 80 90 62 90 100 100 100 82 91 98 93 100 100 100 100 100 100 100 100 100 100 100 100 100 100 100 100 100
91 31 5 2 34 99 98 80 100 97 100 100 95 93 100 100 100 100 85 100 100 100 100 98 90 71 97 100 100 100 100 100 100 100 100 100 100 100 100 100 100 100 100 100
5 5 5 5 100 91 100 97 100 100 100 100 100 100 100 97 83 100 91 100 100 99 100 80 99 99 98 99 100 100 100 100 100 100 100 100 100 100 100 100 100 100 100 100
4 5 11 97 100 100 100 100 100 100 100 100 100 100 100 69 75 99 70 90 94 45 92 99 100 100 85 100 100 100 100 100 100 100 100 100 100 100 100 100 100 100 100 100
4 94 100 100 100 100 100 100 100 100 100 100 92 93 80 43 100 91 100 78 58 100 100 100 98 91 100 100 100 100 100 100 100 100 100 100 100 100 97 100 100 100 100 100
100 100 100 100 100 100 100 100 100 98 99 78 72 82 82 57 98 100 67 100 100 100 100 100 100 100 100 100 100 100 100 100 100 90 100 100 100 100 100 100 100 100 100 100
100 100 100 100 100 98 85 91 86 100 64 82 92 72 40 91 100 100 100 100 100 100 100 100 99 100 100 100 100 100 100 96 92 97 100 100 100 99 97 100 100 100 100 100
100 100 100 99 84 98 100 98 90 94 89 81 29 58 72 44 70 60 93 88 80 62 100 100 100 100 100 100 100 100 99 99 100 100 100 100 100 100 100 100 100 100 100 100
100 97 100 93 88 60 96 53 53 44 59 93 78 86 99 100 100 100 100 100 93 100 88 100 100 100 100 100 99 97 100 100 100 100 100 100 100 100 100 100 100 100 100 92
100 100 95 60 77 88 89 95 99 99 100 98 100 100 100 100 100 100 100 100 100 91 100 100 100 100 99 100 100 100 100 100 100 100 100 100 100 100 100 100 100 84 43 9
100 68 100 96 100 100 92 99 100 92 100 100 100 100 100 100 98 100 96 99 99 100 100 100 99 100 100 100 100 100 100 100 100 100 100 100 100 100 99 89 76 69 23 5
88 100 100 100 97 99 100 100 100 99 100 100 100 100 100 100 100 100 100 100 100 100 100 100 100 100 100 100 100 100 100 100 100 100 100 100 98 83 51 74 76 75 73 65

GFSNW_prec_cloud_084.txt.gz
Cloud_Cover
100 100 100 100 100 100 100 100 100 100 100 100 100 100 100 100 100 100 100 100 100 100 99 65 50 5 5 2 6 76 96 46 64 5 35 55 92 66 100 100 100 100 100 100
100 100 100 100 100 100 100 100 100 100 100 100 100 100 100 100 100 100 100 100 100 100 99 20 5 5 12 1 0 94 32 5 89 11 51 26 81 93 99 100 100 100 100 100
100 100 100 100 100 100 100 100 100 100 100 100 100 100 100 100 100 100 100 100 96 44 66 25 49 7 85 4 61 4 10 18 99 45 99 100 95 71 94 100 100 100 100 100
100 100 100 100 100 100 100 100 100 100 100 100 100 100 100 100 100 100 100 100 28 5 67 99 92 100 18 39 55 4 96 64 41 99 40 100 86 93 94 100 100 100 100 100
100 100 100 100 100 100 100 100 100 100 100 100 100 100 100 100 100 100 69 5 7 80 58 98 99 94 100 5 20 6 100 45 5 5 24 85 100 100 80 99 100 100 100 100
100 100 100 100 100 100 100 100 100 100 100 100 100 100 100 100 100 18 5 11 54 62 53 46 49 5 2 2 4 5 100 100 100 4 77 84 20 3 72 100 100 100 96 92
100 100 100 100 100 100 100 100 100 100 100 100 100 100 100 8 5 38 18 58 65 82 43 2 0 0 0 4 30 8 100 93 99 92 100 30 2 10 9 100 100 81 100 94
100 100 100 100 100 100 100 100 100 100 100 100 100 100 97 5 5 5 5 53 91 5 5 51 20 4 9 100 100 100 36 56 99 100 100 39 100 100 34 100 100 99 100 100
100 100 100 100 100 100 100 100 100 100 100 98 23 5 5 51 98 100 100 95 12 6 57 93 99 94 14 93 100 84 29 91 100 100 100 100 100 100 20 36 96 100 89 100
100 100 100 100 100 100 100 100 100 100 91 90 20 96 83 43 26 48 85 52 35 75 20 99 100 64 100 100 98 10 70 100 100 100 100 100 100 87 5 99 99 100 100 100
100 100 100 100 100 100 100 100 100 86 70 77 5 13 5 61 68 89 59 18 91 54 96 100 99 99 100 99 100 52 100 100 100 100 100 100 100 100 95 100 100 100 100 98
100 100 100 100 100 82 21 77 99 10 71 77 26 5 5 6 16 49 44 37 63 14 76 83 97 100 100 100 100 100 100 100 100 100 100 100 100 100 100 100 100 100 99 100
100 100 100 100 79 27 52 100 55 60 69 9 10 41 16 5 5 5 35 76 96 86 6 100 100 100 100 100 100 100 100 100 100 100 100 100 100 100 100 100 100 100 100 100
96 96 66 18 10 77 13 89 46 49 35 49 94 9 0 2 4 5 5 17 58 32 41 100 99 100 99 100 100 100 100 100 100 100 100 100 100 100 100 100 100 100 100 100
100 98 32 5 5 3 5 56 87 40 88 99 57 44 7 5 5 5 17 13 50 59 89 100 100 94 99 100 100 100 100 100 100 100 100 100 100 100 88 88 100 100 100 100
89 92 86 10 0 0 84 97 10 60 63 71 84 53 54 5 6 22 91 73 33 46 70 100 100 66 99 69 99 100 100 100 100 100 100 100 99 100 100 99 88 98 99 98
100 100 100 0 5 5 59 94 100 100 96 99 72 95 92 67 64 91 98 98 99 92 100 100 100 76 100 14 100 100 100 100 100 100 100 100 100 100 100 96 92 100 100 100
100 100 30 5 4 6 67 79 90 98 100 100 87 86 55 26 26 79 98 100 72 80 100 100 99 55 74 100 100 100 100 94 97 100 100 100 100 100 100 76 97 100 100 100
95 32 3 6 28 94 74 62 79 100 99 98 91 95 77 100 72 86 100 98 97 84 99 100 66 31 100 100 99 100 100 100 100 100 100 98 100 100 100 100 100 100 100 100
56 5 73 100 99 100 88 100 100 100 100 99 86 72 65 100 11 98 70 97 100 100 69 85 32 100 92 100 100 100 100 100 100 100 100 100 100 100 100 100 100 100 100 100
34 100 100 100 98 100 100 98 99 100 88 83 48 58 86 30 69 100 100 99 100 83 76 74 68 83 100 100 100 100 100 100 100 99 96 100 100 100 100 98 98 99 99 98
10 100 100 100 100 100 90 100 93 94 76 98 34 40 99 100 100 100 91 100 100 100 100 74 95 100 100 100 100 100 100 100 100 96 100 99 100 97 99 99 100 100 96 94
100 100 100 100 87 98 97 97 90 67 16 5 11 61 38 91 99 100 100 100 100 100 100 100 100 100 100 100 100 100 99 98 98 99 99 100 100 97 94 98 100 100 100 91
100 100 100 98 100 100 95 69 98 39 7 5 35 7 18 23 100 65 99 100 80 100 100 100 100 100 100 99 99 90 94 100 100 100 100 99 100 87 86 100 100 92 73 17
100 100 99 96 100 92 99 72 98 100 98 62 100 100 100 100 100 100 100 100 100 100 100 100 100 96 96 95 97 100 100 100 100 100 100 100 100 100 100 99 66 25 5 5
100 85 100 100 100 100 100 99 93 90 100 100 100 100 100 97 95 100 100 98 100 100 100 100 100 100 100 100 100 100 100 100 100 100 100 100 100 96 83 21 5 5 5 30
100 100 100 100 89 95 99 95 91 99 100 99 100 100 100 100 98 98 99 99 100 100 100 100 100 100 100 100 100 100 100 100 98 100 100 97 60 12 58 97 93 93 57 5

GFSNW_prec_cloud_087.txt.gz
Cloud_Cover
100 100 100 100 100 100 100 100 100 100 100 100 100 100 100 100 100 100 100 100 100 100 100 100 100 100 100 100 100 22 5 0 0 0 7 46 8 78 97 43 98 100 100 100
100 100 100 100 100 100 100 100 100 100 100 100 100 100 100 100 100 100 100 100 100 100 100 100 100 100 100 100 91 5 0 0 5 0 0 2 9 49 99 100 99 100 100 100
100 100 100 100 100 100 100 100 100 100 100 100 100 100 100 100 100 100 100 100 100 100 100 100 100 100 87 32 8 4 3 0 2 48 1 71 98 100 100 96 100 99 79 100
100 100 100 100 100 100 100 100 100 100 100 100 100 100 100 100 100 100 100 100 100 100 100 100 83 14 10 25 0 2 69 7 20 5 1 60 100 76 100 96 100 100 100 100
100 100 100 100 100 100 100 100 100 100 100 100 100 100 100 77 100 100 100 100 100 100 100 92 5 4 1 4 0 0 5 5 5 5 0 4 97 5 41 100 97 100 100 100
100 100 100 100 100 100 100 100 100 100 100 100 100 100 100 100 100 100 100 100 100 87 5 2 0 0 0 3 0 0 0 5 91 84 100 87 57 95 100 100 100 50 100 100
100 100 100 100 100 100 100 100 100 100 100 100 100 100 100 99 100 100 100 83 14 5 3 0 0 0 0 0 0 10 22 23 100 89 100 55 85 100 100 100 100 100 100 100
100 100 100 100 100 100 100 100 100 100 100 100 100 100 100 58 99 100 77 50 19 0 0 1 3 0 0 0 3 100 100 99 100 64 100 3 88 100 100 100 100 100 100 100
100 100 100 100 100 100 100 100 100 100 99 96 73 40 72 100 99 88 9 17 5 3 5 5 28 29 14 78 50 94 6 78 53 100 100 100 100 100 100 100 100 100 100 100
100 100 100 100 100 100 100 100 100 100 76 22 96 22 18 5 5 5 8 4 0 5 6 26 100 67 92 98 100 8 39 100 100 100 100 100 100 100 99 98 100 100 100 100
100 100 100 100 100 100 100 100 100 100 85 36 5 5 5 5 5 5 5 3 5 4 6 100 23 56 73 100 100 97 100 100 100 100 100 100 100 100 100 100 100 100 100 99
100 100 100 100 100 100 100 100 98 82 68 11 5 5 5 5 1 0 0 4 5 6 5 6 44 91 74 100 100 100 100 100 100 100 100 100 100 100 100 100 100 100 100 100
100 100 100 100 100 100 100 100 87 25 5 5 6 5 0 0 0 0 3 30 10 5 0 13 86 100 100 100 100 100 100 100 100 100 100 100 100 100 100 100 100 100 100 100
100 100 100 100 100 100 100 91 66 8 16 10 66 12 4 0 2 3 1 0 5 5 5 6 100 100 100 100 100 100 100 100 100 100 100 100 100 100 100 100 100 100 100 100
100 98 84 53 38 50 34 17 12 22 34 59 5 5 2 0 0 3 5 5 5 5 5 28 93 53 96 100 100 100 100 100 100 100 100 100 100 100 100 100 100 99 97 86
100 99 10 9 8 5 5 15 22 5 7 12 12 6 4 6 5 5 15 89 17 4 5 6 100 52 96 100 100 100 100 100 100 100 100 100 100 100 100 99 88 77 100 59
100 80 31 5 5 12 68 79 95 100 82 84 12 5 5 8 78 88 73 98 73 39 5 11 94 100 100 100 100 100 100 100 100 100 100 100 100 97 86 71 94 95 76 98
100 100 11 3 0 40 48 96 99 93 94 95 90 7 26 13 5 5 7 18 93 25 4 5 100 100 87 100 100 100 100 99 96 100 100 100 100 98 98 100 81 48 69 90
100 74 23 3 3 5 20 76 100 61 39 89 66 26 39 30 37 28 45 96 83 6 7 83 100 69 86 100 100 100 100 80 63 100 69 95 91 66 60 99 100 43 78 71
100 11 17 100 26 51 75 96 100 100 100 100 100 6 5 39 13 6 98 15 8 80 36 100 100 92 100 100 100 100 100 100 94 100 97 100 100 100 100 100 96 100 100 100
16 84 100 100 65 73 93 99 98 89 86 8 9 5 5 48 6 61 100 100 100 100 100 99 44 99 100 100 100 100 100 100 100 100 100 100 100 100 100 91 94 79 39 91
9 86 100 100 100 100 100 77 34 77 15 44 6 5 5 14 65 100 100 89 92 100 96 70 62 100 100 100 100 100 100 100 98 62 40 70 82 69 70 71 95 98 92 42
98 100 100 100 99 100 56 49 44 6 8 6 24 46 100 27 54 100 100 100 100 97 85 86 100 100 100 99 100 76 74 47 100 77 56 65 62 17 46 95 57 7 32 32
100 99 88 74 47 5 6 52 53 25 32 4 6 11 8 62 100 100 100 99 100 100 100 100 100 100 100 100 98 92 86 63 61 75 43 52 48 62 65 99 92 79 73 58
100 100 92 19 74 91 91 100 93 82 96 22 14 20 97 98 100 100 100 100 100 100 100 100 100 100 94 58 54 62 79 85 100 99 100 100 100 100 88 60 48 8 5 5
100 91 90 95 94 100 100 99 91 90 100 78 82 100 100 100 100 100 100 100 100 92 100 96 100 100 91 100 100 100 100 100 100 100 100 95 62 60 58 43 26 23 5 5
94 86 39 88 100 100 98 100 99 95 100 100 100 100 94 100 99 93 64 89 87 100 100 100 100 100 100 100 100 96 100 98 98 89 74 92 98 99 100 99 61 64 40 21

GFSNW_prec_cloud_090.txt.gz
Cloud_Cover
100 100 100 100 98 100 97 100 100 100 100 100 100 100 100 100 100 100 100 100 100 100 100 82 100 100 100 100 100 100 70 1 3 6 99 97 96 83 90 100 41 53 5 62
100 100 100 100 100 100 100 100 100 100 100 100 100 100 100 100 100 100 100 100 100 100 100 100 100 100 100 100 100 58 5 10 5 2 35 96 15 60 100 100 100 91 100 100
100 100 100 100 100 100 100 100 100 100 100 100 100 100 100 100 100 100 100 100 100 100 100 100 100 100 100 100 100 85 93 100 12 5 2 1 1 25 100 100 99 76 49 100
100 100 100 100 100 100 100 100 100 100 100 100 100 100 100 100 100 100 100 100 100 100 100 100 83 33 52 20 13 5 5 5 5 1 0 0 0 0 69 100 60 100 67 100
100 100 100 100 100 100 100 100 100 100 100 100 100 100 100 100 100 100 100 100 100 100 100 100 18 5 5 20 10 2 1 3 3 0 0 0 5 0 14 97 52 84 100 100
100 100 100 100 100 100 100 100 100 100 100 100 100 100 100 100 100 100 100 100 100 97 65 11 18 17 5 2 0 0 0 3 5 0 2 4 5 0 0 90 99 100 99 100
100 100 100 100 100 100 100 100 100 100 100 100 100 100 100 100 100 100 95 92 96 95 18 11 19 5 0 0 0 0 3 4 5 16 99 92 40 99 39 97 100 100 100 100
100 100 100 100 100 100 100 100 100 100 100 100 100 100 100 100 100 100 100 95 57 85 5 5 5 1 0 0 0 3 24 100 100 96 97 100 99 100 100 100 100 100 100 100
100 100 100 100 100 100 100 100 100 100 100 100 100 99 100 100 100 100 100 94 5 5 5 7 38 25 14 5 11 41 25 98 100 100 100 100 100 100 100 100 100 100 100 100
100 100 100 100 100 100 100 100 100 100 100 100 99 100 100 88 62 32 26 7 5 0 5 54 71 88 9 98 93 98 29 100 100 100 100 100 100 100 100 100 100 100 100 100
100 100 100 100 100 100 100 100 100 100 100 100 100 96 67 73 34 5 5 5 4 5 32 33 53 64 100 100 100 100 100 100 100 100 100 100 100 100 100 100 100 100 100 100
100 100 100 100 100 100 100 100 100 96 100 79 59 14 5 5 5 5 2 1 5 2 5 9 9 19 100 100 100 100 100 100 100 100 100 100 100 100 100 100 100 100 100 100
100 100 100 100 100 100 100 100 80 15 13 19 28 61 83 19 5 2 0 5 5 4 4 6 12 74 97 100 100 100 100 100 100 100 100 100 100 100 100 100 100 100 100 99
100 100 100 100 100 100 100 89 58 44 89 97 70 44 5 5 3 0 0 1 4 5 4 5 7 6 98 100 100 100 100 100 100 100 100 100 100 100 100 100 100 100 100 98
100 100 100 100 100 100 100 100 100 79 52 81 15 8 5 0 0 0 0 0 0 0 5 5 5 49 55 100 100 100 100 100 100 100 100 100 100 100 100 100 100 100 100 97
100 100 100 100 100 100 100 100 68 58 47 9 6 3 5 5 5 5 5 8 5 5 5 5 5 66 100 100 100 100 100 100 100 100 100 100 100 100 100 100 100 98 90 88
100 100 100 100 100 100 88 46 77 28 5 17 7 5 5 8 90 92 65 100 87 64 5 5 5 77 94 100 100 100 100 100 100 100 100 100 100 100 100 100 100 100 79 86
100 45 21 6 5 32 31 94 100 46 22 61 31 14 5 7 20 94 47 78 62 57 13 5 5 80 100 100 100 100 100 99 100 100 100 100 100 100 100 98 45 7 90 83
98 30 80 56 23 26 79 69 34 9 5 64 29 7 5 5 5 38 5 6 76 31 55 5 31 100 100 87 100 100 100 100 100 100 100 100 100 100 100 90 75 46 94 49
73 5 5 43 5 60 66 93 100 100 100 100 100 9 5 5 32 5 5 24 88 48 10 62 100 100 100 100 100 100 100 100 100 100 100 100 100 100 99 80 79 79 98 100
6 32 78 100 77 95 96 81 97 100 87 68 38 5 5 5 16 12 40 100 100 100 91 100 100 90 100 100 100 100 100 100 100 100 100 100 96 99 100 96 81 75 75 95
6 43 100 95 98 100 95 88 54 69 6 5 5 5 5 6 60 38 100 100 100 100 100 96 92 99 100 100 100 99 82 83 100 100 100 100 100 94 76 93 98 94 32 13
92 100 100 96 100 100 93 85 34 6 5 30 27 46 8 17 62 91 99 100 96 84 96 86 89 95 94 100 93 86 83 98 100 89 61 8 67 16 15 74 62 7 13 39
100 98 100 93 96 52 5 7 8 5 11 6 12 17 6 28 18 92 100 100 100 82 96 80 95 94 97 100 92 61 93 53 47 92 87 46 64 99 61 100 100 32 53 59
92 100 72 84 89 86 92 74 91 59 82 15 6 5 23 46 100 100 100 100 100 100 100 96 100 93 85 100 100 96 87 67 77 64 65 99 100 100 100 90 45 7 15 10
100 100 99 100 100 100 100 100 100 91 100 76 37 99 100 100 100 100 100 100 100 76 100 97 92 92 71 68 50 67 96 99 100 100 99 92 96 93 95 90 70 54 70 18
100 93 100 100 100 99 100 100 100 100 100 88 100 100 94 90 99 100 98 75 66 100 99 96 98 87 72 73 100 100 100 100 99 99 100 100 100 100 100 97 96 86 66 40

GFSNW_prec_cloud_093.txt.gz
Cloud_Cover
97 100 81 100 100 100 100 98 98 100 96 100 100 100 100 100 100 100 100 100 100 100 100 100 100 100 100 99 100 100 100 100 46 99 100 100 100 100 92 97 100 100 96 19
93 62 65 99 100 100 100 97 89 93 98 100 100 100 100 100 100 100 100 100 100 100 100 100 100 100 100 100 100 100 100 100 100 86 29 100 100 100 100 91 80 75 89 23
85 81 100 100 100 100 100 100 86 100 100 100 100 100 100 100 100 100 100 100 100 100 100 100 100 100 100 100 100 100 93 53 40 26 100 100 80 21 3 34 58 51 40 8
100 98 100 100 100 100 100 96 96 100 100 100 100 100 100 100 100 100 100 100 100 100 100 100 100 100 100 100 100 100 98 42 7 4 0 0 0 0 0 0 0 3 0 4
100 100 100 100 100 100 100 100 100 100 100 100 100 100 100 100 100 100 100 100 100 100 100 100 100 100 100 100 93 75 100 98 12 0 0 0 0 0 0 0 0 0 15 1
100 100 100 100 100 100 100 100 100 100 100 100 100 100 100 100 100 100 100 100 100 100 100 100 100 100 100 100 92 6 12 7 5 0 0 1 0 29 78 19 0 0 35 8
100 100 100 100 100 100 100 100 100 100 100 100 100 100 100 100 100 100 100 100 100 100 100 94 97 100 100 88 15 3 3 4 5 5 1 66 2 94 100 97 87 100 100 100
100 100 100 100 100 100 100 100 100 100 100 100 100 100 100 100 100 100 100 100 100 100 100 86 30 43 5 3 5 5 5 59 55 34 47 4 16 100 100 100 100 100 100 100
100 100 100 100 100 100 100 100 100 100 100 100 100 100 100 100 100 100 100 72 46 21 30 31 6 15 7 6 7 41 5 100 100 100 93 48 100 100 100 100 100 100 100 100
100 100 100 100 100 100 100 100 100 100 100 100 100 100 100 100 100 100 23 6 32 58 36 76 79 41 32 82 89 99 99 99 70 90 90 97 100 100 100 100 100 100 100 100
100 100 100 100 100 100 100 100 100 100 100 100 100 100 100 100 96 17 9 6 6 5 23 17 36 61 82 85 86 100 98 100 100 100 100 100 100 100 100 100 100 100 100 100
100 100 100 100 100 100 100 100 100 100 100 100 100 70 93 70 68 58 15 7 5 5 5 10 12 64 43 86 94 100 97 100 100 100 100 100 100 100 100 100 100 100 100 100
100 100 100 100 100 100 100 100 100 100 100 100 100 94 67 39 5 5 5 5 5 4 5 5 23 86 18 69 100 96 97 100 100 100 100 100 100 100 100 100 100 100 100 100
100 100 100 100 100 100 100 100 100 100 100 100 92 62 8 23 9 5 5 5 1 0 0 3 40 17 31 57 100 100 87 100 100 100 100 100 100 100 100 100 100 100 100 100
100 100 100 100 100 100 100 100 100 100 100 100 100 60 9 5 5 5 5 0 0 0 5 5 5 5 9 89 100 100 100 100 100 100 100 100 100 100 100 100 100 100 100 100
100 100 100 100 100 100 100 100 100 100 100 100 93 45 15 5 5 5 5 5 5 5 5 5 5 4 6 94 81 100 100 100 100 100 100 100 100 100 100 100 100 100 100 97
100 100 100 100 100 100 100 100 100 100 100 98 44 34 5 14 97 100 84 100 21 47 5 5 5 5 10 71 100 100 100 100 100 100 100 100 100 100 100 100 100 99 100 87
100 100 100 100 100 100 100 100 100 100 80 15 28 23 12 27 53 99 95 92 72 18 5 5 5 14 76 84 100 100 100 99 95 100 100 100 100 100 100 100 100 100 100 100
100 100 100 100 100 100 100 100 82 38 7 24 9 5 8 5 15 75 33 5 80 56 37 5 13 21 100 100 100 100 100 100 67 99 100 85 94 100 92 77 23 50 100 88
67 98 99 100 100 89 45 14 6 6 73 64 5 5 21 5 48 11 5 30 48 76 13 5 43 100 100 100 100 100 100 100 100 64 97 100 20 65 78 88 81 37 97 98
74 14 69 82 82 52 96 74 67 98 15 59 35 5 8 5 19 7 5 84 100 92 64 44 100 100 100 100 100 99 100 84 75 89 80 99 99 84 80 64 30 9 5 56
10 61 82 99 92 100 94 99 97 90 5 30 58 13 8 21 5 5 49 100 100 100 100 100 100 100 96 86 93 81 66 63 100 93 85 84 81 66 93 81 43 55 32 32
89 84 96 98 96 98 96 97 85 75 5 6 11 9 5 10 52 40 57 99 100 100 100 100 77 88 96 96 94 90 92 100 100 100 100 100 100 25 5 56 64 9 47 50
94 96 99 91 100 69 16 6 5 42 21 20 68 41 12 52 10 71 89 26 85 93 91 89 81 92 90 80 95 91 97 54 21 59 18 48 50 92 89 79 38 11 49 60
69 88 81 94 98 86 93 99 94 83 79 11 89 48 59 76 100 100 81 100 100 100 97 84 99 89 89 88 95 88 84 84 99 82 73 85 56 22 94 57 56 89 82 89
84 99 100 100 100 100 100 100 100 100 100 67 19 44 48 100 100 100 100 98 100 100 100 90 100 100 100 88 100 99 100 100 87 62 56 77 93 100 100 100 93 77 69 73
89 99 99 100 99 100 100 100 100 100 100 84 95 100 98 100 100 99 94 90 100 100 96 95 62 83 64 79 100 100 99 95 99 100 100 100 99 95 96 88 71 93 25 42

GFSNW_prec_cloud_096.txt.gz
Cloud_Cover
95 100 94 36 71 100 95 98 99 100 100 100 100 100 100 100 100 100 100 100 100 100 100 100 100 100 100 100 100 100 100 100 100 100 100 100 100 100 86 27 53 53 98 20
100 100 100 98 95 100 100 100 100 100 99 98 100 100 100 100 100 100 100 100 100 100 100 100 100 100 100 100 100 100 100 100 100 100 100 100 100 100 69 15 11 14 67 3
99 100 100 100 100 100 97 100 93 100 100 100 99 100 100 100 100 100 100 100 100 100 100 100 100 100 100 100 100 100 100 100 100 100 100 100 100 100 100 100 100 57 4 2
100 100 100 100 100 100 100 100 100 100 96 100 100 100 100 100 100 100 100 100 100 100 100 100 100 100 100 100 100 100 100 100 100 100 100 100 100 100 100 94 5 4 0 0
99 100 100 100 100 100 100 100 100 100 100 98 97 100 100 100 100 100 100 100 100 100 100 100 100 100 100 100 100 100 99 100 100 100 81 26 6 5 5 2 31 28 0 0
100 100 100 100 100 100 100 100 100 100 100 100 100 100 100 100 100 100 100 100 100 100 100 100 100 100 100 100 100 100 100 100 100 100 36 5 0 5 41 52 29 44 99 2
100 100 100 100 100 100 100 100 100 100 100 100 100 100 100 100 100 100 100 100 100 100 100 100 100 100 100 98 82 19 72 84 38 5 4 0 3 36 48 60 68 100 61 41
100 100 100 100 100 100 100 100 100 100 100 100 100 100 100 100 100 100 100 100 100 100 100 100 100 100 100 87 84 36 5 21 18 5 51 1 9 52 93 92 98 100 100 100
100 100 100 100 100 100 100 100 100 100 100 100 100 100 100 100 100 100 100 100 100 100 100 100 100 90 10 15 12 7 15 99 80 94 92 76 86 57 100 100 100 100 100 100
100 100 100 100 100 100 100 100 100 100 100 100 100 100 100 100 100 100 100 100 100 92 81 89 59 22 5 68 88 100 73 96 81 100 100 68 100 100 88 100 100 100 100 100
100 100 100 100 100 100 100 100 100 100 100 100 100 100 100 100 100 100 100 88 72 98 52 20 61 35 5 59 41 97 95 99 99 98 91 90 100 100 98 100 100 100 100 100
100 100 100 100 100 100 100 100 100 100 100 100 100 100 100 100 100 100 100 56 62 14 23 42 6 65 65 26 86 69 72 98 68 92 95 92 100 100 100 100 100 100 100 100
100 100 100 100 100 100 100 100 100 100 100 100 100 100 99 100 64 31 44 32 16 8 6 5 37 42 5 35 97 88 97 100 96 97 100 100 100 100 100 100 100 100 100 100
100 100 100 100 100 100 100 100 100 100 100 100 100 100 95 80 15 13 14 26 30 5 1 6 58 5 5 48 90 82 100 84 100 100 100 100 100 100 100 100 100 100 100 100
100 100 100 100 100 100 100 100 100 100 100 100 100 93 80 36 33 11 5 5 3 0 5 13 5 5 8 93 86 100 100 94 95 100 100 100 100 100 100 100 100 100 100 100
100 100 100 100 100 100 100 100 100 100 100 99 89 86 39 14 5 5 5 5 1 5 5 5 5 5 6 73 89 100 100 100 100 100 100 100 100 100 100 100 100 100 100 100
100 100 100 100 100 100 100 100 100 100 100 100 77 40 14 21 64 93 29 5 5 5 5 5 5 5 5 70 92 100 100 100 99 100 100 100 100 100 100 100 100 100 100 100
100 100 100 100 100 100 100 100 100 100 99 74 69 70 53 60 15 89 76 91 55 5 5 5 5 5 6 96 97 96 100 100 100 100 100 100 100 100 100 100 100 100 100 100
100 100 100 100 100 100 100 100 100 100 66 76 70 73 47 8 65 100 81 55 79 18 22 5 12 58 82 78 93 100 100 100 100 100 100 100 100 100 100 100 100 100 100 100
100 100 100 100 100 100 100 100 100 100 99 78 57 6 26 28 64 32 24 57 42 63 31 5 90 63 79 84 100 100 100 100 100 95 100 100 100 100 100 100 99 75 92 56
100 100 100 100 100 100 100 100 100 79 64 46 7 5 6 5 18 5 5 16 49 90 82 35 95 85 88 100 100 100 100 100 95 65 26 94 100 99 90 60 54 55 85 96
94 100 100 100 100 100 78 90 93 73 40 68 39 30 10 5 5 5 52 62 100 100 88 75 92 100 100 100 100 95 100 100 99 88 99 95 98 92 95 14 11 46 50 57
8 55 97 96 82 88 83 99 89 82 16 6 20 5 6 7 5 41 47 90 100 100 100 100 100 100 100 100 99 100 100 100 100 100 100 100 90 93 12 44 60 13 22 71
23 85 100 85 90 56 45 5 6 59 91 67 68 67 14 79 19 57 88 46 100 100 100 100 87 97 96 80 100 100 100 100 100 100 97 70 14 85 66 30 34 68 95 98
87 92 88 97 96 98 100 100 100 100 78 55 84 23 12 64 16 77 84 66 100 90 29 29 75 76 97 100 100 100 100 99 100 99 100 100 87 72 99 99 93 89 100 99
66 78 100 100 98 100 100 100 100 100 100 97 37 66 5 61 90 96 60 94 64 81 84 77 92 99 99 94 100 100 100 100 98 92 65 70 87 97 100 100 100 89 92 68
73 99 97 100 100 100 100 100 100 100 97 98 92 70 96 100 100 100 98 77 89 72 97 97 69 42 71 100 100 100 100 100 98 98 100 100 100 100 82 68 95 76 80 44

GFSNW_prec_cloud_099.txt.gz
Cloud_Cover
100 100 100 100 100 100 92 89 98 91 100 100 100 100 100 100 100 100 100 100 100 100 100 100 100 100 100 100 100 100 100 100 100 100 100 100 100 100 100 100 100 100 100 100
100 100 100 99 91 95 95 100 97 97 100 100 100 100 100 100 91 100 100 100 100 100 100 100 100 100 100 100 100 100 100 100 100 100 100 100 100 100 100 100 100 100 100 100
100 100 100 100 100 89 99 100 100 100 98 100 84 98 100 100 100 97 100 100 100 100 100 100 100 100 100 100 100 100 100 100 100 100 100 100 100 100 100 100 100 84 11 10
100 100 100 100 100 90 100 98 100 100 95 100 100 99 100 100 100 100 100 100 100 100 100 100 100 100 100 100 100 100 100 100 100 100 100 100 100 100 100 100 98 49 94 20
100 100 100 100 99 92 100 89 99 100 100 100 100 100 100 100 100 100 100 100 100 100 100 100 100 100 100 100 100 100 100 100 100 100 100 99 100 100 100 100 100 97 37 59
100 100 100 100 100 95 99 98 100 68 78 100 100 99 100 100 100 100 100 100 100 100 100 100 100 100 100 100 100 100 100 100 100 100 100 79 49 58 28 47 7 50 94 64
100 100 100 100 100 100 81 100 100 95 100 100 100 95 96 96 100 100 100 100 100 100 100 100 100 100 100 100 100 100 100 100 100 100 96 12 88 75 64 99 66 100 100 100
100 100 100 100 100 100 100 100 100 100 100 100 99 100 100 100 100 100 100 100 100 100 100 100 100 100 100 100 100 100 100 100 94 56 8 3 86 98 81 100 98 100 100 100
100 100 100 100 100 100 100 100 100 100 100 100 100 100 100 100 100 100 100 100 100 100 100 100 100 100 100 100 100 100 100 99 86 90 62 5 86 55 72 100 100 99 97 99
100 100 100 100 100 100 100 100 100 100 100 100 100 100 100 100 100 100 100 100 100 100 100 100 100 100 100 100 100 100 96 100 96 99 95 21 90 14 62 100 100 100 100 100
100 100 100 100 100 100 100 100 100 100 100 100 100 100 100 100 100 100 100 100 100 100 100 100 100 100 70 58 77 100 82 91 98 91 97 83 32 39 83 100 100 100 100 100
100 100 100 100 100 100 100 100 100 100 100 100 100 100 100 100 100 100 100 100 100 100 100 93 12 17 38 34 85 46 68 81 92 100 100 100 83 100 100 100 100 100 100 100
100 100 100 100 100 100 100 100 100 100 100 100 100 100 100 100 100 100 100 100 100 95 9 5 6 5 5 35 96 82 69 97 100 100 100 100 100 100 100 100 100 100 100 100
100 100 100 100 100 100 100 100 100 100 100 100 100 100 100 100 100 100 100 70 19 12 5 5 5 5 5 60 80 36 76 75 92 100 100 100 100 100 100 100 100 100 100 100
100 100 100 100 100 100 100 100 100 100 100 100 100 100 100 100 100 98 52 49 49 16 5 5 5 5 12 88 76 85 99 76 85 100 85 98 100 100 100 100 100 100 100 100
100 100 100 100 100 100 100 100 100 100 100 100 94 100 100 100 78 53 49 51 10 5 5 5 5 5 5 74 96 81 100 100 81 100 87 100 100 100 100 100 100 100 100 100
100 100 100 100 100 100 100 100 100 100 100 100 100 100 96 69 73 56 12 5 5 5 5 5 2 3 5 59 93 98 100 95 40 100 100 100 100 100 100 100 100 100 100 100
100 100 100 100 100 100 100 100 100 100 100 100 100 98 55 56 22 6 11 5 5 14 5 5 5 7 41 94 87 100 100 100 100 100 100 100 100 100 100 100 100 100 100 100
100 100 100 100 100 100 100 100 100 100 100 92 83 100 83 11 8 21 5 5 63 23 8 5 5 13 86 39 94 70 62 60 91 100 100 100 100 100 100 100 100 100 100 100
100 100 100 100 100 100 100 100 81 87 100 100 100 64 71 25 48 19 33 73 40 38 5 14 88 54 90 100 70 66 21 100 100 98 100 100 100 100 100 100 100 100 100 94
100 100 100 100 100 100 99 83 88 99 100 100 81 14 32 6 5 5 5 9 16 78 36 39 96 95 100 100 91 92 100 100 100 95 5 92 100 100 100 100 100 100 88 85
100 100 100 100 98 91 67 79 95 100 100 83 14 5 5 5 5 5 68 33 77 100 82 88 94 98 100 100 100 100 94 100 99 83 57 43 99 100 100 100 79 80 66 70
100 100 94 88 53 42 77 100 100 98 51 20 38 6 6 8 5 55 46 97 98 100 100 100 100 99 100 100 100 93 99 97 100 99 99 91 100 100 33 60 79 61 57 50
100 100 97 32 88 84 99 98 56 86 93 12 5 93 18 72 20 46 87 26 81 97 100 100 100 100 93 98 100 100 100 100 100 100 96 80 100 77 51 10 50 84 99 91
83 97 95 87 98 100 100 100 98 98 96 26 17 5 5 50 34 79 94 79 70 99 100 100 64 83 88 100 100 100 100 100 100 100 100 100 74 92 100 85 32 45 64 58
57 81 97 100 99 100 100 100 100 100 100 96 20 40 5 6 30 84 80 95 100 99 97 51 81 88 100 100 100 99 100 100 100 100 100 99 90 50 37 62 26 26 5 5
54 100 91 86 79 84 99 100 100 100 100 99 70 5 12 42 100 97 91 96 57 68 100 99 56 100 100 100 100 100 100 100 100 100 99 99 100 100 67 46 43 48 70 72

GFSNW_prec_cloud_102.txt.gz
Cloud_Cover
92 100 100 100 100 100 100 100 100 100 100 100 100 100 100 53 96 100 100 100 100 99 100 100 94 92 100 100 100 100 100 100 100 100 100 100 80 14 24 95 100 100 100 97
37 84 100 100 100 100 99 100 100 100 100 100 100 100 80 72 99 100 100 97 93 100 100 100 95 100 100 100 100 100 100 100 100 100 100 100 100 100 100 100 100 100 100 100
71 97 100 100 100 100 100 100 100 100 100 96 98 100 96 99 100 100 100 99 98 90 100 100 100 100 100 100 100 100 100 100 100 100 100 100 100 100 100 100 100 100 100 100
74 76 90 100 100 100 100 100 100 88 92 98 99 100 100 100 100 100 90 99 84 100 100 97 100 100 100 100 100 100 100 100 100 100 100 100 100 100 100 100 100 100 100 100
100 90 47 100 100 100 100 100 96 100 92 100 100 96 96 100 100 100 100 100 100 100 100 100 100 100 100 100 100 100 100 100 100 100 100 100 100 100 100 100 100 47 98 100
100 100 100 100 100 100 100 100 100 100 78 87 100 95 100 100 100 100 100 87 100 100 100 100 100 100 100 100 100 100 100 100 100 100 100 100 100 100 100 86 70 57 35 76
100 100 100 100 100 100 100 100 100 100 99 97 99 100 100 100 100 100 100 100 100 100 100 100 100 100 100 100 100 100 100 100 100 100 100 77 93 87 88 80 44 76 86 77
100 100 100 100 100 100 100 100 100 100 100 100 100 97 100 100 100 100 100 100 100 100 100 100 100 100 100 100 100 100 100 100 100 100 100 37 99 56 48 79 81 99 71 74
100 100 100 100 100 100 100 100 100 100 100 100 100 100 100 100 100 100 99 100 100 100 100 100 100 100 100 100 100 100 100 100 100 100 100 97 100 49 90 100 100 100 93 84
100 100 100 100 100 100 100 100 100 100 100 97 100 100 100 100 100 100 100 100 100 100 100 100 100 100 100 100 100 100 100 100 99 100 100 94 96 55 30 100 100 100 100 100
65 100 100 100 100 100 100 100 100 100 100 100 100 100 100 100 100 100 100 100 100 100 100 100 100 100 100 100 100 100 100 100 100 100 100 100 38 83 84 100 100 99 100 100
100 100 100 100 100 100 100 100 100 100 100 100 100 100 100 100 100 100 100 100 100 100 100 100 100 100 100 100 100 59 95 97 97 100 100 100 99 100 100 100 100 100 100 100
100 100 100 100 100 100 100 100 100 100 100 100 100 100 100 100 100 100 100 100 100 100 100 100 100 100 100 98 97 99 100 69 99 95 100 100 97 100 100 100 100 100 100 100
100 100 100 100 100 100 100 100 100 100 100 100 100 100 100 100 100 100 100 100 100 100 100 100 100 84 46 94 62 92 91 78 100 100 100 98 99 100 100 100 100 100 100 100
100 100 100 100 100 100 100 100 100 100 100 100 100 100 100 100 100 100 100 100 99 68 71 23 5 7 77 93 77 85 61 93 100 100 94 99 99 100 100 100 100 100 100 100
100 100 100 100 100 100 100 100 100 100 100 100 100 100 100 100 100 100 70 43 41 35 6 5 5 5 76 89 100 100 94 78 72 92 98 73 100 100 100 100 100 100 100 100
100 100 100 100 100 100 100 100 100 100 100 100 100 100 100 88 83 67 61 27 20 5 5 6 5 5 71 82 95 100 84 96 100 100 95 100 100 100 100 100 100 100 100 100
100 100 100 100 100 100 100 100 100 100 100 100 100 97 57 40 55 63 21 10 5 6 14 5 5 5 34 32 53 100 100 80 98 100 100 100 100 100 100 100 100 100 100 100
100 100 100 100 100 100 100 100 100 100 100 100 100 100 100 53 46 25 35 20 47 12 88 65 16 72 23 62 75 100 100 100 99 95 100 100 100 100 100 100 100 100 100 100
100 100 100 100 100 100 100 100 100 100 100 100 100 100 100 74 40 47 50 27 91 98 79 33 90 97 59 89 100 100 91 99 100 100 100 100 100 100 100 100 100 100 100 100
100 100 100 100 100 100 100 100 100 100 100 100 100 78 54 23 76 86 28 84 59 76 80 90 85 75 100 83 100 95 99 100 100 100 100 100 100 100 100 100 100 100 92 90
100 100 100 100 100 100 94 100 100 100 100 100 77 77 91 12 5 56 9 65 62 100 46 93 98 98 97 100 100 100 100 100 92 100 100 99 100 100 100 100 100 100 79 47
100 100 99 100 70 98 100 100 100 100 91 60 45 34 35 11 32 64 63 93 100 68 100 99 94 100 100 100 100 96 100 100 100 100 100 92 95 100 100 100 98 80 88 98
100 100 100 92 87 100 100 100 100 90 97 29 16 88 60 78 38 41 98 79 77 98 100 100 100 100 100 100 99 92 96 100 100 100 100 100 95 100 100 100 85 45 56 54
100 100 100 100 100 100 100 98 89 100 91 22 11 8 46 66 77 93 94 85 100 98 93 100 100 100 100 100 100 100 100 100 100 100 95 89 87 79 99 94 68 14 5 35
100 100 100 95 77 98 92 100 95 99 67 7 5 38 5 68 71 93 96 99 74 87 100 85 100 100 100 100 100 100 100 100 100 100 100 89 71 14 5 5 7 52 98 90
72 95 100 100 80 99 98 98 100 99 95 65 51 5 77 81 72 82 98 90 98 100 100 100 100 100 100 100 100 100 100 100 100 100 98 87 86 27 42 80 99 83 82 70

GFSNW_prec_cloud_105.txt.gz
Cloud_Cover
100 100 9 14 100 100 100 100 100 100 100 100 100 85 100 100 100 68 78 73 93 100 100 100 100 100 100 62 43 51 100 100 100 98 100 100 100 100 100 100 100 100 100 100
100 100 100 15 100 100 100 100 100 100 100 100 100 92 100 92 95 100 100 99 96 100 100 100 100 100 19 7 47 100 100 100 100 100 100 100 100 100 100 100 100 100 100 100
100 100 100 48 100 100 100 100 100 100 100 100 98 96 100 100 100 100 95 73 97 100 100 100 100 97 34 83 100 100 100 100 100 100 100 100 100 100 100 100 100 100 100 100
100 100 100 100 96 100 100 100 96 39 94 100 85 100 99 100 100 99 98 89 100 100 100 100 100 100 100 100 100 100 100 100 100 100 100 95 98 100 98 100 100 95 100 100
100 100 100 100 100 100 100 100 100 100 100 99 100 100 95 100 100 100 100 71 100 100 100 100 100 100 100 100 100 100 100 100 100 100 100 100 100 100 100 100 100 100 100 100
100 100 100 100 100 100 96 99 100 98 100 100 100 91 97 100 100 72 96 100 100 100 100 83 100 100 100 100 100 100 100 100 96 79 100 100 100 100 100 100 100 87 100 76
100 100 93 12 76 100 100 100 100 100 100 100 97 100 100 100 100 97 98 100 100 100 94 100 100 100 100 100 100 100 100 100 87 100 100 99 100 100 100 100 100 100 100 98
100 100 100 68 93 100 100 100 100 100 100 100 100 100 100 100 96 100 100 100 100 100 100 100 100 100 100 100 100 100 100 100 100 100 100 95 96 100 90 90 79 77 99 80
100 100 100 100 100 100 100 100 100 100 100 100 100 100 100 100 100 96 100 100 100 100 100 100 100 100 100 100 100 100 100 100 100 100 100 100 100 91 90 81 36 99 93 74
100 100 98 100 100 100 100 100 100 100 100 100 100 100 100 100 100 100 100 100 100 100 100 100 100 100 100 100 100 100 100 100 100 100 100 87 97 74 30 89 100 100 100 100
100 35 14 92 100 100 100 100 100 100 100 100 100 100 100 100 100 100 100 100 100 100 100 100 100 100 100 100 100 100 100 100 100 100 94 96 73 61 80 97 98 100 100 100
5 19 94 100 100 100 100 100 100 100 100 100 100 100 100 100 100 100 100 100 100 100 100 100 100 100 100 100 100 100 100 100 99 70 99 99 88 100 100 100 100 99 100 100
69 100 100 100 100 100 100 100 100 100 100 100 100 100 100 100 100 100 100 100 100 100 100 100 100 100 100 100 100 100 100 52 74 69 99 100 100 100 100 100 100 100 100 100
98 100 100 100 100 100 100 100 100 100 100 100 100 100 100 100 100 100 100 100 100 100 100 100 100 100 100 100 100 98 92 90 87 97 100 99 100 100 100 100 100 100 100 100
100 100 100 100 100 100 100 100 100 100 100 100 100 100 100 100 100 100 100 100 100 100 100 100 100 100 100 96 82 94 89 87 100 100 66 93 98 100 100 100 100 100 100 100
100 100 100 100 100 100 100 100 100 100 100 100 100 100 100 100 100 100 100 100 100 100 100 100 91 60 54 84 100 61 68 100 100 96 100 75 100 100 100 100 100 100 100 100
100 100 100 100 100 100 100 100 100 100 100 100 100 100 100 100 100 100 100 100 100 86 44 21 23 7 41 53 100 97 100 100 100 100 82 100 89 100 100 100 100 100 100 100
100 100 100 100 100 100 100 100 100 100 100 100 100 100 100 100 100 100 100 97 74 35 14 5 5 6 7 78 62 95 100 100 100 100 94 62 89 100 100 100 100 100 100 100
100 100 100 100 100 100 100 100 100 100 100 100 100 100 100 100 100 98 34 37 33 6 67 63 3 96 87 75 96 100 100 100 100 100 100 98 100 100 100 100 100 100 100 100
100 100 100 100 100 100 100 100 100 100 100 100 100 100 100 96 89 94 61 26 94 99 80 27 67 95 60 30 84 100 100 100 100 100 100 100 100 100 100 100 100 100 100 100
100 100 100 100 100 100 100 100 100 100 100 100 100 100 76 72 82 82 79 98 92 100 77 96 100 93 89 98 100 100 100 100 100 100 100 100 100 100 100 100 100 100 100 100
100 100 100 100 100 100 100 97 100 100 100 99 100 94 96 81 92 93 21 100 68 99 72 94 87 90 100 100 100 100 100 100 100 100 100 100 100 100 100 100 100 100 100 100
100 100 100 100 100 100 100 100 100 100 99 86 89 65 81 27 94 43 40 86 100 70 94 94 90 100 100 100 100 100 100 100 100 100 100 100 100 100 100 100 100 100 95 93
100 98 100 100 100 100 100 100 100 76 96 99 99 79 78 34 58 72 100 95 69 100 89 100 100 100 100 100 100 100 100 100 94 98 100 99 100 100 100 100 100 93 92 55
100 100 100 100 100 98 100 99 93 97 100 88 74 17 55 84 96 96 76 88 94 96 99 100 100 100 100 100 100 100 100 100 100 100 100 100 100 100 100 100 100 77 5 9
100 100 100 100 85 99 100 89 100 100 84 36 21 46 64 65 82 88 98 99 94 94 100 100 100 100 100 100 100 100 100 100 100 100 100 100 100 97 98 96 17 15 52 32
100 100 100 100 90 99 100 69 97 33 61 39 92 57 97 80 78 94 99 100 99 100 100 100 100 100 100 100 100 100 100 100 100 100 100 99 93 77 2 5 50 76 100 100

GFSNW_prec_cloud_108.txt.gz
Cloud_Cover
5 5 5 98 100 100 100 100 100 100 100 100 100 100 100 100 100 100 100 100 100 100 99 100 100 82 100 100 100 100 100 98 76 97 100 94 14 94 100 100 100 100 100 100
5 5 94 100 100 100 98 100 100 100 100 100 100 97 100 100 100 100 100 100 100 100 100 100 10 100 52 100 100 100 100 100 98 74 85 100 41 88 100 100 100 100 100 100
0 4 58 100 100 100 85 100 100 100 100 100 100 98 100 100 91 92 100 100 100 99 99 100 56 83 100 100 100 100 100 100 96 100 97 90 100 96 100 100 100 100 100 100
0 1 100 100 100 100 98 100 100 37 94 100 94 100 60 100 100 86 89 100 100 96 97 95 100 100 100 100 100 100 100 100 100 100 92 80 100 100 100 96 100 100 100 100
0 4 100 100 100 100 100 100 100 100 88 86 100 100 53 100 100 100 100 99 100 100 80 83 100 100 100 100 100 98 100 100 100 100 100 85 23 68 99 100 100 100 100 100
0 14 100 100 100 100 100 100 95 100 29 100 95 27 34 86 100 100 100 100 99 100 73 100 100 100 100 100 99 99 100 100 100 100 96 100 100 99 100 100 100 100 100 97
62 100 100 100 100 100 100 90 98 100 35 95 54 93 100 100 100 100 100 98 100 100 88 92 100 100 98 99 100 100 100 100 100 98 100 100 98 100 100 100 100 100 100 63
100 100 100 100 100 100 88 97 100 100 85 91 99 100 100 100 100 100 100 42 94 68 100 100 100 100 100 100 100 100 100 100 100 99 100 93 100 100 100 100 100 100 79 94
100 100 100 100 100 100 96 100 100 100 100 100 100 100 100 100 100 100 96 97 99 100 100 100 100 99 100 100 100 100 100 100 97 100 100 100 100 100 100 92 97 98 87 74
100 100 100 100 96 77 100 100 100 100 100 100 100 100 100 100 100 100 100 100 100 100 100 100 100 100 100 100 100 100 100 100 100 100 99 98 100 92 67 55 71 100 100 100
100 100 100 96 48 97 100 100 100 100 100 100 100 100 100 100 98 94 97 100 100 100 100 100 100 100 100 100 100 100 100 100 100 100 100 98 58 74 30 91 100 99 100 100
100 100 100 100 97 100 100 100 100 100 100 100 100 100 100 100 100 100 100 100 100 100 100 100 100 100 100 100 100 100 100 100 100 100 97 99 98 95 98 94 92 100 100 100
100 100 96 98 100 100 100 100 100 100 100 100 100 100 100 100 100 100 100 100 100 100 100 100 100 100 100 100 100 100 100 100 100 100 100 100 100 100 100 100 100 100 100 100
12 5 5 87 100 100 100 100 100 100 100 100 100 100 100 100 100 100 100 100 100 100 100 100 100 100 100 100 100 100 100 100 100 91 92 100 100 100 100 100 100 100 100 91
5 82 98 100 100 100 100 100 100 100 100 100 100 100 100 100 100 100 100 100 100 100 100 100 100 100 100 100 100 100 100 100 77 87 17 71 96 100 100 100 100 100 100 100
100 100 100 100 100 100 100 100 100 100 100 100 100 100 100 100 100 100 100 100 100 100 100 100 100 100 100 100 100 100 100 69 46 40 91 58 100 100 100 100 95 100 100 100
99 93 99 100 100 100 100 100 100 100 100 100 100 100 100 100 100 100 100 100 100 100 100 100 100 100 100 100 97 66 81 24 88 67 45 100 100 100 100 92 100 100 100 100
98 100 100 100 100 100 100 100 100 100 100 100 100 100 100 100 100 100 100 100 100 100 100 100 100 69 43 28 36 37 20 99 100 84 94 48 100 84 96 100 100 100 100 100
100 100 100 100 100 100 100 100 100 100 100 100 100 100 100 100 100 100 100 100 100 100 100 92 5 6 5 20 53 74 100 99 100 100 100 100 86 92 98 100 100 100 100 100
100 100 100 100 100 100 100 100 100 100 100 100 100 100 100 100 100 100 100 99 76 63 24 5 5 42 11 44 5 75 100 100 100 100 89 100 94 83 97 100 100 100 100 100
100 100 100 100 100 100 100 100 100 100 100 100 100 100 100 100 100 96 97 28 15 64 24 35 66 48 54 92 73 89 100 100 100 95 98 95 98 100 100 100 100 100 100 100
100 100 100 100 100 100 100 100 100 100 100 100 100 100 100 100 100 52 43 60 18 80 25 42 63 76 81 96 98 100 100 100 100 100 100 93 99 100 100 100 100 100 100 100
100 100 100 100 100 97 100 100 100 100 100 100 100 100 92 67 51 15 28 12 78 33 80 89 96 95 99 100 100 100 100 100 100 100 100 100 100 100 100 100 100 100 100 100
96 100 100 100 100 100 100 100 100 100 100 100 97 24 89 14 23 25 20 30 78 100 92 100 88 100 100 100 100 100 97 100 100 100 100 100 100 100 100 100 100 100 100 100
100 100 100 100 100 100 100 100 100 100 100 97 56 22 59 71 84 89 45 81 94 88 100 100 100 100 100 100 100 97 100 98 100 100 100 100 100 100 100 100 100 100 84 30
100 100 100 100 100 100 100 100 100 98 56 34 5 12 7 47 62 87 88 89 88 100 100 100 100 100 100 99 99 100 98 100 99 100 100 100 100 100 100 100 100 100 100 26
100 100 100 100 100 100 100 100 97 31 13 74 30 34 62 20 81 91 76 88 99 100 100 100 100 100 100 100 100 100 97 99 100 100 100 100 94 100 88 35 88 93 24 5

GFSNW_prec_cloud_111.txt.gz
Cloud_Cover
100 46 75 56 5 56 100 100 100 69 100 100 100 100 100 97 69 44 48 91 58 12 51 90 100 100 98 62 88 100 100 97 100 96 100 100 100 50 99 100 95 100 100 100
100 100 100 100 88 89 100 100 100 100 100 100 100 98 100 94 26 64 100 100 26 38 76 91 98 100 95 31 16 100 98 100 100 100 96 100 97 61 76 81 100 100 100 97
15 72 98 64 99 66 100 100 100 100 100 100 93 46 60 100 50 76 88 90 100 100 99 73 96 100 99 46 11 49 100 94 64 100 100 100 78 100 48 100 100 97 100 71
58 16 28 43 21 100 100 100 100 99 92 100 100 97 64 73 100 79 93 73 46 43 50 19 5 96 68 31 20 100 100 100 100 100 100 100 100 97 100 100 100 100 100 50
5 3 0 1 5 97 100 100 100 99 15 12 100 99 100 53 77 100 96 85 96 6 5 26 82 93 100 38 42 100 100 100 100 100 100 79 98 89 100 100 100 100 46 96
5 5 0 2 7 100 100 100 100 100 81 77 100 100 5 20 23 16 77 14 57 38 31 100 94 56 32 92 90 100 100 100 100 100 100 100 48 100 100 100 100 100 100 60
5 4 0 3 55 100 100 100 100 100 100 100 100 100 5 5 100 66 80 90 35 43 44 100 100 93 93 97 100 100 100 100 100 100 100 100 65 100 100 100 100 100 100 100
5 2 1 7 80 100 100 100 100 100 100 100 100 100 8 17 100 100 82 97 32 100 100 100 100 100 97 93 100 100 100 100 100 100 100 56 100 100 100 98 100 100 100 100
5 5 5 100 100 100 100 100 100 100 100 99 100 100 86 91 100 100 100 99 96 100 100 100 96 64 81 100 100 100 100 100 100 100 100 42 100 100 91 100 100 100 100 65
8 14 98 100 100 100 100 100 100 100 100 100 100 92 100 98 100 100 100 100 97 88 14 100 100 100 99 100 100 100 100 100 100 100 98 100 100 100 100 100 100 100 99 88
38 92 100 100 100 100 100 100 100 100 100 100 100 64 100 100 100 100 96 28 29 86 100 100 100 100 96 100 100 100 100 100 100 100 100 100 100 100 100 100 100 86 100 88
100 100 100 100 100 100 83 98 100 100 100 100 100 99 100 100 100 100 100 84 98 100 100 100 100 100 100 100 100 100 100 100 100 100 100 100 100 100 100 100 28 96 100 100
100 100 100 100 91 27 97 100 100 100 100 100 100 100 100 100 100 95 99 100 100 100 100 100 100 100 100 100 100 100 100 100 100 100 100 100 100 100 100 100 100 100 100 100
100 100 100 97 99 100 100 100 100 100 100 100 100 100 100 100 100 100 100 100 100 100 100 100 100 100 98 100 100 100 100 100 100 100 100 100 100 100 100 100 100 98 95 92
100 100 100 100 68 99 100 100 100 100 99 100 100 100 100 100 100 100 100 100 100 100 100 99 100 100 100 100 100 100 100 100 100 100 100 100 54 100 100 100 100 94 70 97
92 36 62 12 100 100 100 100 100 100 100 100 100 100 100 100 100 100 100 100 100 100 100 100 100 100 100 100 100 100 100 100 100 100 100 66 82 100 100 99 97 90 72 100
94 92 100 100 100 100 100 97 98 100 100 100 100 100 100 100 100 100 100 100 100 100 100 100 100 100 100 100 100 100 100 100 100 100 99 95 100 100 100 100 92 90 99 88
95 100 100 100 100 100 100 100 100 100 100 100 100 100 100 100 100 100 100 100 100 100 100 100 100 100 100 100 100 100 100 100 100 100 30 29 98 100 100 98 95 93 100 100
100 100 100 100 100 100 100 100 100 100 100 100 100 100 100 100 100 100 100 100 100 100 100 100 100 100 100 100 100 100 91 56 100 99 83 88 78 100 88 86 93 99 100 100
100 100 100 100 100 100 100 100 100 100 100 100 100 100 100 100 100 100 100 100 100 100 100 100 100 100 100 98 17 5 23 100 100 90 92 91 95 63 87 62 88 100 100 100
100 100 99 100 100 100 100 100 100 99 100 100 100 100 100 100 100 100 100 100 100 100 100 100 96 75 26 5 5 5 83 100 100 100 78 59 88 87 60 98 100 100 100 100
98 100 100 100 95 95 100 100 100 100 100 100 100 100 100 100 100 100 100 100 92 58 18 9 30 98 87 61 74 85 100 100 100 100 98 88 96 100 100 100 100 100 100 100
100 100 100 100 100 100 100 100 100 100 100 100 100 100 100 100 100 100 85 62 8 9 5 10 76 100 97 100 100 100 100 100 100 98 100 100 91 100 100 100 100 100 100 100
95 99 100 100 100 100 100 100 100 100 100 100 100 100 100 100 86 46 31 6 24 10 75 86 83 100 100 100 100 100 100 92 93 93 100 100 100 100 100 100 100 100 100 100
100 100 100 100 100 100 100 100 100 100 100 100 100 100 84 72 44 22 33 23 33 17 95 97 94 100 100 100 100 100 100 88 78 100 100 100 100 100 100 100 100 100 100 100
100 100 100 100 100 100 100 100 100 90 75 100 100 100 98 50 7 5 6 93 93 98 100 100 100 100 100 100 100 100 95 98 94 100 100 100 100 100 100 100 100 100 100 100
100 100 100 100 100 100 100 100 100 100 100 100 100 97 56 20 24 81 6 63 97 100 100 100 100 100 100 100 100 100 95 99 85 100 100 100 100 100 100 100 100 100 100 100

GFSNW_prec_cloud_117.txt.gz
Cloud_Cover
100 100 100 100 100 100 100 100 100 100 100 100 100 100 100 100 100 100 100 100 100 100 100 100 90 23 11 38 63 56 31 89 44 82 99 63 90 88 100 82 66 79 54 18
100 100 71 100 100 100 100 100 100 100 100 100 100 100 100 100 100 100 96 88 94 98 77 48 96 100 100 27 33 5 20 96 52 22 10 31 99 95 100 100 46 17 58 19
74 17 26 96 97 100 100 100 100 100 100 100 100 100 100 100 99 100 100 95 89 31 6 60 32 100 100 100 100 37 86 97 99 83 47 5 30 92 100 100 75 99 29 28
98 9 6 99 100 94 100 100 100 100 100 100 100 100 100 100 100 93 100 100 98 83 98 100 87 88 100 100 100 100 100 100 100 100 72 26 58 100 100 100 100 100 55 19
93 8 97 14 100 100 100 100 100 100 90 100 100 100 100 100 100 100 100 100 100 100 100 100 100 100 100 100 100 100 100 100 100 100 69 90 76 100 97 100 67 100 100 94
100 75 99 89 7 98 100 100 99 100 42 83 99 100 97 100 100 100 100 100 100 100 100 100 100 100 100 98 91 100 100 100 100 79 43 98 100 8 86 100 100 95 96 36
100 100 100 100 79 11 100 94 37 100 35 93 78 100 100 100 100 100 100 87 100 100 100 100 100 100 69 24 95 88 94 98 100 97 88 97 3 39 100 100 100 88 26 33
100 100 100 100 5 65 41 100 100 100 39 45 100 54 36 83 77 10 54 23 8 49 88 100 100 100 100 80 41 78 96 99 98 100 90 14 6 74 87 100 77 93 65 97
100 100 100 63 4 3 93 66 57 100 98 35 100 94 100 91 70 98 8 5 12 75 100 100 100 100 100 99 100 99 87 100 100 98 98 75 28 100 100 100 44 98 66 100
100 100 85 5 5 3 57 11 6 100 100 56 100 81 49 100 100 92 26 100 100 100 100 100 100 100 100 87 81 87 98 100 69 100 91 6 98 100 96 62 100 82 89 86
5 5 5 5 2 4 27 17 81 92 100 93 95 90 100 100 99 83 85 89 100 100 100 100 100 97 48 60 73 100 78 98 69 97 98 79 100 100 94 100 100 98 93 100
33 5 5 5 4 5 30 100 96 99 100 100 50 100 100 100 100 100 27 100 100 100 100 100 100 100 94 81 72 49 51 12 88 81 100 100 100 100 100 100 100 84 100 100
13 0 1 4 3 43 88 100 100 100 100 100 100 100 100 100 100 100 100 100 100 100 100 100 100 100 52 21 17 99 77 99 78 97 100 100 100 100 100 100 100 100 100 98
100 74 100 96 100 100 100 100 100 100 100 100 100 100 100 100 100 100 100 100 100 100 100 95 82 76 93 63 100 100 100 100 100 100 100 100 100 100 100 100 100 100 100 100
100 99 100 100 100 100 100 100 100 100 100 100 100 100 100 100 100 100 100 100 100 81 31 39 99 95 72 100 100 100 100 100 84 99 85 100 100 100 100 100 100 100 100 86
100 100 100 100 100 100 100 100 100 100 100 100 100 100 100 100 100 100 100 100 100 99 92 100 100 99 100 100 100 100 100 100 100 100 100 100 100 100 100 100 100 99 74 77
100 100 100 100 100 100 100 100 100 100 100 100 100 100 100 100 100 100 100 100 100 100 98 100 100 100 100 100 100 100 100 100 100 100 100 100 100 100 100 100 100 73 80 16
100 100 100 100 100 100 100 97 100 100 100 100 85 93 82 77 100 100 100 100 100 100 100 100 100 100 100 100 100 100 100 100 100 100 100 100 100 100 100 90 86 86 95 82
100 100 100 100 100 100 100 100 100 100 100 98 75 18 67 26 93 100 100 100 100 98 100 100 100 100 100 100 100 100 100 100 100 100 100 100 100 100 100 100 87 82 99 92
100 100 100 100 100 100 100 100 100 100 100 95 87 100 100 100 100 100 100 100 100 100 100 100 100 100 100 100 90 100 100 100 100 100 100 100 100 100 95 70 68 74 80 88
100 89 100 100 100 100 100 100 100 95 92 96 100 100 100 80 96 100 100 100 100 100 100 100 80 94 100 100 100 100 100 100 100 100 100 100 100 90 44 68 69 92 91 100
85 100 100 100 100 100 100 88 98 100 100 100 100 100 100 100 100 100 100 100 100 100 100 100 100 100 100 100 100 100 100 97 86 45 48 70 92 93 88 94 93 100 88 100
100 100 100 100 70 68 93 100 100 100 100 100 100 99 100 96 95 100 100 100 100 100 100 81 67 61 54 30 70 63 11 19 25 51 75 74 91 92 100 100 100 100 100 100
99 99 36 83 100 100 100 100 99 96 98 97 58 99 100 98 100 100 100 100 100 96 78 47 62 49 99 100 100 97 11 39 14 27 36 90 100 100 100 100 100 100 100 100
100 100 100 100 100 100 100 100 98 95 100 100 92 95 92 90 100 100 99 59 32 7 11 73 93 100 100 100 100 94 5 6 37 28 70 98 99 100 100 100 100 100 100 100
100 100 100 100 100 100 100 100 100 100 100 100 94 98 99 100 100 68 42 30 5 18 93 99 100 100 100 100 100 92 94 98 57 98 88 98 100 100 100 100 100 100 100 100
100 100 100 100 100 100 100 100 100 100 100 100 100 100 100 68 46 54 63 72 90 100 100 100 100 100 100 98 99 99 52 78 86 77 100 100 100 100 100 100 100 100 100 100

GFSNW_prec_cloud_120.txt.gz
Cloud_Cover
100 100 100 100 100 100 100 100 100 100 100 100 100 100 100 100 100 100 100 100 100 100 100 100 100 75 72 100 100 100 100 100 100 53 6 33 9 97 100 100 84 70 62 18
100 100 100 100 100 100 100 100 100 100 100 100 100 100 100 100 100 100 100 100 100 100 100 100 100 100 95 100 97 58 99 100 100 100 98 89 100 97 90 71 100 72 100 8
100 100 100 100 100 89 100 100 100 100 100 100 100 100 100 100 100 100 100 100 100 100 100 100 39 84 100 99 90 76 97 85 62 11 51 63 64 32 40 92 100 92 100 96
100 100 100 99 82 99 100 100 100 100 100 100 100 100 100 100 100 99 100 100 100 100 100 100 99 99 100 98 95 100 100 100 100 92 92 100 79 46 100 100 100 100 99 100
100 100 97 100 100 99 100 100 100 100 100 100 100 100 100 99 40 100 83 95 100 100 100 100 100 100 94 76 58 77 100 100 100 74 77 100 100 100 60 61 100 100 100 58
100 100 100 80 100 84 100 100 97 16 33 40 100 100 100 100 100 100 100 100 100 100 100 100 100 100 100 97 98 94 100 100 100 99 100 100 88 56 62 78 30 3 48 93
100 100 100 51 97 78 100 100 100 87 80 88 70 88 89 100 100 100 100 100 100 100 100 100 100 100 100 100 100 100 100 100 100 94 75 96 8 25 91 5 5 35 44 98
100 100 16 100 100 100 100 100 100 100 99 93 85 54 18 89 86 95 100 100 100 100 100 100 100 100 100 100 100 100 100 100 100 92 87 13 5 2 4 1 2 5 23 95
100 99 100 100 100 100 100 100 100 100 93 51 91 97 70 85 43 8 5 93 98 100 100 100 100 100 100 100 100 100 100 100 100 99 97 63 1 0 0 0 5 7 99 74
6 17 100 100 100 100 98 99 100 100 100 29 50 92 93 87 100 22 46 81 63 65 96 100 100 96 33 93 100 100 100 100 100 97 99 9 1 5 4 28 27 90 60 94
58 84 100 100 100 100 99 100 100 82 98 89 5 5 24 92 100 79 62 97 100 100 100 88 73 100 80 98 100 100 100 100 100 94 100 69 2 3 18 79 83 97 99 96
11 39 100 100 100 100 100 96 40 95 95 95 78 85 100 91 100 100 100 67 95 89 95 95 100 100 99 93 100 100 100 100 100 66 4 8 7 26 89 100 96 54 73 100
100 12 16 100 96 100 68 4 5 17 99 96 94 100 100 84 100 100 100 98 100 93 96 100 100 100 100 100 100 92 48 10 8 10 28 44 81 94 100 100 100 100 100 100
100 90 96 55 9 8 6 14 4 47 100 100 19 49 50 11 63 95 100 95 69 100 100 100 100 100 100 100 95 48 5 5 5 44 58 77 100 100 100 100 100 100 100 100
100 100 100 98 70 97 96 99 97 98 98 100 77 100 85 92 100 100 98 100 100 100 100 100 100 100 96 94 13 16 6 72 86 100 71 99 100 100 100 100 100 100 100 100
100 76 41 84 100 100 100 100 100 100 100 100 100 100 100 100 100 100 100 100 100 100 100 100 62 93 26 20 64 94 72 90 100 100 100 100 100 100 100 100 100 100 100 100
100 100 100 100 100 100 100 100 100 100 100 100 100 100 100 100 100 100 100 100 100 100 81 9 6 32 6 34 97 100 99 100 100 100 100 100 100 100 100 100 100 100 100 91
100 100 100 100 100 100 100 100 100 100 100 100 100 100 100 100 100 100 100 100 99 97 17 10 5 38 96 100 100 78 77 100 100 100 100 100 100 100 100 100 100 100 100 92
100 100 100 100 100 100 100 100 100 100 100 100 100 100 100 100 100 100 100 94 98 25 71 87 68 100 100 100 100 100 100 100 100 100 100 100 100 100 100 100 100 100 100 95
100 100 100 100 100 100 100 100 100 100 100 99 80 50 46 61 52 82 93 99 100 100 88 72 100 100 100 100 100 100 100 100 100 100 100 100 100 100 100 100 100 100 83 94
100 100 100 100 100 100 100 85 80 66 94 51 71 62 94 33 100 100 100 100 100 100 100 100 100 100 100 100 100 100 100 100 100 100 100 100 100 100 100 100 100 100 94 98
100 100 100 100 100 100 100 84 75 72 54 64 96 100 100 100 100 100 100 100 100 100 100 100 100 100 100 100 100 100 100 100 100 100 100 100 100 100 100 100 100 100 100 100
100 100 100 100 97 68 87 99 100 100 100 100 100 100 100 100 100 100 100 100 100 100 100 100 100 100 100 100 100 100 98 73 50 43 42 90 89 99 92 98 100 100 100 100
100 100 100 100 100 100 100 100 100 100 100 100 100 100 100 100 100 100 100 100 100 100 100 100 100 100 94 67 54 41 10 5 5 5 5 42 83 100 100 100 100 100 100 100
100 100 100 100 100 100 100 100 100 100 100 100 100 100 100 100 100 100 100 100 100 100 76 74 90 62 41 65 100 10 9 12 10 14 8 52 64 74 98 100 100 100 100 100
100 100 100 100 100 100 100 100 100 100 100 100 100 100 100 100 100 100 100 98 84 85 85 96 99 100 100 100 100 69 90 86 91 33 9 34 51 94 93 100 100 100 100 100
100 100 100 100 100 100 100 100 100 100 100 100 100 100 100 100 100 81 66 83 93 100 100 100 100 100 100 100 96 81 74 82 90 97 81 79 80 100 100 100 100 100 100 100

GFSNW_prec_cloud_123.txt.gz
Cloud_Cover
100 100 100 100 100 100 100 86 100 100 100 100 100 100 100 100 100 100 100 100 100 100 100 96 88 51 89 100 100 85 74 73 15 7 14 74 62 18 45 100 92 99 100 4
100 100 100 100 100 100 100 71 97 100 100 100 100 100 100 100 100 100 100 100 100 100 100 100 100 100 100 100 100 100 100 84 30 89 63 23 68 84 97 100 100 67 100 11
100 100 100 100 100 100 100 100 100 100 100 100 100 81 100 100 100 100 100 100 100 100 100 100 100 100 100 100 100 100 100 100 72 29 92 100 100 95 86 100 76 59 10 92
100 90 100 100 100 100 100 100 100 100 100 100 100 100 95 92 100 100 100 100 100 100 100 100 100 100 100 100 100 100 100 100 89 6 21 55 98 5 43 90 54 99 48 94
100 100 100 100 100 100 100 100 100 100 100 100 100 100 100 97 100 100 100 100 100 100 100 100 100 100 100 100 100 100 100 99 100 94 94 76 72 5 5 5 98 88 100 13
90 100 100 100 100 100 100 100 100 100 56 89 100 100 100 100 100 100 100 100 100 100 98 100 100 100 100 100 100 100 100 100 100 96 100 100 100 12 5 5 72 100 96 100
100 100 100 100 100 100 100 100 100 98 77 83 81 100 100 100 100 100 100 100 93 100 100 100 94 99 99 72 59 100 100 100 100 100 100 97 12 5 23 55 100 100 75 6
100 100 100 100 100 100 100 100 100 100 100 91 63 47 68 100 100 100 100 100 100 100 100 100 100 100 100 54 93 100 100 100 100 100 100 100 14 27 100 100 92 83 66 19
100 100 100 100 100 100 100 100 77 100 99 62 35 20 92 32 93 100 100 100 100 100 100 100 100 100 100 100 100 100 100 100 100 100 100 98 82 71 98 97 64 74 5 47
100 100 100 100 100 100 99 66 56 97 100 40 95 98 8 76 66 41 32 78 93 83 100 97 97 90 69 36 76 97 100 100 100 100 100 100 99 11 5 4 0 5 5 18
100 100 26 100 99 7 5 22 83 98 100 100 100 92 42 49 20 29 45 72 90 98 100 93 69 31 14 30 5 9 100 100 90 100 100 97 100 54 5 2 13 5 8 20
100 100 100 17 5 5 96 25 89 56 71 52 100 100 64 53 100 100 88 47 69 94 99 46 14 74 55 10 91 94 98 100 100 100 100 100 34 4 5 5 5 30 95 66
72 77 80 29 71 61 80 100 95 73 100 81 41 4 36 5 10 53 92 96 100 99 100 100 99 88 21 100 100 100 95 7 91 100 97 64 5 5 7 7 5 100 96 100
68 11 5 5 5 54 60 100 80 5 62 20 5 6 63 78 54 96 100 100 100 91 97 100 94 69 100 100 100 100 97 99 38 5 28 28 5 29 68 12 38 99 100 100
79 72 42 5 13 100 100 98 20 5 4 100 30 82 100 100 100 100 100 100 100 100 96 100 100 100 100 100 100 100 67 58 34 98 9 77 46 22 51 98 100 100 100 100
100 64 100 16 47 98 67 100 31 49 55 97 100 97 79 82 100 100 100 100 100 100 100 100 100 100 100 100 97 48 99 7 5 16 100 100 96 100 100 100 100 100 100 100
100 100 69 97 11 41 86 100 100 100 100 100 100 100 100 100 100 100 100 100 100 100 100 100 100 99 11 5 16 43 16 70 87 100 93 100 100 100 100 100 100 100 100 100
100 100 100 100 100 100 100 100 100 100 100 100 100 100 100 100 100 100 100 100 100 100 100 100 84 30 15 23 58 81 86 99 98 97 100 100 100 100 100 100 100 100 100 100
100 100 100 100 100 100 100 100 100 100 100 100 100 100 100 100 100 100 100 100 100 100 100 64 5 22 42 77 100 100 100 100 98 100 100 100 100 100 100 100 100 100 100 100
100 100 100 100 100 100 100 100 100 100 100 100 100 100 100 100 100 100 100 100 100 100 76 39 44 9 84 100 100 100 100 100 100 100 100 100 100 100 100 100 100 100 100 100
100 100 100 100 100 100 100 100 100 100 100 98 97 100 100 99 100 100 100 95 69 40 25 52 76 100 100 100 100 100 100 100 100 100 100 100 100 100 100 100 100 100 100 100
100 100 100 100 100 100 100 100 100 86 88 64 78 94 80 99 97 100 100 100 100 100 100 100 100 100 100 100 100 100 100 100 100 100 100 100 100 100 100 100 100 100 100 100
99 100 100 100 98 95 89 92 92 76 90 100 86 82 99 100 100 100 100 100 100 100 100 100 100 100 100 100 100 100 100 100 100 100 100 100 100 100 100 100 100 100 100 100
100 100 100 100 100 100 100 100 100 100 100 100 100 99 100 100 100 100 100 100 100 100 100 100 100 100 100 100 100 100 80 69 60 52 32 18 27 30 68 92 100 100 100 100
100 100 100 100 100 100 100 100 100 100 100 100 100 100 100 100 100 100 100 100 100 100 100 100 100 100 99 78 74 55 24 6 5 5 5 11 27 36 88 94 100 100 100 100
100 100 100 100 100 100 100 100 100 100 100 100 100 100 100 100 100 100 100 100 100 100 100 100 99 100 100 97 31 5 5 5 5 9 24 20 11 44 85 93 100 100 95 100
100 100 100 100 100 100 100 100 100 100 100 100 100 100 100 100 100 100 100 100 100 100 100 100 100 100 100 100 94 19 5 5 28 63 80 91 86 73 94 100 100 100 100 100